     2              Observation         GPS                 RINEX VERSION / TYPE
ASRINEXO V2.2.0 UX USGS 05-JUL-94 11:26                     PGM / RUN BY / DATE
                                                            COMMENT
Original Marker Name: 7549 70549_1968_San_Ber._Co.          COMMENT
Campaign Name: USGS-Landers Level                           COMMENT
4-Character Station Name: 7549                              COMMENT
6-Character Antenna Code: ASHL12                            COMMENT
Vertical Measurement Point: BBE                             COMMENT
Vertical Offset to Rinex Ref. Point: 0.0595                 COMMENT
Radial Measurement Point: EGP                               COMMENT
Radial Offset to Rinex Ref. Point: 0.1424                   COMMENT
Antenna Height from Field Measurement: 1.2170 m             COMMENT
Additional Antenna Identification Info.:                    COMMENT
Original Ashtech L1/L2                                      COMMENT
Revised Rinex header created by UCSD GPS archive for        COMMENT
SCEC DC on 17-Mar-2000 (2000.077) 18:21:29 GMT              COMMENT
For assistance contact dagnew@ucsd.edu or hjohnson@ucsd.edu COMMENT
                                                            COMMENT
7549 70549_1968_SAN_BER._CO.                                MARKER NAME
                                                            MARKER NUMBER
GDH US GEOLOGICAL SURVEY                                    OBSERVER / AGENCY
225 ASHTECH LM-XII3 6G                                      REC # / TYPE / VERS
733 ASHTECH GEODETIC L                                      ANT # / TYPE
 -2354033.6200 -4717803.9800  3578832.6500                  APPROX POSITION XYZ
        1.1491        0.0000        0.0000                  ANTENNA: DELTA H/E/N
     1     1     0                                          WAVELENGTH FACT L1/2
     5    C1    L1    L2    P1    P2                        # / TYPES OF OBSERV
     5                                                      INTERVAL
  1992     8     3    23    54   35.000000                  TIME OF FIRST OBS
  1992     8     4     1     0   25.000000                  TIME OF LAST OBS
                                                            END OF HEADER
 92  8  3 23 54 35.0000000  0  6  3 23 20 21 16 17
  28018988.538       63723.40919     49654.13819  20524197.804    20524197.414
  29026221.825       88826.71918     69215.49919  21531429.112    21531428.542
  31517512.560    -6763082.79616  -1791439.08316  24022721.646    24022726.622
  32271324.777       66728.10814     51995.79515  24776528.676    24776536.830
  31972017.323    -5013455.74915     41349.98115                  24477237.051
  28323914.642       24172.73919     18836.51719  20829125.347    20829124.237
 92  8  3 23 54 40.0000000  0  6  3 23 20 21 16 17
  28018782.101       62631.832 8     48803.558 9  20523989.837    20523989.897
  29024467.619       79627.455 8     62047.251 9  21529678.504    21529677.934
  31521062.253    -6744412.260 6  -1776890.637 6  24026274.756    24026278.174
  32268404.199       51382.984 4                                  24773608.368
  31975506.727    -4995169.597 5     55598.940 5                  24480715.993
  28323503.417       22005.574 9     17147.819 9  20828712.802    20828711.843
 92  8  3 23 54 45.0000000  0  6  3 23 20 21 16 17
  28018573.115       61551.767 8     47961.954 9  20523784.360    20523784.150
  29022721.808       70439.317 8     54887.673 9  21527930.174    21527929.724
  31524615.243    -6725741.595 6  -1762342.094 6  24029828.376    24029832.003
  32265481.432       36041.870 4     15562.53315  24770690.398    24770697.053
  31978989.326    -4976881.813 5     69849.140 6                  24484197.633
  28323093.271       19844.206 9     15463.638 9  20828301.487    20828300.797
 92  8  3 23 54 50.0000000  0  6  3 23 20 21 16 17
  28018369.317       60482.514 8     47128.770 9  20523580.891    20523580.561
  29020973.358       61261.437 8     47736.094 9  21526183.673    21526183.134
  31528170.842    -6707071.610 6  -1747794.089 6  24033380.557    24033384.694
  32262565.681       20703.872 4      3610.905 5  24767771.439    24767776.025
  31982472.615    -4958593.202 5     84099.995 6                  24487676.514
  28322682.525       17687.773 9     13783.302 9  20827891.371    20827890.352
 92  8  3 23 54 55.0000000  0  6  3 23 20 21 16 17
  28018173.282       59424.101 8     46304.034 9  20523379.640    20523379.430
  29019230.185       52093.908 8     40592.573 9  21524439.001    21524438.192
  31531725.451    -6688402.179 6  -1733246.508 7  24036933.367    24036937.714
  32259652.267        5369.352 4     17927.96414  24764853.918    24764859.794
  31985945.890    -4940303.647 5     98351.583 5                  24491157.614
  28322269.561       15536.513 9     12107.004 9  20827481.884    20827480.925
 92  8  3 23 55  0.0000000  0  6  3 23 20 21 16 17
  28017970.832       58377.006 8     45488.122 9  20523180.098    20523179.978
  29017485.753       42937.120 8     33457.425 9  21522696.577    21522695.858
  31535281.169    -6669732.953 6  -1718699.077 6  24040485.908    24040489.326
  32256738.465       -9961.375 4                                  24761936.368
  31989427.380    -4922012.927 5    112604.093 5                  24494638.265
  28321866.400       13391.051 9     10435.217 9  20827073.567    20827072.458
 92  8  3 23 55  5.0000000  0  6  3 23 20 21 16 17
  20522961.220        5401.55418      4209.60419  20522982.235    20522981.695
  21520929.750       45911.91218     35775.67319  21520947.498    21520946.659
  24044037.129      -93281.11916    -72686.50816  24044055.747    24044059.704
  24758990.368       76649.65514                                  24759004.728
  24498119.605      -91368.13815    -71195.67115                  24498135.793
  20826645.973       10802.23819      8417.26019  20826664.410    20826663.271
 92  8  3 23 55 10.0000000  0  6  3 23 20 21 16 17
  20522768.993        4376.349 8      3410.744 9  20522787.010    20522786.740
  21519187.027       36776.107 7     28656.873 9  21519209.002    21519208.252
  24047586.103      -74613.060 6    -58140.019 6  24047608.737    24047612.574
  24756074.916       61326.077 4     -9614.46915  24756089.426    24756093.893
  24501597.917       49528.64915    -56941.996 5  24501615.694    24501616.594
  20826239.394        8667.702 9      6753.984 9  20826258.311    20826257.112
 92  8  3 23 55 15.0000000  0  6  3 23 20 21 16 17
  20522576.706        3362.824 8      2620.986 9  20522594.184    20522593.824
  21517450.839       27651.368 8     21546.692 9  21517472.754    21517471.764
  24051142.900      -55944.904 5    -43593.417 6  24051161.278    24051165.175
  24753159.404       46006.812 5    -21551.494 4  24753175.113    24753181.019
  24505075.120       67822.426 5    -42687.120 5  24505096.345    24505097.364
  20825832.906        6539.099 9      5095.333 9  20825853.172    20825851.913
 92  8  3 23 55 20.0000000  0  6  3 23 20 21 16 17
  20522382.260        2360.534 8      1839.981 9  20522403.396    20522403.186
  21515716.090       18536.976 8     14444.576 9  21515738.124    21515737.285
  24054688.965      -37277.062 5    -29047.078 6  24054713.069    24054717.266
  24750240.895       30691.429 4    -33485.509 5  24750259.662    24750264.728
  24508546.566       86117.084 5    -28431.559 5  24508578.164    24508578.854
  20825429.565        4416.028 9      3440.998 9  20825449.202    20825447.912
 92  8  3 23 55 25.0000000  0  6  3 23 20 21 16 17
  20522193.811        1370.286 8      1068.367 9  20522215.126    20522214.616
  21513984.818        9433.639 8      7351.079 9  21514005.834    21514005.024
  24058243.844      -18608.756 5    -14500.397 6  24058265.070    24058270.616
  24747327.242       15380.469 5     37002.95415  24747346.818    24747352.185
  24512042.926      104413.149 5    -14174.893 5  24512060.254    24512060.254
  20825028.563        2299.356 9      1791.642 9  20825046.280    20825044.901
 92  8  3 23 55 30.0000000  0  6  3 23 20 21 16 17
  20522008.449         391.828 8       305.929 9  20522028.925    20522028.325
  21512256.215         340.900 8       265.835 9  21512275.941    21512274.622
  24061789.999          59.633 5        46.364 6  24061817.460    24061822.137
  24744409.392          73.385 5     25075.399 5  24744433.975    24744438.352
  24515515.872      122710.085 5        82.437 6  24515541.923    24515543.003
  20824624.442         188.588 9       146.899 9  20824644.768    20824643.419
 92  8  3 23 55 35.0000000  0  7  3 23 20 26 21 16 17
  20521825.156        -574.509 8      -447.057 9  20521844.912    20521844.583
  21510525.123       -8740.910 8     -6810.885 9  21510547.698    21510546.469
  24065347.966       18728.503 5     14593.508 6  24065369.641    24065375.277
  22441898.297      174733.93017
  24741504.223      -15229.588 5     13151.043 5  24741521.671    24741526.138
  24519003.837      141008.337 5     14340.808 5  24519024.223    24519025.512
  20824223.920       -1915.988 9     -1493.026 9  20824244.336    20824242.807
 92  8  3 23 55 40.0000000  0  7  3 23 20 26 21 16 17
  20521643.602       -1528.934 8     -1190.764 9  20521663.118    20521663.118
  21508800.357      -17812.154 8    -13879.381 9  21508821.463    21508820.383
  24068900.447       37397.579 5     29140.811 6  24068922.362    24068927.368
  22441572.962      185648.60917                                  22441593.498
  24738592.159      -30528.773 5      1229.686 5  24738609.847    24738615.273
  24522491.293      159307.790 5     28600.118 6  24522507.182    24522508.441
  20823825.436       -4014.501 9     -3128.235 9  20823845.102    20823843.693
 92  8  3 23 55 45.0000000  0  7  3 23 20 26 21 16 17
  20521461.238       -2471.434 8     -1925.179 9  20521483.992    20521483.782
  21507077.870      -26872.693 8    -20939.530 9  21507097.206    21507096.127
  24072450.619       56066.950 5     43688.341 6  24072475.922    24072480.059
  22441248.197      183942.959 7     84155.76618  22441269.273    22441265.195
  24735678.866      -45823.984 5    -10688.594 5  24735699.911    24735705.038
  24525959.472      177608.527 5     42860.405 6  24525989.301    24525990.320
  20823430.219       -6106.708 9     -4758.523 9  20823446.798    20823445.239
 92  8  3 23 55 50.0000000  0  7  3 23 20 26 21 16 17
  20521284.151       -3402.231 8     -2650.476 9  20521306.755    20521306.365
  21505355.742      -35922.744 8    -27991.513 9  21505375.079    21505373.939
  24076014.072       74736.280 5     58235.825 7  24076027.713    24076032.929
  22440925.980      182252.196 7     82838.287 8  22440947.505    22440946.366
  24732764.793      -61115.691 4    -22604.172 5  24732789.166    24732794.563
  24529456.161      195910.387 5     57121.583 6  24529471.750    24529472.829
  20823025.559       -8192.661 9     -6383.936 9  20823049.873    20823048.374
 92  8  3 23 55 55.0000000  0  7  3 23 20 26 21 16 17
  20521111.620       -4320.946 8     -3366.355 9  20521132.066    20521131.526
  21503630.736      -44962.207 8    -35035.238 9  21503654.929    21503653.610
  24079562.506       93405.920 5     72783.552 7  24079582.232    24079585.320
  22440606.791      180576.621 7     81532.656 8  22440628.766    22440628.076
  24729857.346      -76403.726 4    -34516.853 5  24729879.980    24729884.687
  24532936.541      214213.764 5     71383.939 6  24532955.009    24532957.077
  20822632.771      -10272.145 9     -8004.307 9  20822654.176    20822652.737
 92  8  3 23 56  0.0000000  0  7  3 23 20 26 21 16 17
  20520936.152       -5227.850 8     -4073.030 9  20520959.535    20520958.786
  21501918.232      -53991.395 8    -42070.963 9  21501936.699    21501935.890
  24083115.496      112075.640 5     87331.367 6  24083134.743    24083138.190
  22440291.230      178915.973 7     80238.646 8  22440312.635    22440312.125
  24726952.837      -91688.268 4    -46426.859 5  24726971.634    24726976.041
  24536414.284      232518.387 5     85647.277 6  24536437.788    24536439.047
  20822236.296      -12345.215 9     -9619.688 9  20822259.740    20822258.121
 92  8  3 23 56  5.0000000  0  7  3 23 20 26 21 16 17
  20520764.670       -6123.003 8     -4770.550 9  20520789.103    20520788.474
  21500199.312      -63010.486 8    -49098.825 9  21500220.087    21500219.218
  24086668.366      130745.332 5    101879.158 6  24086687.014    24086691.301
  22439975.878      177269.999 7     78956.081 8  22439999.472    22439999.082
  24724045.030     -106969.400 5    -58334.169 5  24724062.328    24724068.923
  24539895.624      250824.369 5     99911.664 6  24539921.736    24539922.845
  20821847.315      -14411.872 9    -11230.064 9  20821866.142    20821864.793
 92  8  3 23 56 10.0000000  0  7  3 23 20 26 21 16 17
  20520600.624       -7006.167 8     -5458.735 9  20520620.830    20520620.650
  21498484.499      -72019.292 8    -56118.658 9  21498506.144    21498505.155
  24090216.200      149415.204 5    116427.084 6  24090240.603    24090243.511
  22439669.070      175639.002 7     77685.182 8  22439689.096    22439688.197
  24721137.043     -122246.766 4    -70238.550 5  24721155.330    24721160.217
  24543385.208      269132.006 5    114177.338 5  24543404.335    24543406.793
  20821450.570      -16471.999 9    -12835.356 9  20821474.163    20821472.694
 92  8  3 23 56 15.0000000  0  7  3 23 20 26 21 16 17
  20520436.278       -7877.258 9     -6137.501 9  20520455.344    20520454.805
  21496768.097      -81017.751 8    -63130.434 9  21496793.669    21496792.860
  24093773.718      168085.283 5    130975.149 7  24093792.335    24093796.772
  22439366.460      174023.067 7     76426.020 8  22439381.569    22439381.330
  24718224.949     -137520.220 5    -82139.884 5  24718248.063    24718255.378
  24546869.876      287441.318 5    128444.340 6  24546889.962    24546891.161
  20821062.668      -18525.407 9    -14435.413 9  20821083.444    20821081.885
 92  8  3 23 56 20.0000000  0  7  3 23 20 26 21 16 17
  20520270.432       -8736.840 8     -6807.300 9  20520291.688    20520291.148
  21495064.437      -90006.469 8    -70134.621 9  21495083.234    21495082.484
  24097319.453      186754.995 5    145522.931 6  24097344.665    24097349.522
  22439056.534      172421.674 7     75178.193 8  22439076.740    22439076.231
  24715323.588     -152790.374 5    -94038.659 5  24715343.494    24715349.100
  24550352.175      305751.883 5    142712.310 6  24550373.850    24550375.019
  20820672.368      -20572.630 9    -16030.647 9  20820693.774    20820692.395
 92  8  3 23 56 25.0000000  0  7  3 23 20 26 21 16 17
  20520104.407       -9584.636 8     -7467.920 9  20520130.309    20520129.740
  21493353.491      -98985.083 8    -77130.931 9  21493374.417    21493373.937
  24100877.420      205424.693 5    160070.710 6  24100897.326    24100901.793
  22438752.845      170835.041 7     73941.858 8  22438774.670    22438774.520
  24712421.477     -168056.707 4   -105934.437 5  24712438.175    24712443.451
  24553833.395      324064.154 5    156981.604 6  24553857.738    24553860.016
  20820287.195      -22613.117 9    -17620.636 9  20820305.542    20820304.193
 92  8  3 23 56 30.0000000  0  7  3 23 20 26 21 16 17
  20519951.063      -10420.356 8     -8119.132 9  20519971.329    20519970.850
  21491646.803     -107953.419 8    -84119.239 9  21491668.028    21491667.068
  24104424.414      224094.552 5    174618.620 7  24104450.436    24104454.993
  22438450.984      169263.161 7     72717.019 8  22438475.836    22438474.967
  24709509.143     -183319.114 4   -117827.181 5  24709534.175    24709538.103
  24557318.362      342378.262 5    171252.335 6  24557342.046    24557344.054
  20819896.266      -24646.852 9    -19205.359 9  20819918.510    20819917.191
 92  8  3 23 56 35.0000000  0  7  3 23 20 26 21 16 17
  20519793.433      -11244.049 8     -8760.969 9  20519814.598    20519813.998
  21489939.844     -116911.500 8    -91099.549 9  21489963.228    21489962.479
  24107981.811      242764.495 5    189166.573 6  24108003.097    24108007.204
  22438157.757      167706.006 7     71503.656 8  22438179.432    22438178.682
  24706609.580     -198577.609 5   -129716.875 5  24706629.726    24706635.092
  24560809.685      360694.088 5    185524.377 6  24560827.673    24560831.120
  20819511.452      -26673.968 9    -20784.928 9  20819532.588    20819531.508
 92  8  3 23 56 40.0000000  0  7  3 23 20 26 21 16 17
  20519639.699      -12055.976 8     -9393.635 9  20519659.845    20519659.665
  21488240.321     -125859.582 8    -98072.081 9  21488260.227    21488259.627
  24111537.200      261434.286 5    203714.413 6  24111555.937    24111560.314
  22437861.292      166163.269 7     70301.535 8  22437885.455    22437884.856
  24703706.510     -213832.424 4   -141603.679 5  24703726.896    24703732.622
  24564292.224      379011.225 5    199797.468 6  24564313.600    24564316.568
  20819125.589      -28694.897 9    -22359.677 9  20819148.104    20819146.725
 92  8  3 23 56 45.0000000  0  7  3 23 20 26 21 16 17
  20519485.935      -12855.774 8    -10016.859 9  20519507.760    20519507.551
  21486535.551     -134797.466 8   -105036.652 9  21486559.325    21486558.635
  24115091.599      280104.191 5    218262.352 6  24115108.658    24115112.645
  22437576.969      164635.177 7     69110.822 8  22437594.776    22437593.937
  24700807.367     -229083.414 4   -153487.543 5  24700824.875    24700830.181
  24567783.967      397329.890 5    214071.737 6  24567800.636    24567802.974
  20818742.814      -30709.527 9    -23929.516 9  20818764.849    20818763.410
 92  8  3 23 56 50.0000000  0  7  3 23 20 26 21 16 17
  20519334.510      -13643.881 8    -10630.961 9  20519357.894    20519357.354
  21484839.775     -143725.396 8   -111993.473 9  21484860.401    21484859.651
  24118641.532      298773.856 5    232810.117 6  24118661.258    24118665.545
  22437283.802      163121.301 7     67931.195 8  22437306.886    22437306.346
  24697904.716     -244331.204 4   -165368.891 5  24697923.843    24697928.070
  24571261.530      415649.615 5    228346.823 6  24571286.442    24571287.971
  20818361.928      -32718.308 8    -25494.796 9  20818382.374    20818381.295
 92  8  3 23 56 55.0000000  0  7  3 23 20 26 21 16 17
  20519187.342      -14420.420 8    -11236.057 9  20519209.977    20519209.677
  21483142.590     -152643.563 8   -118942.687 9  21483163.545    21483162.916
  24122188.526      317443.029 5    247357.489 6  24122214.189    24122217.636
  22437000.858      161621.147 7     66762.246 8  22437021.453    22437020.494
  24695002.486     -259576.170 4   -177248.016 5  24695021.372    24695027.938
  24574749.375      433969.990 5    242622.437 6  24574773.358    24574775.127
  20817981.611      -34721.671 8    -27055.854 9  20818001.188    20818000.018
 92  8  3 23 57  0.0000000  0  7  3 23 20 26 21 16 17
  20519044.881      -15185.416 8    -11832.156 9  20519064.307    20519064.217
  21481450.171     -161551.832 8   -125884.186 9  21481468.339    21481467.500
  24125743.136      336111.709 5    261904.484 6  24125767.389    24125769.337
  22436715.815      160134.729 7     65604.010 8  22436738.749    22436737.760
  24692100.764     -274818.084 4   -189124.783 6  24692120.551    24692127.026
  24578240.038      452291.032 5    256898.560 6  24578259.885    24578261.264
  20817596.918      -36719.861 8    -28612.878 9  20817620.961    20817619.522
 92  8  3 23 57  5.0000000  0  7  3 23 20 26 21 16 17
  20518903.079      -15938.490 8    -12418.967 9  20518921.306    20518920.887
  21479753.106     -170449.787 8   -132817.647 9  21479775.201    21479774.302
  24129298.854      354780.274 5    276451.408 6  24129319.060    24129322.687
  22436441.235      158662.429 7     64456.770 8  22436458.743    22436457.454
  24689205.519     -290056.726 4   -200998.998 6  24689221.198    24689226.804
  24581726.565      470612.882 5    271175.327 6  24581745.572    24581747.011
  20817221.757      -38712.466 8    -30165.556 9  20817241.813    20817240.554
 92  8  3 23 57 10.0000000  0  7  3 23 20 26 21 16 17
  20518757.800      -16679.942 8    -12996.713 9  20518779.954    20518779.415
  21478061.887     -179337.593 8   -139743.209 9  21478083.712    21478083.262
  24132854.722      373448.465 5    290998.020 6  24132871.721    24132875.678
  22436158.711      157204.023 7     63320.356 8  22436180.985    22436180.086
  24686306.226     -305292.323 4   -212870.850 6  24686321.395    24686328.081
  24585218.308      488935.265 5    285452.511 6  24585232.937    24585234.526
  20816844.019      -40699.565 8    -31713.941 9  20816863.625    20816862.366
 92  8  3 23 57 15.0000000  0  7  3 23 20 26 21 16 17
  20518618.516      -17410.062 8    -13565.638 9  20518641.270    20518640.641
  21476372.527     -188215.579 8   -146661.107 9  21476394.412    21476393.572
  24136403.156      392115.762 5    305543.948 6  24136424.171    24136427.379
  22435885.690      155758.970 7     62194.351 8  22435906.255    22435905.236
  24683397.400     -320525.193 4   -224740.590 6  24683422.342    24683429.477
  24588706.633      507257.711 5    299729.723 6  24588719.044    24588721.322
  20816467.779      -42681.613 8    -33258.391 9  20816486.606    20816485.167
 92  8  3 23 57 20.0000000  0  7  3 23 20 26 21 16 17
  20518483.340      -18128.678 8    -14125.596 9  20518504.235    20518503.875
  21474686.284     -197083.548 8   -153571.214 9  21474707.060    21474706.520
  24139959.714      410782.459 5    320089.388 6  24139976.262    24139980.849
  22435614.108      154327.476 7     61078.916 8  22435633.594    22435632.785
  24680509.649     -335755.217 4   -236608.109 6  24680525.628    24680531.414
  24592182.906      525580.521 5    314007.238 6  24592205.990    24592207.129
  20816088.961      -44658.556 8    -34798.858 9  20816110.487    20816109.197
 92  8  3 23 57 25.0000000  0  7  3 23 20 26 21 16 17
  20518349.692      -18835.980 8    -14676.748 9  20518369.958    20518369.328
  21472997.643     -205941.807 8   -160473.739 9  21473021.207    21473020.307
  24143506.678      429448.357 5    334634.218 6  24143527.754    24143532.760
  22435341.506      152909.314 7     59973.861 8  22435363.871    22435362.881
  24677615.662     -350982.740 4   -248473.661 6  24677627.054    24677633.470
  24595676.837      543903.623 5    328284.979 6  24595693.476    24595693.776
  20815713.322      -46630.666 8    -36335.565 9  20815734.997    20815733.947
 92  8  3 23 57 30.0000000  0  7  3 23 20 26 21 16 17
  20518217.274      -19532.130 8    -15219.193 9  20518237.330    20518236.640
  21471317.786     -214790.649 8   -167368.929 9  21471337.243    21471336.703
  24147058.199      448113.119 5    349178.157 6  24147079.485    24147083.622
  22435076.640      151504.214 7     58878.994 8  22435096.486    22435095.257
  24674717.239     -366208.122 4   -260337.560 6  24674731.329    24674736.006
  24599157.757      562226.953 5    342562.889 6  24599180.572    24599181.171
  20815338.401      -48598.257 8    -37868.748 9  20815360.496    20815359.506
 92  8  3 23 57 35.0000000  0  7  3 23 20 26 21 16 17
  20518083.716      -20217.085 8    -15752.926 9  20518106.980    20518106.530
  21469635.770     -223629.839 8   -174256.598 9  21469655.167    21469654.627
  24150607.952      466776.938 5    363721.356 6  24150631.336    24150635.623
  22434809.884      150112.557 7     57794.586 8  22434831.739    22434830.900
  24671812.789     -381431.181 4   -272199.649 6  24671833.535    24671838.721
  24602644.943      580550.715 5    356841.127 6  24602666.498    24602668.567
  20814967.888      -50561.090 8    -39398.230 9  20814987.164    20814986.205
 92  8  3 23 57 40.0000000  0  7  3 23 20 26 21 16 17
  20517956.394      -20891.100 8    -16278.131 9  20517978.849    20517978.309
  21467952.586     -232459.452 8   -181136.810 9  21467974.860    21467974.411
  24154163.880      485439.530 5    378263.583 6  24154182.737    24154187.384
  22434545.797      148734.057 7     56720.431 8  22434569.541    22434568.671
  24668912.207     -396652.175 4   -284060.118 6  24668938.349    24668942.726
  24606136.686      598874.559 5    371119.451 6  24606152.935    24606155.603
  20814595.425      -52519.344 8    -40924.142 9  20814614.342    20814613.503
 92  8  3 23 57 45.0000000  0  7  3 23 20 26 21 16 17
  20517829.912      -21554.193 8    -16794.832 9  20517852.306    20517852.127
  21466276.806     -241279.297 8   -188009.408 9  21466296.622    21466296.232
  24157712.074      504100.732 5    392804.758 6  24157733.479    24157738.216
  22434287.796      147368.495 7     55656.370 8  22434309.321    22434308.421
  24666020.559     -411871.161 4   -295919.008 6  24666041.065    24666046.581
  24609613.889      617198.511 5    385397.840 6  24609640.151    24609641.440
  20814222.813      -54473.035 8    -42446.491 9  20814242.420    20814241.820
 92  8  3 23 57 50.0000000  0  7  3 23 20 26 21 16 17
  20517706.697      -22206.094 8    -17302.799 9  20517728.402    20517728.192
  21464598.628     -250088.846 8   -194873.981 9  21464620.033    21464619.463
  24161263.086      522760.843 5    407345.082 6  24161284.521    24161289.467
  22434029.135      146016.056 7     54602.529 8  22434051.529    22434050.840
  24663121.746     -427087.848 4   -307776.130 6  24663145.490    24663150.676
  24613109.529      635522.966 5    399676.627 6  24613126.707    24613129.045
  20813851.251      -56421.745 8    -43964.962 9  20813871.696    20813870.707
 92  8  3 23 57 55.0000000  0  7  3 23 20 26 21 16 17
  20517587.260      -22846.913 8    -17802.140 9  20517606.447    20517606.207
  21462923.327     -258887.994 8   -201730.447 9  21462945.512    21462945.062
  24164808.881      541419.834 5    421884.503 6  24164835.592    24164840.299
  22433776.799      144676.671 7     53558.853 8  22433796.736    22433796.196
  24660229.019     -442302.296 4   -319631.499 6  24660251.653    24660255.370
  24616594.047      653847.858 5    413955.741 6  24616614.223    24616615.961
  20813478.279      -58365.445 8    -45479.532 9  20813501.813    20813500.883
 92  8  3 23 58  0.0000000  0  7  3 23 20 26 21 16 17
  20517465.094      -23476.930 8    -18293.060 9  20517486.590    20517486.410
  21461250.845     -267677.036 8   -208579.043 9  21461273.090    21461272.430
  24168359.473      560077.328 5    436422.784 6  24168385.465    24168390.411
  22433519.158      143350.155 7     52525.211 8  22433544.250    22433543.141
  24657332.574     -457514.703 4   -331485.278 6  24657355.028    24657360.395
  24620076.676      672172.824 5    428234.918 6  24620101.378    24620104.316
  20813112.322      -60304.453 8    -46990.444 9  20813132.768    20813131.899
 92  8  3 23 58  5.0000000  0  7  3 23 20 26 21 16 17
  20517347.576      -24096.007 8    -18775.456 9  20517368.711    20517368.441
  21459582.590     -276455.660 8   -215419.526 9  21459602.346    21459602.077
  24171913.992      578733.436 5    450959.976 6  24171935.307    24171940.674
  22433268.322      142036.530 7     51501.624 8  22433294.463    22433293.354
  24654429.144     -472724.904 4   -343337.327 6  24654461.851    24654465.988
  24623567.819      690497.848 5    442514.142 6  24623589.614    24623590.033
  20812744.627      -62238.733 8    -48497.671 9  20812765.103    20812764.053
 92  8  3 23 58 10.0000000  0  7  3 23 20 26 21 16 17
  20517230.147      -24703.928 8    -19249.157 9  20517252.961    20517252.811
  21457911.367     -285223.916 8   -222251.924 9  21457933.911    21457933.462
  24175468.601      597388.318 5    465496.219 6  24175485.899    24175490.516
  22433029.627      140736.079 7     50488.287 8  22433047.344    22433045.876
  24651547.779     -487932.873 4   -355187.651 6  24651567.655    24651571.702
  24627060.821      708823.102 5    456793.545 7  24627076.889    24627078.059
  20812379.270      -64168.450 8    -50001.348 9  20812397.827    20812396.808
 92  8  3 23 58 15.0000000  0  7  3 23 20 26 21 16 17
  20517121.083      -25301.072 8    -19714.466 9  20517139.220    20517139.220
  21456245.930     -293982.279 8   -229076.618 9  21456267.425    21456266.706
  24179016.255      616041.527 5    480031.136 6  24179035.232    24179039.819
  22432782.868      139448.336 7     49484.860 8  22432802.174    22432800.765
  24648656.640     -503139.054 5   -367036.575 6  24648674.208    24648678.375
  24630543.719      727147.892 5    471072.604 6  24630563.925    24630563.955
  20812013.493      -66094.136 8    -51501.880 9  20812031.271    20812030.371
 92  8  3 23 58 20.0000000  0  7  3 23 20 26 21 16 17
  20517003.864      -25887.742 8    -20171.614 9  20517027.757    20517027.547
  21454581.752     -302730.808 8   -235893.646 9  21454602.498    21454601.838
  24182562.231      634692.833 5    494564.605 6  24182584.295    24182588.702
  22432542.254      138173.182 7     48491.240 8  22432559.702    22432558.113
  24645763.013     -518343.584 5   -378884.212 6  24645780.581    24645785.408
  24634026.348      745471.665 5    485350.860 6  24634050.452    24634051.741
  20811646.127      -68016.007 8    -52999.437 9  20811665.494    20811664.684
 92  8  3 23 58 25.0000000  0  7  3 23 20 26 21 16 17
  20516897.827      -26463.820 8    -20620.498 9  20516918.453    20516918.123
  21452918.264     -311469.396 8   -242702.927 9  21452939.789    21452939.189
  24186106.257      653342.319 5    509096.634 6  24186132.699    24186137.555
  22432300.112      136910.723 7     47507.508 8  22432319.658    22432317.500
  24642873.104     -533546.464 4   -390730.568 6  24642887.374    24642891.781
  24637525.016      763794.483 5    499628.376 7  24637537.518    24637538.057
  20811278.672      -69933.981 9    -54493.963 9  20811300.736    20811299.477
 92  8  3 23 58 30.0000000  0  7  3 23 20 26 21 16 17
  20516793.619      -27028.773 8    -21060.727 9  20516810.827    20516810.288
  21451258.643     -320197.581 8   -249504.098 9  21451278.789    21451277.979
  24189655.050      671990.496 5    523627.666 6  24189682.032    24189685.869
  22432057.460      135661.606 7     46534.177 8  22432081.833    22432080.544
  24639970.813     -548747.140 4   -402575.198 6  24639994.707    24639999.084
  24641000.930      782116.639 5    513905.383 7  24641023.025    24641024.943
  20810914.274      -71847.542 8    -55985.043 9  20810936.638    20810935.529
 92  8  3 23 58 35.0000000  0  7  3 23 20 26 21 16 17
  20516685.394      -27583.265 8    -21492.789 9  20516705.121    20516704.761
  21449595.844     -328916.022 8   -256297.679 9  21449619.797    21449619.138
  24193204.983      690636.745 5    538157.169 6  24193230.345    24193234.962
  22431832.525      134425.214 6     45570.765 8  22431846.286    22431845.237
  24637081.054     -563946.389 4   -414418.735 6  24637102.669    24637106.086
  24644489.735      800437.410 5    528181.303 7  24644509.431    24644511.650
  20810552.005      -73757.160 9    -57473.058 9  20810573.110    20810571.971
 92  8  3 23 58 40.0000000  0  7  3 23 20 26 21 16 17
  20516582.146      -28127.286 8    -21916.704 9  20516601.722    20516601.422
  21447943.508     -337624.823 8   -263083.753 9  21447962.694    21447961.675
  24196755.155      709280.888 5    552685.030 6  24196777.969    24196783.695
  22431589.184      133201.351 6     44617.116 8  22431613.347    22431612.628
  24634182.360     -579144.466 4   -426261.325 6  24634209.851    24634214.168
  24647978.060      818756.789 5    542456.125 6  24647995.628    24647997.636
  20810189.166      -75663.162 8    -58958.253 9  20810210.571    20810209.252
 92  8  3 23 58 45.0000000  0  7  3 23 20 26 21 16 17
  20516478.687      -28660.799 8    -22332.426 9  20516500.063    20516499.943
  21446284.636     -346323.805 8   -269862.174 9  21446307.031    21446306.671
  24200302.989      727923.086 5    567211.378 6  24200325.263    24200331.439
  22431368.267      131990.356 6     43673.489 8  22431382.957    22431382.087
  24631299.316     -594341.089 4   -438102.822 6  24631317.784    24631323.540
  24651465.126      837074.841 5    556729.918 7  24651481.794    24651483.743
  20809827.886      -77565.558 9    -60440.634 9  20809848.332    20809847.163
 92  8  3 23 58 50.0000000  0  7  3 23 20 26 21 16 17
  20516379.696      -29183.711 8    -22739.891 9  20516400.531    20516400.292
  21444631.281     -355013.059 8   -276633.010 9  21444653.705    21444653.136
  24203851.422      746563.311 5    581736.196 6  24203873.307    24203877.564
  22431132.450      130792.500 6     42740.111 8  22431154.845    22431153.945
  24628403.171     -609536.454 4   -449943.305 6  24628425.656    24628430.752
  24654951.622      855391.480 5    571002.623 6  24654967.091    24654969.160
  20809466.036      -79464.676 9    -61920.463 9  20809487.232    20809485.733
 92  8  3 23 58 55.0000000  0  7  3 23 20 26 21 16 17
  20516279.116      -29696.128 8    -23139.179 9  20516303.189    20516302.709
  21442980.683     -363692.754 8   -283396.399 9  21443002.208    21443001.249
  24207396.948      765201.415 5    596259.358 6  24207419.582    24207424.799
  22430914.861      129607.636 6     41816.844 8  22430929.401    22430928.291
  24625517.429     -624730.516 4   -461782.775 6  24625534.877    24625539.824
  24658428.945      873706.584 5    585274.118 6  24658452.089    24658454.427
  20809105.596      -81360.614 8    -63397.819 9  20809126.462    20809125.052
 92  8  3 23 59  0.0000000  0  7  3 23 20 26 21 16 17
  20516183.841      -30198.675 8    -23530.772 9  20516207.405    20516206.955
  21441329.007     -372363.433 8   -290152.768 9  21441351.941    21441351.251
  24210946.940      783836.966 5    610780.531 6  24210966.427    24210970.264
  22430683.301      128435.351 7     40903.381 8  22430706.325    22430704.976
  24622621.584     -639923.608 4   -473621.503 6  24622643.169    24622648.835
  24661920.328      892019.867 5    599544.201 7  24661937.776    24661939.065
  20808746.505      -83253.796 9    -64873.020 9  20808766.171    20808764.852
 92  8  3 23 59  5.0000000  0  7  3 23 20 26 21 16 17
  20516092.225      -30690.885 9    -23914.310 9  20516113.810    20516113.480
  21439681.078     -381024.815 8   -296901.885 9  21439704.102    21439703.112
  24214489.558      802470.138 5    625299.869 6  24214511.233    24214516.749
  22430467.870      127275.886 7     39999.913 8  22430485.618    22430485.018
  24619727.028     -655115.488 4   -485459.261 6  24619752.240    24619757.487
  24665400.828      910331.684 5    613813.154 6  24665421.244    24665423.942
  20808384.865      -85143.817 9    -66345.761 9  20808406.480    20808405.341
 92  8  3 23 59 10.0000000  0  7  3 23 20 26 21 16 17
  20516000.968      -31173.200 9    -24290.142 9  20516022.223    20516021.684
  21438035.457     -389677.184 8   -303643.988 9  21438057.492    21438056.442
  24218037.961      821100.631 5    639817.098 6  24218057.628    24218062.184
  22430246.114      126129.095 7     39106.317 8  22430267.429    22430266.530
  24616846.892     -670306.377 4   -497296.282 6  24616860.832    24616866.318
  24668890.472      928641.946 5    628080.872 7  24668906.631    24668908.250
  20808028.891      -87030.936 9    -67816.243 9  20808047.419    20808045.860
 92  8  3 23 59 15.0000000  0  7  3 23 20 26 21 16 17
  20515913.459      -31645.663 8    -24658.296 9  20515932.256    20515931.716
  21436391.905     -398320.699 8   -310379.177 9  21436412.770    21436411.811
  24221587.564      839728.350 5    654332.162 6  24221603.243    24221606.121
  22430026.965      124994.987 7     38222.604 8  22430051.698    22430050.499
  24613948.978     -685495.854 4   -509132.479 6                  24613976.019
  24672368.814      946950.517 5    642347.284 7  24672389.860    24672392.348
  20807666.832      -88915.158 9    -69284.462 9  20807688.717    20807687.338
 92  8  3 23 59 20.0000000  0  7  3 23 20 26 21 16 17
  20515824.300      -32108.161 9    -25018.682 9  20515844.117    20515843.547
  21434748.293     -406955.326 8   -317107.452 9  21434769.728    21434768.169
  24225126.554      858353.392 5    668845.157 6  24225147.329    24225150.387
  22429819.449      123873.850 6     37349.001 8  22429838.246    22429836.987
  24611064.734      768418.23714   -520967.666 6  24611080.354    24611085.630
  24675854.921      965257.693 5    656612.620 6  24675873.478    24675876.176
  20807308.460      -90796.158 9    -70750.172 9  20807330.765    20807329.356
 92  8  3 23 59 25.0000000  0  7  3 23 20 26 21 16 17
  20515737.930      -32560.631 9    -25371.260 9  20515757.956    20515757.686
  21433107.079     -415581.104 8   -323828.830 9  21433128.124    21433127.315
  24228674.028      876975.780 5    683356.075 6  24228691.746    24228694.594
  22429608.275      122765.692 6     36485.507 8  22429627.702    22429626.503
  24608179.712      753230.984 4   -532801.839 6  24608189.575    24608195.361
  24679338.300      983563.818 5    670877.110 7  24679356.977    24679359.525
  20806950.988      -92673.962 9    -72213.397 9  20806973.532    20806972.273
 92  8  3 23 59 30.0000000  0  7  3 23 20 26 21 16 17
  20515652.939      -33003.130 9    -25716.062 9  20515673.805    20515673.295
  21431468.743     -424198.192 8   -330543.434 9  21431488.199    21431486.940
  24232216.915      895595.443 5    697864.863 6  24232234.783    24232238.021
  22429399.350      121670.607 7     35632.202 8  22429418.926    22429417.907
  24605274.123       21268.08513   -544634.963 6  24605300.535    24605306.171
  24682814.843     1001869.052 5    685140.942 7  24682838.856    24682842.754
  20806596.993      -94548.704 9    -73674.231 9  20806616.749    20806615.370
 92  8  3 23 59 35.0000000  0  7  3 23 20 26 21 16 17
  20515574.423      -33436.041 8    -26053.397 9  20515591.482    20515591.182
  21429829.987     -432807.182 8   -337251.735 9  21429850.163    21429849.054
  24235756.205      914211.934 5    712371.186 6  24235776.921    24235780.069
  22429192.013      120588.085 7     34788.690 8  22429213.029    22429211.560
  24602387.332     -746242.607 4   -556467.417 6                  24602416.891
  24686301.609     1020172.949 5    699403.684 6  24686323.614    24686326.252
  20806239.790      -96420.906 9    -75133.093 9  20806260.386    20806259.097
 92  8  3 23 59 40.0000000  0  7  3 23 20 26 21 16 17
  20515489.912      -33859.372 9    -26383.262 9  20515511.197    20515510.508
  21428191.232     -441408.146 8   -343953.771 9  21428213.267    21428212.037
  24239297.593      932825.177 5    726874.993 6  24239319.418    24239322.236
  22428987.885      119518.183 6     33954.997 8  22429009.440    22429008.780
  24599491.307       -1518.23113   -568299.292 6  24599521.166    24599526.622
  24689789.275     1038475.547 5    713665.431 7  24689806.722    24689809.151
  20805885.016      -98290.671 9    -76590.043 9  20805904.592    20805903.363
 92  8  3 23 59 45.0000000  0  7  3 23 20 26 21 16 17
  20515409.897      -34273.444 9    -26705.918 9  20515432.232    20515431.482
  21426560.121     -450001.081 8   -350649.553 9  21426578.169    21426577.269
  24242840.451      951435.025 5    741376.158 6  24242860.507    24242863.505
  22428786.694      118460.825 7     33131.090 8  22428808.309    22428807.590
  24596606.943     -776610.470 4   -580130.627 6                  24596637.043
  24693269.715     1056776.698 5    727926.082 7  24693288.002    24693291.510
  20805527.183     -100158.110 9    -78045.187 9  20805549.428    20805547.809
 92  8  3 23 59 50.0000000  0  7  3 23 20 26 21 16 17
  20515336.028      -34678.215 9    -27021.324 9  20515355.155    20515354.705
  21424923.434     -458585.973 8   -357339.072 9  21424944.779    21424943.460
  24246382.858      970041.433 5    755874.613 6  24246401.865    24246404.414
  22428586.643      117416.020 7     32316.965 8  22428609.337    22428608.318
  24593721.861     -791793.260 4   -591961.336 5                  24593748.033
  24696748.057     1075076.276 5    742185.476 7  24696771.831    24696773.539
  20805178.045     -102023.424 8    -79498.689 9  20805194.534    20805193.154
 92  8  3 23 59 55.0000000  0  7  3 23 20 26 21 16 17
  20515258.022      -35073.147 9    -27329.060 9  20515280.267    20515279.458
  21423292.263     -467162.419 8   -364022.004 9  21423312.469    21423311.540
  24249917.292      988644.750 5    770370.693 6  24249940.975    24249944.453
  22428395.135      116383.987 7     31512.785 8  22428413.482    22428412.163
  24590829.313     -806974.895 4   -603791.141 6                  24590859.023
  24700235.183     1093374.369 5    756443.721 7  24700253.770    24700256.498
  20804818.474     -103886.172 9    -80950.173 9  20804839.819    20804838.410
 92  8  4  0  0  0.0000000  0  7  3 23 20 26 21 16 17
  20515184.903      -35458.834 9    -27629.594 9  20515206.968    20515206.128
  21421663.011     -475731.164 8   -370698.942 9  21421681.718    21421681.029
  24253451.455     1007244.465 5    784863.947 6  24253480.505    24253484.492
  22428198.201      115364.094 7     30718.069 8  22428219.187    22428218.078
  24587948.128     -822155.887 4   -615620.444 5                  24587969.653
  24703720.001     1111670.538 5    770700.471 6  24703734.451    24703737.718
  20804466.637     -105746.895 9    -82400.079 9  20804485.734    20804484.445
 92  8  4  0  0  5.0000000  0  7  3 23 20 26 21 16 17
  20515113.612      -35835.440 9    -27923.058 9  20515135.287    20515134.688
  21420030.971     -484292.647 8   -377370.214 9  21420052.916    21420051.807
  24256999.289     1025840.404 5    799354.255 6  24257019.405    24257022.942
  22428006.874      114356.170 7     29932.689 8  22428027.290    22428026.211
  24585049.045     -837336.447 4   -627449.415 6                  24585080.733
  24707194.205     1129964.745 5    784955.698 7  24707216.780    24707219.208
  20804113.182     -107605.845 8    -83848.612 9  20804132.159    20804130.780
 92  8  4  0  0 10.0000000  0  7  3 23 20 26 21 16 17
  20515043.101      -36203.213 9    -28209.635 9  20515065.226    20515064.476
  21418403.248     -492847.274 8   -384036.144 9  21418424.833    21418423.634
  24260535.461     1044432.320 5    813841.434 6  24260557.106    24260561.423
  22427815.097      113359.998 7     29156.452 8  22427837.791    22427836.532
  24582164.232        9113.09414   -639278.020 5  24582186.536    24582192.982
  24710666.821     1148256.891 5    799209.314 7  24710696.051    24710698.929
  20803761.526     -109463.326 8    -85296.004 9  20803778.644    20803777.385
 92  8  4  0  0 15.0000000  0  7  3 23 20 26 21 16 17
  20514974.059      -36562.211 9    -28489.371 9  20514996.723    20514996.334
  21416779.332     -501395.306 8   -390696.940 9  21416798.189    21416796.990
  24264074.451     1063020.097 5    828325.388 6  24264092.768    24264098.314
  22427631.834      112375.535 7     28389.347 8  22427650.331    22427649.102
  24579280.768       -6066.503 4   -651106.270 5  24579300.135    24579303.402
  24714163.031     1166546.934 5    813461.292 6  24714177.781    24714179.909
  20803405.552     -111319.472 8    -86742.339 9  20803425.338    20803424.109
 92  8  4  0  0 20.0000000  0  7  3 23 20 26 21 16 17
  20514907.925      -36912.484 9    -28762.313 9  20514930.349    20514929.570
  21415149.361     -509936.823 8   -397352.667 9  21415172.864    21415171.785
  24267606.336     1081603.675 5    842806.056 6  24267628.700    24267634.816
  22427445.063      111402.635 6     27631.246 8  22427465.119    22427464.040
  24576393.827      -21245.564 4   -662934.049 5  24576410.495    24576414.992
  24717645.450     1184834.965 5    827711.703 6  24717657.322    24717660.200
  20803052.636     -113174.246 8    -88187.609 9  20803072.573    20803070.954
 92  8  4  0  0 25.0000000  0  7  3 23 20 26 21 16 17
  20514846.497      -37253.818 9    -29028.288 9  20514865.174    20514864.545
  21413526.224     -518471.571 8   -404003.103 9  21413548.949    21413547.689
  24271141.968     1100183.247 5    857283.614 6  24271165.052    24271169.489
  22427260.511      110441.398 7     26882.245 8  22427282.246    22427281.106
  24573503.797      -36423.752 4   -674761.179 5  24573522.924    24573527.061
  24721111.411     1203121.272 5    841960.763 6  24721135.994    24721139.531
  20802700.080     -115027.375 8    -89631.606 9  20802719.927    20802718.458
 92  8  4  0  0 30.0000000  0  7  3 23 20 26 21 16 17
  20514780.063      -37586.215 9    -29287.297 9  20514802.008    20514801.319
  21411905.936     -526999.840 8   -410648.506 9  21411925.902    21411924.883
  24274682.757     1118758.663 5    871757.926 6  24274699.365    24274704.432
  22427080.305      109491.648 7     26142.179 8  22427101.201    22427100.122
  24570610.890      -51601.315 4   -686587.804 5  24570635.533    24570638.231
  24724594.549     1221405.636 5    856208.293 6  24724617.513    24724619.582
  20802349.593     -116878.943 8    -91074.389 9  20802367.401    20802365.872
 92  8  4  0  0 35.0000000  0  7  3 23 20 26 21 16 17
  20514720.195      -37909.904 9    -29539.518 9  20514740.521    20514739.531
  21410281.630     -535521.470 8   -417288.726 9  21410304.235    21410303.245
  24278211.464     1137329.896 4    886228.975 6  24278233.709    24278238.595
  22426899.441      108553.284 6     25410.996 8  22426922.944    22426921.775
  24567722.030      -66778.092 5   -698413.838 5  24567746.943    24567749.941
  24728069.893     1239688.052 5    870454.328 6  24728094.896    24728097.834
  20801997.697     -118728.758 8    -92515.799 9  20802015.504    20802013.676
 92  8  4  0  0 40.0000000  0  7  3 23 20 26 21 16 17
  20514659.187      -38224.819 9    -29784.906 9  20514680.232    20514679.753
  21408662.961     -544036.301 8   -423923.654 9  21408683.827    21408682.807
  24281745.298     1155896.880 4    900696.718 6  24281766.463    24281771.859
  22426727.030      107626.333 7     24688.713 8  22426746.456    22426745.137
  24564838.626      -81953.998 5   -710239.172 5  24564859.522    24564861.410
  24731553.812     1257968.803 5    884699.069 6  24731574.197    24731577.315
  20801643.282     -120576.761 8    -93955.799 9  20801663.848    20801662.259
 92  8  4  0  0 45.0000000  0  7  3 23 20 26 21 16 17
  20514597.460      -38531.366 9    -30023.778 9  20514622.073    20514621.593
  21407046.210     -552544.703 8   -430553.569 9  21407065.127    21407063.478
  24285272.865     1174459.136 4    915160.778 6  24285299.067    24285304.104
  22426553.690      106710.287 6     23974.911 8  22426571.917    22426571.408
  24561952.614      -97129.465 5   -722064.182 5  24561971.081    24561974.169
  24735031.854     1276247.740 5    898942.374 6  24735053.529    24735055.118
  20801293.364     -122423.374 8    -95394.715 9  20801312.281    20801310.932
 92  8  4  0  0 50.0000000  0  7  3 23 20 26 21 16 17
  20514543.347      -38829.890 9    -30256.393 9  20514565.322    20514564.842
  21405427.601     -561046.885 8   -437178.634 9  21405446.877    21405445.468
  24288813.205     1193016.364 4    929620.935 6  24288829.903    24288835.239
  22426376.663      105804.762 7     23269.320 8  22426399.986    22426398.397
  24559071.728     -112304.765 5   -733889.035 5  24559083.031    24559086.988
  24738504.799     1294524.759 5    913184.201 6  24738531.241    24738533.819
  20800943.776     -124268.769 8    -96832.677 9  20800961.314    20800959.785
 92  8  4  0  0 55.0000000  0  7  3 23 20 26 21 16 17
  20514489.924      -39119.603 9    -30482.139 9  20514510.130    20514509.561
  21403808.901     -569541.882 8   -443798.101 9  21403830.307    21403829.167
  24292343.171     1211569.373 4    944077.774 6  24292360.948    24292365.595
  22426207.370      104910.344 7     22572.375 8  22426229.704    22426228.595
  24556176.483     -127479.120 5   -745713.186 5  24556195.729    24556198.817
  24741986.199     1312800.717 5    927425.213 6  24742009.613    24742010.513
  20800592.300     -126112.126 8    -98269.057 9  20800610.467    20800609.118
 92  8  4  0  1  0.0000000  0  7  3 23 20 26 21 16 17
  20514434.792      -39400.670 9    -30701.153 9  20514456.707    20514455.808
  21402197.037     -578029.876 8   -450412.115 9  21402215.265    21402214.185
  24295866.122     1230117.908 4    958531.165 6  24295890.825    24295895.352
  22426039.546      104026.861 7     21883.957 8  22426061.491    22426060.951
  24553283.156     -142652.533 5   -757536.581 5  24553308.908    24553311.486
  24745462.143     1331075.414 5    941665.233 6  24745487.086    24745489.394
  20800240.283     -127953.633 8    -99703.995 9  20800259.980    20800258.481
 92  8  4  0  1  5.0000000  0  7  3 23 20 26 21 16 17
  20514382.778      -39673.747 9    -30913.942 9  20514404.843    20514404.213
  21400579.747     -586511.659 8   -457021.295 9  21400601.152    21400600.133
  24299399.056     1248661.356 4    972980.561 6  24299420.161    24299423.309
  22425871.482      103153.746 7     21203.613 8  22425895.316    22425894.356
  24550402.090     -157825.590 5   -769359.686 5  24550420.917    24550423.945
  24748939.526     1349348.133 5    955903.712 6  24748962.850    24748966.387
  20799892.134     -129793.545 8   -101137.693 9  20799909.942    20799908.563
 92  8  4  0  1 10.0000000  0  7  3 23 20 26 21 16 17
  20514333.193      -39938.643 9    -31120.357 9  20514354.358    20514353.638
  21398968.542     -594987.118 8   -463625.538 9  21398988.329    21398987.129
  24302933.489     1267199.776 5    987426.048 6  24302948.119    24302952.196
  22425715.110      102291.016 7     20531.361 8  22425730.850    22425730.670
  24547509.123     -172998.138 5   -781182.429 5  24547533.556    24547537.304
  24752417.208     1367618.998 5    970140.752 6  24752441.341    24752443.620
  20799543.596     -131631.456 8   -102569.820 9  20799560.204    20799558.915
 92  8  4  0  1 15.0000000  0  7  3 23 20 26 21 16 17
  20514283.667      -40194.842 9    -31319.988 9  20514305.492    20514305.012
  21397358.447     -603455.638 8   -470224.381 9  21397376.824    21397375.445
  24306453.053     1285733.700 4   1001868.051 6  24306474.368    24306478.835
  22425546.327      101439.179 7     19867.610 8  22425569.052    22425568.092
  24544629.287     -188169.698 5   -793004.367 5  24544646.315    24544650.152
  24755903.645     1385888.555 5    984376.750 6  24755916.835    24755919.144
  20799193.018     -133466.660 8   -103999.852 9  20799210.886    20799209.507
 92  8  4  0  1 20.0000000  0  7  3 23 20 26 21 16 17
  20514235.340      -40442.954 9    -31513.315 9  20514258.364    20514258.065
  21395744.514     -611917.571 8   -476818.082 9  21395766.459    21395765.020
  24309977.083     1304262.521 5   1016306.051 6  24310000.887    24310004.964
  22425388.966      100597.917 7     19212.076 8  22425408.902    22425408.363
  24541741.416     -203340.794 5   -804825.948 5  24541759.643    24541763.091
  24759378.449     1404156.260 5    998611.328 6  24759393.708    24759395.627
  20798845.589     -135299.710 8   -105428.194 9  20798861.957    20798860.818
 92  8  4  0  1 25.0000000  0  7  3 23 20 26 21 16 17
  20514191.870      -40683.370 9    -31700.656 9  20514212.736    20514212.047
  21394135.288     -620373.120 8   -483406.811 9  21394157.413    21394156.214
  24313506.690     1322785.835 4   1030739.774 6  24313525.277    24313530.193
  22425227.078       99766.758 7     18564.430 8  22425250.972    22425249.623
  24538851.267     -218511.986 5   -816647.618 5  24538872.372    24538875.370
  24762847.647     1422421.546 5   1012844.005 6  24762870.012    24762870.372
  20798493.453     -137130.940 8   -106855.120 9  20798513.719    20798512.250
 92  8  4  0  1 30.0000000  0  7  3 23 20 26 21 16 17
  20514144.263      -40915.766 9    -31881.742 9  20514168.517    20514167.737
  21392530.979     -628821.871 8   -489990.252 9  21392549.656    21392548.487
  24317029.581     1341303.988 4   1045169.461 6  24317049.517    24317053.924
  22425069.687       98945.942 7     17924.843 8  22425094.300    22425093.970
  24535971.910     -233683.052 5   -828469.184 6  24535985.371    24535989.358
  24766322.931     1440684.550 5   1027074.910 6  24766344.037    24766347.155
  20798145.364     -138959.996 8   -108280.352 9  20798165.630    20798164.310
 92  8  4  0  1 35.0000000  0  7  3 23 20 26 21 16 17
  20514104.961      -41140.101 9    -32056.547 9  20514125.676    20514125.197
  21390920.974     -637263.772 8   -496568.343 9  21390943.038    21390941.749
  24320547.405     1359816.920 5   1059595.084 6  24320572.528    24320577.085
  22424922.969       98135.571 7     17293.390 8  22424940.417    22424939.547
  24533085.658     -248853.875 5   -840290.561 6  24533098.999    24533101.787
  24769798.875     1458945.242 5   1041304.006 6  24769820.340    24769821.509
  20797799.043     -140786.773 8   -109703.812 9  20797817.810    20797816.431
 92  8  4  0  1 40.0000000  0  7  3 23 20 26 21 16 17
  20514064.069      -41356.658 9    -32225.289 9  20514084.395    20514083.885
  21389314.326     -645699.172 8   -503141.375 9  21389337.890    21389336.630
  24324077.941     1378324.359 4   1074016.425 6  24324094.760    24324098.807
  22424767.766       97335.405 7     16669.898 8  22424787.822    22424787.013
  24530186.096     -264024.818 5   -852112.049 6  24530211.518    24530216.135
  24773267.054     1477203.476 5   1055531.188 6  24773292.506    24773295.804
  20797452.153     -142611.660 8   -111125.803 9  20797470.651    20797469.302
 92  8  4  0  1 45.0000000  0  7  3 23 20 26 21 16 17
  20514024.227      -41565.480 9    -32388.006 9  20514044.642    20514044.133
  21387715.922     -654127.981 8   -509709.274 9  21387733.790    21387732.741
  24327594.687     1396826.231 5   1088433.431 6  24327614.443    24327619.749
  22424614.183       96545.133 7     16054.097 8  22424637.776    22424636.877
  24527302.152     -279196.083 5   -863933.760 6  24527324.397    24527328.594
  24776748.274     1495458.952 5   1069756.227 6  24776767.910    24776770.009
  20797104.754     -144434.755 9   -112546.390 9  20797123.491    20797122.202
 92  8  4  0  1 50.0000000  0  7  3 23 20 26 21 16 17
  20513986.663      -41766.293 9    -32544.487 9  20514006.389    20514005.999
  21386109.934     -662549.794 8   -516271.718 9  21386131.189    21386130.050
  24331114.310     1415322.751 5   1102846.272 6  24331134.666    24331139.313
  22424469.803       95764.940 7     15446.163 8  22424488.839    22424488.210
  24524418.568     -294367.611 5   -875755.688 6  24524437.905    24524441.682
  24780220.830     1513711.746 5   1083979.174 6  24780240.736    24780242.565
  20796752.948     -146255.670 8   -113965.280 9  20796777.021    20796775.642
 92  8  4  0  1 55.0000000  0  7  3 23 20 26 21 16 17
  20513947.899      -41959.073 8    -32694.701 9  20513969.724    20513969.305
  21384506.764     -670964.443 8   -522828.577 9  21384530.028    21384528.889
  24334631.265     1433813.868 5   1117254.914 6  24334653.930    24334658.636
  22424321.615       94994.701 7     14845.977 8  22424342.481    22424341.671
  24521532.556     -309539.379 5   -887577.801 6  24521549.794    24521554.651
  24783686.791     1531961.607 5   1098199.854 6  24783712.573    24783715.871
  20796410.135     -148074.364 8   -115382.438 9  20796430.761    20796429.621
 92  8  4  0  2  0.0000000  0  7  3 23 20 26 21 16 17
  20513911.355      -42144.001 9    -32838.802 9  20513934.709    20513934.139
  21382910.579     -679371.929 8   -529379.860 9  21382930.215    21382929.106
  24338151.668     1452299.534 5   1131659.296 6  24338171.664    24338176.311
  22424175.496       94234.420 7     14253.560 8  22424197.921    22424197.261
  24518653.619     -324711.318 5   -899400.066 6  24518662.793    24518668.039
  24787166.512     1550208.650 5   1112418.309 6  24787186.868    24787188.217
  20796064.954     -149890.731 9   -116797.785 9  20796085.490    20796083.841
 92  8  4  0  2  5.0000000  0  7  3 23 20 26 21 16 17
  20513882.425      -42321.287 8    -32976.947 9  20513900.802    20513900.382
  21381310.167     -687772.632 8   -535925.853 9  21381331.662    21381330.403
  24341659.720     1470779.423 5   1146059.174 6  24341688.680    24341692.307
  22424036.932       93483.668 7     13668.579 8  22424054.740    22424053.930
  24515751.568     -339883.639 5   -911222.624 6  24515776.301    24515780.798
  24790634.721     1568452.262 5   1126634.108 6  24790656.546    24790659.514
  20795717.105     -151704.829 8   -118211.370 9  20795740.009    20795738.690
 92  8  4  0  2 10.0000000  0  7  3 23 20 26 21 16 17
  20513850.437      -42490.990 8    -33109.181 9  20513868.454    20513868.005
  21379712.783     -696166.735 8   -542466.701 9  21379734.158    21379733.109
  24345177.424     1489253.431 4   1160454.468 6  24345204.166    24345208.783
  22423891.833       92742.337 7     13090.913 8  22423914.167    22423912.668
  24512865.586     -355056.471 5   -923045.569 6  24512888.311    24512893.077
  24794106.197     1586692.297 4   1140847.103 6  24794129.371    24794130.720
  20795374.832     -153516.569 9   -119623.108 9  20795395.547    20795394.138
 92  8  4  0  2 15.0000000  0  7  3 23 20 26 21 16 17
  20513818.779      -42652.959 8    -33235.392 9  20513837.486    20513837.156
  21378118.397     -704554.157 8   -549002.348 9  21378138.213    21378137.044
  24348690.272     1507721.799 4   1174845.366 6  24348717.614    24348722.590
  22423751.710       92010.750 7     12520.849 8  22423774.734    22423773.445
  24509981.973     -370229.702 5   -934868.828 6  24510000.320    24510005.566
  24797577.554     1604929.000 5   1155057.521 6  24797600.728    24797601.298
  20795031.719     -155325.535 8   -121032.688 9  20795051.266    20795049.647
 92  8  4  0  2 20.0000000  0  7  3 23 20 26 21 16 17
  20513786.911      -42807.224 8    -33355.598 9  20513808.166    20513808.076
  21376521.882     -712934.951 8   -555532.828 9  21376543.557    21376542.058
  24352205.459     1526184.470 4   1189231.825 6  24352231.661    24352236.068
  22423621.750       91289.039 7     11958.480 8  22423637.549    22423636.499
  24507098.329     -385403.251 5   -946692.320 6  24507113.259    24507118.565
  24801052.539     1623162.390 4   1169265.348 6  24801068.997    24801070.736
  20794687.707     -157131.697 9   -122440.087 9  20794707.464    20794705.995
 92  8  4  0  2 25.0000000  0  6  3 23 20 26 21 17
  20513760.589      -42953.703 8    -33469.736 9  20513780.345    20513779.896
  21374931.603     -721308.776 8   -562057.877 9  21374949.740    21374948.751
  24355718.487     1544641.469 4   1203613.880 6  24355743.520    24355747.237
  22423481.926       90577.338 7     11403.918 8  22423501.713    22423500.693
  24504198.826     -400577.203 4   -958516.158 7  24504225.658    24504231.234
  20794341.747     -158935.043 9   -123845.287 9  20794364.171    20794362.792
 92  8  4  0  2 30.0000000  0  6  3 23 20 26 21 17
  20513731.179      -43092.368 8    -33577.781 9  20513754.024    20513753.574
  21373337.636     -729675.395 8   -568577.309 9  21373357.542    21373356.493
  24359236.192     1563092.773 4   1217991.491 6  24359255.229    24359259.036
  22423347.380       89875.649 7     10857.154 8  22423368.245    22423367.346
  24501317.101     -415751.633 4   -970340.348 7  24501337.697    24501344.052
  20794006.039     -160735.445 9   -125248.197 9  20794021.658    20794019.890
 92  8  4  0  2 35.0000000  0  6  3 23 20 26 21 17
  20513708.995      -43223.213 8    -33679.741 9  20513728.961    20513728.631
  21371746.488     -738034.728 8   -575091.071 9  21371766.664    21371765.884
  24362738.637     1581538.398 5   1232364.641 6  24362765.019    24362769.785
  22423214.062       89183.870 7     10318.108 8  22423236.666    22423235.857
  24498428.331     -430926.695 4   -982165.046 7  24498449.197    24498456.002
  20793662.807     -162532.948 9   -126648.844 9  20793679.595    20793678.036
 92  8  4  0  2 40.0000000  0  6  3 23 20 26 21 17
  20513686.360      -43346.907 8    -33776.126 9  20513705.637    20513705.217
  21370157.258     -746387.272 8   -581599.538 9  21370177.194    21370176.085
  24366252.325     1599977.665 5   1246732.870 6  24366274.149    24366278.227
  22423088.629       88501.351 7      9786.279 8  22423106.556    22423105.807
  24495533.985     -446103.202 4   -993990.850 7  24495562.885    24495567.891
  20793318.195     -164328.299 9   -128047.817 9  20793337.862    20793336.453
 92  8  4  0  2 45.0000000  0  6  3 23 20 26 21 17
  20513662.977      -43462.726 8    -33866.378 9  20513683.512    20513682.913
  21368570.456     -754732.582 8   -588102.371 9  21368588.984    21368588.264
  24369763.494     1618411.118 5   1261096.563 6  24369781.631    24369786.008
  22422962.686       87828.787 7      9262.201 8  22422978.605    22422978.035
  24492657.986     -461280.760 4  -1005817.471 6  24492673.125    24492679.481
  20792975.862     -166121.079 9   -129444.786 9  20792996.848    20792995.409
 92  8  4  0  2 50.0000000  0  6  3 23 20 26 21 17
  20513643.010      -43570.927 8    -33950.685 9  20513662.917    20513662.377
  21366979.788     -763070.703 8   -594599.596 9  21367002.272    21367001.852
  24373268.158     1636838.621 5   1275455.616 6  24373288.633    24373292.171
  22422830.088       87166.118 7      8745.853 8  22422852.932    22422851.673
  24489771.314     -476459.648 4  -1017645.136 6  24489785.165    24489791.190
  20792633.110     -167911.340 9   -130839.787 9  20792656.014    20792654.455
 92  8  4  0  2 55.0000000  0  6  3 23 20 26 21 17
  20513625.083      -43671.516 8    -34029.067 9  20513643.790    20513643.550
  21365393.226     -771401.603 8   -601091.199 9  21365416.970    21365416.160
  24376773.991     1655260.130 5   1289810.021 6  24376794.017    24376797.584
  22422707.443       86513.460 7      8237.290 8  22422728.638    22422727.199
  24486875.769     -491639.684 4  -1029473.689 6  24486895.525    24486902.000
  20792296.173     -169699.108 9   -132232.854 9  20792316.019    20792314.490
 92  8  4  0  3  0.0000000  0  6  3 23 20 26 21 17
  20513605.926      -43764.778 8    -34101.734 9  20513625.862    20513625.413
  21363812.720     -779725.847 8   -607577.607 9  21363832.956    21363832.177
  24380279.194     1673675.354 5   1304159.518 6  24380298.141    24380302.728
  22422588.005       85870.530 7      7736.311 8  22422606.203    22422605.603
  24483981.872     -506821.166 4  -1041303.371 6  24484006.545    24484013.080
  20791952.161     -171484.875 9   -133624.359 9  20791976.144    20791974.705
 92  8  4  0  3  5.0000000  0  6  3 23 20 26 21 17
  20513592.705      -43850.299 8    -34168.378 9  20513609.644    20513609.314
  21362229.696     -788043.331 8   -614058.755 9  21362250.112    21362249.392
  24383777.502     1692084.646 5   1318504.383 6  24383802.055    24383806.222
  22422466.230       85237.686 7      7243.191 8  22422485.746    22422484.847
  24481101.706     -522003.830 4  -1053133.969 6  24481117.505    24481124.370
  20791614.745     -173268.419 9   -135014.132 9  20791636.779    20791635.220
 92  8  4  0  3 10.0000000  0  6  3 23 20 26 21 17
  20513573.938      -43928.488 8    -34229.291 9  20513594.654    20513594.594
  21360648.351     -796354.582 8   -620535.048 9  21360668.767    21360667.837
  24387280.607     1710487.569 5   1332844.297 6  24387303.271    24387307.438
  22422345.593       84614.751 7      6757.793 8  22422367.088    22422366.639
  24478212.486     -537188.042 4  -1064965.772 6  24478228.885    24478234.641
  20791277.958     -175050.296 9   -136402.601 9  20791297.804    20791296.095
 92  8  4  0  3 15.0000000  0  6  3 23 20 26 21 17
  20513559.338      -43999.664 8    -34284.762 9  20513581.283    20513580.804
  21359066.586     -804659.998 8   -627006.794 9  21359088.021    21359087.481
  24390781.613     1728883.822 5   1347178.992 6  24390803.888    24390807.935
  22422226.815       84001.436 7      6279.887 8  22422250.439    22422249.600
  24475311.454     -552374.007 4  -1076798.956 6  24475338.046    24475344.791
  20790938.743     -176830.911 9   -137790.095 9  20790959.158    20790957.570
 92  8  4  0  3 20.0000000  0  6  3 23 20 26 21 17
  20513546.597      -44063.329 8    -34334.370 9  20513569.172    20513568.782
  21357487.099     -812959.113 8   -633473.627 9  21357508.774    21357507.785
  24394277.433     1747273.928 5   1361508.910 6  24394304.325    24394307.832
  22422114.513       83398.409 7      5810.003 8  22422136.008    22422134.929
  24472428.590     -567561.176 4  -1088633.071 6  24472448.886    24472454.222
  20790598.988     -178609.818 9   -139176.253 9  20790620.303    20790618.834
 92  8  4  0  3 25.0000000  0  6  3 23 20 26 21 17
  20513535.775      -44119.370 8    -34378.037 9  20513558.379    20513558.019
  21355911.300     -821251.913 8   -639935.544 9  21355930.907    21355929.977
  24397774.242     1765657.854 5   1375834.016 6  24397801.374    24397805.840
  22422003.500       82805.488 7      5347.986 8  22422023.256    22422022.567
  24469541.049     -582749.742 4  -1100468.283 6  24469558.377    24469564.223
  20790262.561     -180387.457 9   -140561.418 9  20790282.137    20790280.608
 92  8  4  0  3 30.0000000  0  6  3 23 20 26 21 17
  20513526.391      -44168.039 8    -34415.959 9  20513549.145    20513548.666
  21354333.133     -829538.517 8   -646392.620 9  21354353.908    21354353.249
  24401278.546     1784035.401 4   1390154.140 6  24401298.872    24401302.800
  22421889.159       82222.326 7      4893.604 8  22421912.243    22421911.284
  24466652.699     -597939.942 4  -1112304.745 6  24466666.789    24466673.804
  20789922.386     -182164.361 9   -141946.025 9  20789943.821    20789942.442
 92  8  4  0  3 35.0000000  0  6  3 23 20 26 21 17
  20513521.894      -44209.387 8    -34448.177 9  20513541.201    20513540.751
  21352754.935     -837819.155 8   -652845.029 9  21352778.349    21352777.390
  24404771.308     1802406.479 4   1404469.233 6  24404794.872    24404798.080
  22421780.364       81648.899 7      4446.762 8  22421802.789    22421802.279
  24463756.494     -613131.856 4  -1124142.568 6  24463777.749    24463782.126
  20789585.270     -183940.862 9   -143330.302 9  20789605.685    20789604.456
 92  8  4  0  3 40.0000000  0  6  3 23 20 26 21 17
  20513513.590      -44243.605 8    -34474.837 9  20513534.695    20513534.276
  21351184.233     -846094.130 8   -659293.093 9  21351203.659    21351202.670
  24408266.828     1820770.947 4   1418779.162 6  24408290.032    24408293.750
  22421675.467       81084.883 7      4007.271 8  22421695.613    22421694.894
  24460867.034     -628325.699 4  -1135981.873 6  24460885.801    24460890.838
  20789246.204     -185717.138 9   -144714.413 9  20789267.789    20789266.111
 92  8  4  0  3 45.0000000  0  6  3 23 20 26 21 17
  20513513.350      -44270.948 8    -34496.144 9  20513529.569    20513529.089
  21349609.903     -854364.147 8   -665737.255 9  21349630.139    21349628.850
  24411756.533     1839128.398 4   1433083.647 6  24411783.634    24411786.512
  22421569.730       80529.583 7      3574.581 8  22421590.116    22421589.187
  24457977.544     -643521.876 4  -1147823.012 6  24457994.483    24457998.800
  20788905.790     -187493.523 9   -146098.608 9  20788929.803    20788928.065
 92  8  4  0  3 50.0000000  0  6  3 23 20 26 21 17
  20513508.194      -44290.970 8    -34511.747 9  20513525.822    20513525.342
  21348036.382     -862628.912 8   -672177.321 9  21348057.427    21348056.108
  24415243.539     1857479.398 4   1447383.079 6  24415275.676    24415279.004
  22421462.674       79983.455 7      3149.030 8  22421486.268    22421485.579
  24455080.230     -658719.609 4  -1159665.371 6  24455102.685    24455107.511
  20788569.873     -189269.433 9   -147482.431 9  20788591.757    20788590.198
 92  8  4  0  3 55.0000000  0  6  3 23 20 26 21 17
  20513501.868      -44303.785 8    -34521.730 9  20513523.633    20513522.794
  21346463.581     -870888.875 8   -678613.644 9  21346485.765    21346484.147
  24418742.746     1875823.625 4   1461677.255 6  24418766.849    24418770.297
  22421359.336       79446.175 7      2730.374 8  22421383.769    22421382.990
  24452181.207     -673919.176 4  -1171509.147 6  24452209.957    24452214.304
  20788236.084     -191045.163 9   -148866.109 9  20788253.711    20788252.392
 92  8  4  0  4  0.0000000  0  6  3 23 20 26 21 17
  20513501.209      -44309.448 8    -34526.153 9  20513522.254    20513522.104
  21344894.197     -879143.994 8   -685046.196 9  21344914.673    21344913.294
  24422226.125     1894161.201 4   1475966.241 6  24422255.055    24422259.582
  22421258.606       78917.765 7      2318.631 8  22421283.129    22421282.619
  24449292.857     -689120.532 4  -1183354.302 6  24449318.279    24449321.577
  20787898.607     -192820.853 9   -150249.761 9  20787915.845    20787914.706
 92  8  4  0  4  5.0000000  0  6  3 23 20 26 21 17
  20513500.669      -44308.085 8    -34525.083 9  20513522.584    20513522.164
  21343324.034     -887394.178 8   -691474.899 9  21343344.570    21343343.101
  24425725.752     1912491.880 4   1490249.851 5  24425744.489    24425748.206
  22421162.792       78397.974 7      1913.605 8  22421184.017    22421183.568
  24446403.247     -704323.833 5  -1195200.998 5  24446424.862    24446428.610
  20787559.122     -194596.625 9   -151633.475 9  20787577.709    20787576.540
 92  8  4  0  4 10.0000000  0  6  3 23 20 26 21 17
  20513502.588      -44299.526 8    -34518.411 9  20513524.173    20513523.873
  21341756.509     -895639.487 8   -697899.809 9  21341775.696    21341774.167
  24429210.779     1930815.796 4   1504528.199 6  24429231.525    24429234.943
  22421069.976       77887.216 7      1515.613 8  22421087.454    22421086.105
  24443504.314     -719528.778 5  -1207048.958 6  24443530.936    24443535.253
  20787220.147     -196372.326 8   -153017.134 9  20787240.023    20787238.584
 92  8  4  0  4 15.0000000  0  6  3 23 20 26 21 17
  20513506.545      -44283.821 8    -34506.170 9  20513527.291    20513526.811
  21340185.807     -903880.157 8   -704321.105 9  21340207.482    21340206.193
  24432691.879     1949132.975 5   1518801.275 6  24432717.332    24432721.409
  22420976.021       77385.526 7      1124.691 8  22420991.640    22420990.831
  24440620.491     -734735.146 5  -1218898.043 5  24440637.369    24440641.446
  20786882.011     -198148.033 8   -154400.801 9  20786901.947    20786900.658
 92  8  4  0  4 20.0000000  0  6  3 23 20 26 21 17
  20513514.549      -44260.940 8    -34488.344 9  20513531.398    20513531.218
  21338618.522     -912116.445 8   -710738.985 9  21338640.287    21338638.788
  24436178.016     1967443.336 4   1533069.066 6  24436201.879    24436205.297
  22420874.542       76892.884 7       740.826 8  22420897.745    22420897.146
  24437730.881     -749943.174 5  -1230748.432 5  24437744.042    24437746.770
  20786541.117     -199924.024 9   -155784.682 9  20786563.841    20786562.642
 92  8  4  0  4 25.0000000  0  6  3 23 20 26 21 17
  20513515.868      -44231.014 8    -34465.021 9  20513536.944    20513536.314
  21337052.946     -920348.346 8   -717153.439 9  21337073.661    21337072.582
  24439665.082     1985746.785 4   1547331.485 6  24439684.119    24439688.046
  22420785.353       76409.107 7       363.860 8  22420806.009    22420804.990
  24434824.693     -765153.112 5  -1242600.275 5  24434849.606    24434852.963
  20786207.148     -201700.638 9   -157169.055 9  20786225.945    20786224.746
 92  8  4  0  4 30.0000000  0  6  3 23 20 26 21 17
  20513523.873      -44193.929 8    -34436.120 9  20513544.649    20513543.839
  21335487.999     -928575.743 8   -723564.393 9  21335508.085    21335507.036
  24443145.103     2004043.344 4   1561588.491 6  24443165.788    24443170.195
  22420693.197       75934.243 7        -6.159 8  22420715.142    22420714.392
  24431924.830     -780364.932 5  -1254453.600 5  24431954.510    24431957.987
  20785870.361     -203478.071 9   -158554.065 9  20785887.869    20785886.610
 92  8  4  0  4 35.0000000  0  6  3 23 20 26 21 17
  20513532.477      -44150.084 8    -34401.957 9  20513552.533    20513551.963
  21333924.222     -936798.978 8   -729972.100 9  21333943.138    21333942.059
  24446630.250     2022332.590 4   1575839.817 6  24446646.409    24446650.606
  22420607.486       75467.997 7      -369.461 8  22420626.493    22420625.774
  24429034.801     -795578.994 5  -1266308.685 5  24429059.414    24429063.102
  20785527.369     -205256.861 9   -159940.128 9  20785549.464    20785547.995
 92  8  4  0  4 40.0000000  0  6  3 23 20 26 21 17
  20513542.610      -44098.752 8    -34361.961 9  20513562.666    20513561.677
  21332361.613     -945017.075 8   -736375.807 9  21332379.271    21332378.162
  24450113.209     2040615.227 4   1590085.993 6  24450125.350    24450129.937
  22420521.146       75010.917 7      -725.616 8  22420539.224    22420538.984
  24426145.102     -810794.502 5  -1278164.887 5  24426163.179    24426167.766
  20785190.312     -207036.456 9   -161326.823 9  20785210.698    20785209.379
 92  8  4  0  4 45.0000000  0  6  3 23 20 26 21 17
  20513553.732      -44040.089 8    -34316.245 9  20513573.728    20513573.129
  21330794.358     -953230.036 8   -742775.519 9  21330816.453    21330815.164
  24453575.512     2058891.201 4   1604326.976 5  24453602.763    24453607.500
  22420434.236       74562.857 7     -1074.755 8  22420454.322    22420453.543
  24423255.432     -826011.520 5  -1290022.255 5  24423268.503    24423270.632
  20784849.118     -208816.940 8   -162714.215 9  20784871.573    20784870.254
 92  8  4  0  4 50.0000000  0  6  3 23 20 26 21 17
  20513566.923      -43974.219 8    -34264.915 9  20513586.440    20513585.750
  21329232.769     -961438.314 8   -749171.566 9  21329254.804    21329253.305
  24457054.693     2077160.188 4   1618562.523 6  24457079.007    24457083.563
  22420352.423       74123.479 7     -1417.120 8  22420370.860    22420369.901
  24420359.827     -841230.166 5  -1301880.918 5  24420372.118    24420374.517
  20784514.250     -210598.499 9   -164102.437 9  20784532.777    20784531.548
 92  8  4  0  4 55.0000000  0  6  3 23 20 26 21 17
  20513575.497      -43901.533 8    -34208.273 9  20513600.080    20513599.211
  21327671.390     -969642.313 8   -755564.279 9  21327693.245    21327692.106
  24460533.455     2095421.905 4   1632792.394 6  24460554.650    24460558.668
  22420270.849       73692.535 7     -1752.914 8  22420288.657    22420288.207
  24417459.515     -856450.716 5  -1313741.052 6  24417475.673    24417479.241
  20784174.795     -212381.451 9   -165491.743 9  20784193.652    20784192.243
 92  8  4  0  5  0.0000000  0  6  3 23 20 26 21 17
  20513593.125      -43821.679 8    -34146.058 9  20513615.370    20513614.470
  21326112.050     -977841.740 8   -761953.436 9  21326132.885    21326131.806
  24464010.898     2113676.617 4   1647016.813 6  24464027.596    24464032.153
  22420188.197       73270.443 7     -2081.805 8  22420207.953    22420207.443
  24414558.273     -871672.647 5  -1325602.263 5  24414579.588    24414581.447
  20783834.261     -214165.244 9   -166881.712 9  20783854.077    20783852.698
 92  8  4  0  5  5.0000000  0  6  3 23 20 26 21 17
  20513609.584      -43734.266 8    -34077.936 9  20513631.738    20513631.379
  21324554.148     -986036.288 8   -768338.793 9  21324573.665    21324572.376
  24467482.195     2131924.646 4   1661236.022 5  24467499.822    24467506.448
  22420105.844       72857.578 7     -2403.515 8  22420129.737    22420129.228
  24411663.147     -886895.502 5  -1337464.191 6  24411682.784    24411686.171
  20783494.326     -215949.351 9   -168271.920 9  20783514.532    20783513.363
 92  8  4  0  5 10.0000000  0  6  3 23 20 26 21 17
  20513631.468      -43639.800 8    -34004.327 9  20513649.666    20513649.126
  21322994.568     -994226.284 8   -774720.602 9  21323015.134    21323014.204
  24470946.296     2150165.583 4   1675449.714 5  24470971.989    24470977.235
  22420029.996       72453.582 7     -2718.309 8  22420052.930    22420052.301
  24408766.073     -902119.547 4  -1349327.044 6  24408784.690    24408788.857
  20783153.582     -217734.273 9   -169662.762 9  20783174.777    20783173.368
 92  8  4  0  5 15.0000000  0  6  3 23 20 26 21 17
  20513649.156      -43538.334 8    -33925.262 9  20513669.182    20513668.313
  21321437.146    -1002411.777 8   -781098.902 9  21321457.322    21321456.333
  24474419.392     2168399.351 4   1689657.816 5  24474440.677    24474446.643
  22419957.386       72058.329 7     -3026.294 8  22419977.802    22419976.933
  24405870.168     -917344.838 5  -1361190.880 6  24405887.226    24405891.573
  20782815.866     -219520.141 8   -171054.351 9  20782834.993    20782833.584
 92  8  4  0  5 20.0000000  0  6  3 23 20 26 21 17
  20513664.655      -43429.602 8    -33840.526 9  20513689.298    20513689.059
  21319878.645    -1010592.651 8   -787473.596 9  21319900.470    21319899.661
  24477889.640     2186626.047 4   1703860.400 5  24477909.066    24477914.732
  22419883.188       71671.761 7     -3327.512 8  22419904.023    22419903.394
  24402966.138     -932571.620 5  -1373055.865 6  24402989.282    24402993.509
  20782477.580     -221306.845 9   -172446.581 9  20782495.118    20782493.649
 92  8  4  0  5 25.0000000  0  6  3 23 20 26 21 17
  20513692.656      -43313.882 8    -33750.356 9  20513711.663    20513711.213
  21318322.662    -1018768.600 8   -793844.453 9  21318344.517    21318343.678
  24481350.833     2204845.623 4   1718057.450 5  24481376.616    24481382.611
  22419814.385       71293.893 7     -3621.945 8  22419832.013    22419831.414
  24400069.393     -947799.896 5  -1384922.012 6  24400092.058    24400096.075
  20782138.005     -223094.162 9   -173839.292 9  20782155.153    20782153.624
 92  8  4  0  5 30.0000000  0  6  3 23 20 26 21 17
  20513718.498      -43191.069 8    -33654.658 9  20513735.257    20513734.657
  21316771.146    -1026939.395 8   -800211.306 9  21316789.494    21316788.714
  24484828.216     2223057.982 4   1732248.880 5  24484841.677    24484848.062
  22419740.667       70924.707 7     -3909.615 8  22419761.592    22419761.622
  24397174.747     -963029.677 5  -1396789.343 6  24397193.155    24397197.412
  20781793.814     -224882.097 9   -175232.487 9  20781814.739    20781813.420
 92  8  4  0  5 35.0000000  0  6  3 23 20 26 21 17
  20513739.783      -43060.935 8    -33553.250 9  20513759.870    20513759.270
  21315217.082    -1035104.757 8   -806573.918 9  21315235.969    21315234.830
  24488284.314     2241263.296 4   1746434.826 5  24488305.659    24488311.685
  22419670.935       70564.057 7     -4190.631 8  22419693.059    22419692.700
  24394276.923     -978260.868 5  -1408657.765 6  24394295.601    24394299.228
  20781452.440     -226670.332 9   -176625.911 9  20781474.535    20781473.096
 92  8  4  0  5 40.0000000  0  6  3 23 20 26 21 17
  20513764.127      -42923.224 8    -33445.942 9  20513785.802    20513785.772
  21313664.667    -1043264.413 8   -812932.081 9  21313683.194    21313682.295
  24491750.394     2259461.871 4   1760615.502 5  24491769.521    24491776.176
  22419606.509       70212.351 7     -4464.682 8  22419625.726    22419625.756
  24391384.136     -993493.377 5  -1420527.221 6  24391397.267    24391400.325
  20781115.533     -228458.533 9   -178019.312 9  20781134.570    20781132.861
 92  8  4  0  5 45.0000000  0  6  3 23 20 26 21 17
  20513791.198      -42778.359 8    -33333.058 9  20513813.622    20513813.173
  21312112.881    -1051418.638 8   -819286.017 9  21312131.468    21312130.539
  24495212.098     2277653.308 4   1774790.610 5  24495232.004    24495238.090
  22419542.504       69869.205 7     -4732.060 8  22419560.911    22419560.191
  24388477.408    -1008727.557 5  -1432397.978 6  24388497.075    24388501.122
  20780775.119     -230246.847 9   -179412.802 9  20780794.186    20780792.537
 92  8  4  0  5 50.0000000  0  6  3 23 20 26 21 17
  20513825.194      -42626.009 8    -33214.340 9  20513842.732    20513841.953
  21310558.847    -1059567.197 8   -825635.539 9  21310581.002    21310579.893
  24498669.574     2295837.828 4   1788960.333 6  24498692.178    24498698.834
  22419477.749       69534.893 7     -4992.556 8  22419497.025    22419496.785
  24385574.638    -1023963.057 5  -1444269.758 6  24385597.632    24385602.159
  20780431.347     -232034.763 9   -180805.979 9  20780453.921    20780452.272
 92  8  4  0  5 55.0000000  0  6  3 23 20 26 21 17
  20513851.906      -42466.732 8    -33090.230 9  20513872.711    20513872.292
  21309010.329    -1067710.483 8   -831980.949 9  21309031.075    21309030.265
  24502125.132     2314014.937 4   1803124.256 5  24502152.053    24502156.700
  22419413.743       69209.019 7     -5246.479 8  22419435.268    22419434.578
  24382676.215    -1039200.272 5  -1456142.871 6  24382698.189    24382702.926
  20780094.170     -233822.631 9   -182199.118 9  20780113.447    20780111.918
 92  8  4  0  6  0.0000000  0  6  3 23 20 26 21 17
  20513882.065      -42300.233 8    -32960.486 9  20513904.489    20513904.040
  21307461.361    -1075848.013 8   -838321.873 9  21307482.347    21307481.687
  24505585.786     2332184.864 4   1817282.621 5  24505608.091    24505613.427
  22419354.114       68891.796 7     -5493.657 8  22419374.560    22419374.260
  24379774.463    -1054438.899 5  -1468017.088 6  24379797.997    24379802.524
  20779755.764     -235610.097 9   -183591.943 9  20779773.152    20779771.354
 92  8  4  0  6  5.0000000  0  6  3 23 20 26 21 17
  20513917.111      -42126.935 8    -32825.450 9  20513937.557    20513937.017
  21305911.884    -1083980.087 8   -844658.552 9  21305935.028    21305934.339
  24509047.070     2350347.161 4   1831435.013 5  24509065.687    24509070.094
  22419295.924       68583.033 7     -5734.245 8  22419315.921    22419315.771
  24376869.295    -1069679.281 5  -1479892.674 6  24376899.364    24376902.901
  20779412.712     -237397.652 9   -184984.842 9  20779433.008    20779431.569
 92  8  4  0  6 10.0000000  0  6  3 23 20 26 21 17
  20513950.777      -41946.446 8    -32684.805 9  20513971.583    20513971.463
  21304369.452    -1092105.958 8   -850990.392 9  21304388.849    21304387.859
  24512500.109     2368502.299 5   1845581.842 5  24512519.626    24512525.532
  22419237.435       68283.554 7     -5967.596 8  22419258.780    22419258.360
  24373967.423    -1084920.920 5  -1491769.237 6  24373997.523    24374002.529
  20779072.837     -239184.977 9   -186377.558 9  20779092.833    20779091.394
 92  8  4  0  6 15.0000000  0  6  3 23 20 26 21 17
  20513986.303      -41758.507 8    -32538.352 9  20514007.468    20514007.108
  21302821.893    -1100225.215 8   -857317.076 9  21302843.898    21302842.879
  24515949.641     2386650.382 5   1859723.141 5  24515974.464    24515978.481
  22419183.562       67993.731 7     -6193.422 8  22419203.738    22419203.378
  24371073.077    -1100163.761 5  -1503646.728 6  24371097.091    24371101.887
  20778734.941     -240972.126 9   -187770.142 9  20778752.959    20778751.280
 92  8  4  0  6 20.0000000  0  6  3 23 20 26 21 17
  20514022.368      -41563.392 8    -32386.317 9  20514044.463    20514044.193
  21301280.630    -1108338.035 8   -863638.748 9  21301299.847    21301299.038
  24519397.045     2404791.115 5   1873858.767 5  24519426.154    24519430.501
  22419129.899       67713.322 7     -6411.921 8  22419150.405    22419149.985
  24368178.791    -1115408.015 5  -1515525.346 6  24368196.838    24368199.716
  20778394.437     -242759.356 9   -189162.795 9  20778413.114    20778411.375
 92  8  4  0  6 25.0000000  0  6  3 23 20 26 21 17
  20514063.439      -41361.079 8    -32228.665 9  20514083.346    20514082.836
  21299738.108    -1116444.514 8   -869955.480 9  21299757.235    21299756.515
  24522855.241     2422924.561 5   1887988.674 5  24522877.245    24522881.203
  22419075.787       67442.169 7     -6623.202 8  22419098.901    22419098.541
  24365277.909    -1130653.774 5  -1527405.116 6  24365295.537    24365299.104
  20778053.333     -244546.571 9   -190555.419 9  20778072.969    20778071.351
 92  8  4  0  6 30.0000000  0  6  3 23 20 26 21 17
  20514103.761      -41151.092 8    -32065.039 9  20514123.158    20514122.888
  21298196.455    -1124544.492 8   -876267.140 9  21298215.792    21298215.162
  24526311.458     2441051.138 5   1902113.241 5  24526327.197    24526331.604
  22419029.259       67180.882 7     -6826.768 8  22419049.285    22419048.895
  24362375.978    -1145900.465 5  -1539285.615 6  24362394.116    24362397.893
  20777714.028     -246333.207 9   -191947.601 9  20777732.945    20777731.236
 92  8  4  0  6 35.0000000  0  6  3 23 20 26 21 17
  20514142.225      -40933.762 8    -31895.690 9  20514164.529    20514163.870
  21296657.651    -1132638.012 8   -882573.771 9  21296675.878    21296674.859
  24529759.011     2459170.542 5   1916232.215 5  24529775.320    24529778.588
  22418978.714       66929.196 7     -7022.905 8  22419001.708    22419000.719
  24359471.589    -1161148.420 5  -1551167.113 6  24359493.264    24359495.752
  20777376.941     -248119.661 9   -193339.642 9  20777393.100    20777391.211
 92  8  4  0  6 40.0000000  0  6  3 23 20 26 21 17
  20514188.693      -40709.268 8    -31720.755 9  20514207.280    20514206.770
  21295117.617    -1140724.978 8   -888875.302 9  21295136.983    21295136.054
  24533199.190     2477282.604 5   1930345.496 5  24533221.914    24533225.481
  22418930.987       66686.949 7     -7211.669 8  22418955.240    22418955.030
  24356573.105    -1176397.836 5  -1563049.711 6  24356591.003    24356594.810
  20777031.610     -249906.005 9   -194731.601 9  20777053.045    20777051.367
 92  8  4  0  6 45.0000000  0  6  3 23 20 26 21 17
  20514229.884      -40477.512 8    -31540.169 9  20514251.499    20514251.050
  21293578.482    -1148805.418 8   -895171.738 9  21293599.378    21293598.269
  24536645.664     2495387.303 5   1944453.015 5  24536667.399    24536671.206
  22418888.776       66454.086 7     -7393.109 8  22418911.531    22418910.601
  24353663.709    -1191648.545 5  -1574933.353 6  24353689.162    24353692.100
  20776691.975     -251692.045 9   -196123.310 9  20776712.871    20776711.582
 92  8  4  0  6 50.0000000  0  6  3 23 20 26 21 17
  20514275.632      -40238.297 8    -31353.755 9  20514296.858    20514296.288
  21292041.836    -1156879.268 8   -901463.042 9  21292062.912    21292061.892
  24540088.180     2513484.792 5   1958554.920 5  24540110.515    24540113.453
  22418848.334       66230.834 7     -7567.074 8  22418868.570    22418867.821
  24350768.584    -1206900.309 5  -1586817.796 6  24350786.421    24350789.839
  20776354.259     -253477.441 9   -197514.524 9  20776373.326    20776372.007
 92  8  4  0  6 55.0000000  0  6  3 23 20 26 21 17
  20514324.559      -39992.018 8    -31161.855 9  20514343.925    20514343.056
  21290506.179    -1164946.947 8   -907749.539 9  21290527.644    21290526.775
  24543535.644     2531574.788 5   1972651.020 4  24543553.511    24543555.880
  22418806.004       66016.808 7     -7733.834 8  22418828.308    22418827.439
  24347861.976    -1222153.483 5  -1598703.353 6  24347884.550    24347887.039
  20776014.325     -255262.402 9   -198905.402 9  20776033.841    20776032.162
 92  8  4  0  7  0.0000000  0  6  3 23 20 26 21 17
  20514370.907      -39738.384 8    -30964.212 9  20514392.342    20514391.382
  21288972.081    -1173008.401 8   -914031.181 9  21288993.606    21288992.617
  24546975.253     2549657.429 5   1986741.373 5  24546994.289    24546997.048
  22418767.061       65812.125 7     -7893.337 8  22418788.975    22418788.586
  24344964.272    -1237408.020 5  -1610589.968 5  24344981.000    24344984.058
  20775674.720     -257046.724 9   -200295.784 9  20775694.176    20775692.647
 92  8  4  0  7  5.0000000  0  6  3 23 20 26 21 17
  20514419.833      -39477.855 8    -30761.206 9  20514441.777    20514441.208
  21287439.632    -1181064.275 8   -920308.479 9  21287460.977    21287459.838
  24550415.191     2567732.339 5                                  24550434.258
  22418731.535       65616.409 7     -8045.827 8  22418751.741    22418751.112
  24342058.084    -1252664.306 5  -1622477.951 5  24342077.990    24342080.928
  20775336.224     -258830.667 9   -201685.862 9  20775354.661    20775353.252
 92  8  4  0  7 10.0000000  0  6  3 23 20 26 21 17
  20514473.496      -39210.049 8    -30552.518 9  20514492.802    20514492.083
  21285909.611    -1189114.432 8   -926581.327 9  21285928.888    21285927.749
  24553853.271     2585799.843 5  -2069783.77915  24553872.398    24553875.246
  22418692.592       65430.230 7     -8190.889 8  22418716.905    22418715.586
  24339151.776    -1267921.936 5  -1634366.965 5  24339174.620    24339176.479
  20774996.050     -260613.967 9   -203075.445 9  20775015.476    20775013.737
 92  8  4  0  7 15.0000000  0  6  3 23 20 26 21 17
  20514525.390      -38935.078 8    -30338.260 9  20514544.996    20514544.396
  21284377.552    -1197158.913 8   -932849.744 9  21284398.028    21284396.859
  24557290.002     2603859.778 5  -2055711.124 5  24557309.339    24557312.217
  22418659.105       65253.505 7     -8328.590 8  22418683.059    22418682.159
  24336254.671    -1283181.038 5  -1646257.137 5  24336270.261    24336272.899
  20774653.776     -262396.963 8   -204464.794 9  20774676.261    20774674.432
 92  8  4  0  7 20.0000000  0  6  3 23 20 26 21 17
  20514578.303      -38652.892 8    -30118.375 9  20514598.659    20514598.059
  21282848.011    -1205197.887 8   -939113.871 9  21282868.367    21282867.018
  24560724.394     2621912.093 5  -2041644.396 5  24560744.031    24560747.958
  22418629.096       65086.081 7     -8459.051 8  22418651.041    22418650.261
  24333347.764    -1298441.653 5  -1658148.486 5  24333367.041    24333368.569
  20774314.861     -264179.820 8   -205854.032 9  20774336.836    20774335.277
 92  8  4  0  7 25.0000000  0  6  3 23 20 26 21 17
  20514633.435      -38363.527 8    -29892.894 9  20514654.031    20514653.101
  21281321.258    -1213231.296 8   -945373.662 9  21281339.875    21281338.466
  24564154.530     2639956.899 5  -2027583.555 5  24564178.393    24564182.680
  22418601.995       64927.752 7     -8582.418 8  22418621.002    22418620.492
  24330441.366    -1313703.832 5  -1670041.049 5  24330462.681    24330464.060
  20773975.736     -265962.834 8   -207243.393 9  20773997.531    20773995.822
 92  8  4  0  7 30.0000000  0  6  3 23 20 26 21 17
  20514692.164      -38067.060 8    -29661.887 9  20514710.332    20514709.702
  21279793.426    -1221259.421 8   -951629.333 9  21279811.803    21279810.873
  24567591.710     2657993.981 5  -2013528.736 5  24567610.297    24567615.064
  22418568.988       64778.190 7     -8698.957 8  22418592.311    22418591.652
  24327538.985    -1328967.907 5  -1681935.096 5  24327557.362    24327559.041
  20773635.022     -267746.334 8   -208633.130 9  20773658.076    20773656.577
 92  8  4  0  7 35.0000000  0  6  3 23 20 26 21 17
  20514745.887      -37763.235 8    -29425.134 9  20514768.102    20514767.232
  21278269.071    -1229281.987 8   -957880.679 9  21278285.140    21278284.240
  24571022.745     2676023.675 5  -1999479.660 5  24571040.852    24571045.139
  22418547.762       64637.665 7     -8808.448 8  22418565.510    22418564.940
  24324631.658    -1344233.491 5  -1693830.323 5  24324653.033    24324654.562
  20773297.605     -269529.733 8   -210022.785 9  20773318.471    20773317.242
 92  8  4  0  7 40.0000000  0  6  3 23 20 26 21 17
  20514806.565      -37451.965 8    -29182.586 9  20514827.580    20514826.531
  21276741.209    -1237299.363 8   -964127.973 9  21276759.466    21276758.806
  24574451.651     2694045.914 5  -1985436.389 5  24574471.347    24574475.724
  22418521.740       64506.194 7     -8910.880 8  22418540.717    22418539.428
  24321725.860    -1359500.576 5  -1705726.724 5  24321747.415    24321750.023
  20772959.799     -271313.268 8   -211412.552 9  20772979.136    20772977.817
 92  8  4  0  7 45.0000000  0  6  3 23 20 26 21 17
  20514870.751      -37133.422 8    -28934.362 9  20514888.258    20514887.479
  21275213.856    -1245311.607 8   -970371.274 9  21275234.931    21275233.942
  24577873.033     2712060.606 5  -1971398.995 5  24577898.875    24577902.772
  22418498.596       64383.685 7     -9006.335 8  22418517.333    22418516.404
  24318816.494    -1374769.069 5  -1717624.201 5  24318841.886    24318843.715
  20772619.924     -273096.987 8   -212802.459 9  20772639.651    20772638.392
 92  8  4  0  7 50.0000000  0  6  3 23 20 26 21 17
  20514928.880      -36807.501 8    -28680.400 9  20514950.225    20514949.086
  21273691.240    -1253318.901 8   -976610.714 9  21273710.936    21273710.307
  24581305.147     2730067.881 5  -1957367.363 5  24581324.243    24581328.950
  22418476.682       64270.162 7     -9094.789 8  22418495.628    22418495.149
  24315919.689    -1390038.900 5  -1729522.741 5  24315936.028    24315938.786
  20772282.688     -274880.813 8   -214192.454 9  20772300.226    20772298.967
 92  8  4  0  7 55.0000000  0  6  3 23 20 26 21 17
  20514995.764      -36473.954 8    -28420.494 9  20515013.542    20515012.522
  21272168.144    -1261321.445 8   -982846.463 9  21272188.081    21272187.301
  24584730.036     2748067.812 5  -1943341.475 5  24584750.691    24584754.619
  22418455.456       64165.740 7     -9176.152 8  22418475.452    22418475.273
  24313016.079    -1405309.951 5  -1741422.220 5  24313030.319    24313031.878
  20771941.674     -276664.602 8   -215582.410 9  20771961.101    20771959.182
 92  8  4  0  8  0.0000000  0  6  3 23 20 26 21 17
  20515056.712      -36133.300 8    -28155.047 9  20515078.357    20515077.577
  21270645.409    -1269319.870 8   -989078.985 9  21270665.884    21270665.165
  24588146.710     2766059.879 5  -1929321.724 5  24588174.051    24588179.418
  22418436.569       64070.079 7     -9250.692 8  22418457.435    22418456.565
  24310098.409    -1420582.525 5  -1753322.874 5  24310123.712    24310125.930
  20771603.628     -278448.874 8   -216972.753 9  20771621.346    20771619.697
 92  8  4  0  8  5.0000000  0  6  3 23 20 26 21 17
  20515123.026      -35785.543 8    -27884.064 9  20515144.431    20515144.011
  21269124.112    -1277314.115 8   -995308.260 9  21269144.887    21269143.898
  24591570.880     2784044.115 5  -1915308.069 5  24591596.362    24591601.399
  22418413.965       63983.143 7     -9318.419 8  22418440.467    22418439.807
  24307200.046    -1435856.455 5  -1765224.617 5  24307216.834    24307219.832
  20771265.492     -280233.536 8   -218363.398 9  20771281.741    20771280.182
 92  8  4  0  8 10.0000000  0  6  3 23 20 26 21 17
  20515197.135      -35430.172 8    -27607.152 9  20515212.214    20515211.345
  21267603.594    -1285303.835 8  -1001534.005 9  21267624.280    21267623.201
  24594994.270     2802021.039 5  -1901300.116 5  24595017.414    24595022.091
  22418406.650       63905.514 7     -9378.906 8  22418425.957    22418425.237
  24304288.791    -1451131.187 5  -1777126.957 5  24304309.537    24304314.183
  20770921.480     -282018.242 8   -219754.073 9  20770942.256    20770940.427
 92  8  4  0  8 15.0000000  0  6  3 23 20 26 21 17
  20515257.483      -35067.478 8    -27324.532 9  20515281.226    20515280.477
  21266083.107    -1293289.326 8  -1007756.461 9  21266105.142    21266103.823
  24598419.069     2819990.417 5  -1887298.038 5  24598437.476    24598441.523
  22418391.600       63837.158 7     -9432.157 8  22418413.006    22418411.866
  24301379.245    -1466407.133 5  -1789030.255 5  24301404.248    24301407.126
  20770584.484     -283803.262 8   -221145.000 9  20770602.561    20770600.912
 92  8  4  0  8 20.0000000  0  6  3 23 20 26 21 17
  20515333.480      -34697.560 8    -27036.283 9  20515351.797    20515350.778
  21264563.609    -1301270.942 8  -1013975.893 9  21264585.943    21264584.774
  24601824.561     2837952.007 4  -1873301.987 5  24601854.001    24601859.247
  22418381.018       63777.910 7     -9478.323 8  22418401.703    22418400.774
  24298475.875    -1481684.771 5  -1800934.865 5  24298496.081    24298499.469
  20770243.560     -285588.789 8   -222536.320 9  20770262.506    20770261.307
 92  8  4  0  8 25.0000000  0  6  3 23 20 26 21 17
  20515400.694      -34320.387 8    -26742.389 9  20515423.208    20515422.638
  21263049.117    -1309248.549 8  -1020192.208 9  21263067.824    21263067.015
  24605243.814     2855905.896 4  -1859311.949 5  24605270.106    24605275.023
  22418375.262       63727.983 7     -9517.223 8  22418392.110    22418391.331
  24295570.946    -1496963.944 5  -1812840.681 5  24295587.765    24295592.351
  20769904.704     -287374.849 8   -223928.052 9  20769922.842    20769921.223
 92  8  4  0  8 30.0000000  0  6  3 23 20 26 21 17
  20515477.261      -33935.673 8    -26442.604 9  20515496.507    20515495.518
  21261527.821    -1317221.783 8  -1026405.112 9  21261550.605    21261549.586
  24608654.943     2873852.298 4  -1845327.769 5  24608684.862    24608689.958
  22418365.159       63687.556 7     -9548.709 8  22418384.405    22418383.836
  24292652.617    -1512244.494 5  -1824747.570 6  24292679.718    24292685.234
  20769564.650     -289161.066 9   -225319.902 9  20769582.877    20769581.138
 92  8  4  0  8 35.0000000  0  6  3 23 20 26 21 17
  20515550.170      -33543.545 8    -26137.051 9  20515570.976    20515570.376
  21260014.049    -1325191.012 8  -1032614.896 9  21260033.925    21260032.846
  24612072.876     2891791.002 4  -1831349.592 5  24612098.239    24612104.654
  22418357.394       63656.269 7     -9573.083 8  22418378.470    22418377.960
  24289744.150    -1527526.520 5  -1836655.596 6  24289772.001    24289775.898
  20769224.715     -290947.421 9   -226711.870 9  20769243.062    20769241.323
 92  8  4  0  8 40.0000000  0  6  3 23 20 26 21 17
  20515625.568      -33144.232 8    -25825.896 9  20515647.003    20515646.254
  21258497.369    -1333156.536 8  -1038821.784 9  21258517.904    21258517.335
  24615489.641     2909721.886 4  -1817377.522 5  24615510.447    24615517.582
  22418352.178       63633.714 7     -9590.660 8  22418374.183    22418373.613
  24286836.553    -1542810.202 5  -1848564.949 6  24286863.384    24286868.241
  20768883.281     -292734.096 9   -228104.084 9  20768902.618    20768901.209
 92  8  4  0  8 45.0000000  0  6  3 23 20 26 21 17
  20515706.812      -32737.113 8    -25508.661 9  20515724.559    20515723.960
  21256980.239    -1341117.773 8  -1045025.337 9  21257003.083    21257002.423
  24618901.819    -3009140.55814   -255284.13315  24618921.186    24618926.672
  22418350.019       63620.639 7     -9600.837 8  22418371.844    22418371.035
  24283927.607    -1558094.897 5  -1860475.040 6  24283954.258    24283959.774
  20768542.447     -294520.547 9   -229496.119 9  20768562.683    20768561.154
 92  8  4  0  8 50.0000000  0  6  3 23 20 26 21 17
  20515780.531      -32322.873 8    -25185.873 9  20515803.045    20515802.805
  21255466.617    -1349075.442 8  -1051226.095 9  21255488.681    21255488.322
  24622309.350    -2991224.967 4   -241323.986 5  24622330.935    24622337.261
  22418350.919       63616.595 7     -9603.983 8  22418370.885    22418370.435
  24281024.596    -1573381.157 5  -1872386.388 6  24281045.762    24281050.708
  20768202.962     -296307.389 9   -230888.461 9  20768222.839    20768221.400
 92  8  4  0  8 55.0000000  0  6  3 23 20 26 21 17
  20515864.383      -31901.081 8    -24857.206 9  20515883.210    20515882.940
  21253951.346    -1357028.913 8  -1057423.607 9  21253975.059    21253974.699
  24625713.014    -2973316.947 4   -227369.707 6  24625737.297    24625745.001
  22418352.358       63621.830 7     -9599.900 9  22418371.814    22418371.155
  24278117.509    -1588668.606 4  -1884298.656 6  24278136.995    24278141.462
  20767860.989     -298094.132 9   -232280.729 9  20767882.874    20767881.315
 92  8  4  0  9  0.0000000  0  6  3 23 20 26 21 17
  20515942.778      -31471.878 8    -24522.756 9  20515965.083    20515964.903
  21252442.550    -1364978.421 8  -1063618.018 9  21252462.516    21252461.887
  24629112.990    -2955416.672 4   -213421.475 6  24629143.539    24629150.854
  22418352.897       63635.989 7     -9588.860 8  22418374.602    22418373.733
  24275223.163    -1603957.422 4  -1896211.986 6  24275227.809    24275232.876
  20767523.213     -299880.843 9   -233672.969 9  20767542.939    20767541.470
 92  8  4  0  9  5.0000000  0  6  3 23 20 26 21 17
  20516025.611      -31035.294 8    -24182.562 9  20516047.916    20516047.676
  21250927.699    -1372924.072 8  -1069809.426 9  21250950.573    21250949.764
  24632521.540    -2937524.128 4   -199479.282 6  24632549.331    24632556.766
  22418359.942       63659.200 7     -9570.769 9  22418379.249    22418378.769
  24272292.032    -1619247.603 4  -1908126.386 6  24272318.504    24272323.570
  20767183.398     -301667.427 9   -235065.110 9  20767202.825    20767201.266
 92  8  4  0  9 10.0000000  0  6  3 23 20 26 21 17
  20516108.983      -30591.523 8    -23836.767 9  20516132.667    20516132.277
  21249418.484    -1380866.018 8  -1075997.954 9  21249439.109    21249438.660
  24635931.470    -2919639.632 4   -185543.338 6  24635952.515    24635958.901
  22418360.122       63691.327 7     -9545.724 8  22418384.975    22418384.585
  24269385.184    -1634539.447 4  -1920042.066 6  24269408.148    24269413.395
  20766842.264     -303454.135 9   -236457.350 9  20766862.830    20766861.181
 92  8  4  0  9 15.0000000  0  6  3 23 20 26 21 17
  20516197.932      -30140.463 8    -23485.291 9  20516218.258    20516217.718
  21247905.611    -1388804.050 8  -1082183.427 9  21247928.665    21247928.036
  24639333.215    -2901763.087 4   -171613.606 6  24639355.129    24639361.305
  22418370.105       63732.724 7     -9513.460 8  22418393.039    22418392.320
  24266471.411    -1649832.825 4  -1931958.934 6  24266497.853    24266502.620
  20766504.638     -305241.034 9   -237849.733 9  20766522.685    20766521.276
 92  8  4  0  9 20.0000000  0  6  3 23 20 26 21 17
  20516284.362      -29681.990 8    -23128.036 9  20516305.557    20516305.257
  21246397.475    -1396737.787 8  -1088365.556 9  21246418.880    21246418.311
  24642729.863    -2883894.320 4   -157689.914 6  24642754.566    24642761.881
  22418379.279       63783.733 7     -9473.705 8  22418402.393    22418401.883
  24263570.320    -1665127.316 4  -1943876.700 6  24263587.408    24263592.115
  20766163.684     -307027.953 9   -239242.136 9  20766182.601    20766181.192
 92  8  4  0  9 25.0000000  0  6  3 23 20 26 21 17
  20516371.242      -29216.061 8    -22764.977 9  20516394.206    20516393.696
  21244886.821    -1404667.147 8  -1094544.268 9  21244909.845    21244909.036
  24646131.938    -2866033.380 4   -143772.318 6  24646154.153    24646160.118
  22418392.530       63844.340 7     -9426.465 9  22418414.025    22418414.175
  24260648.213    -1680422.966 4  -1955795.347 6  24260676.123    24260681.250
  20765823.090     -308814.898 9   -240634.563 9  20765842.546    20765841.197
 92  8  4  0  9 30.0000000  0  6  3 23 20 26 21 17
  20516464.897      -28742.997 8    -22396.353 9  20516484.234    20516483.544
  21243380.394    -1412592.063 8  -1100719.518 9  21243401.769    21243401.229
  24649530.745    -2848180.507 4   -129861.037 6  24649551.491    24649557.397
  22418406.230       63914.287 7     -9371.965 8  22418427.725    22418427.036
  24257734.800    -1695720.235 4  -1967715.272 6  24257764.599    24257769.815
  20765482.016     -310602.295 9   -242027.337 9  20765502.492    20765501.143
 92  8  4  0  9 35.0000000  0  6  3 23 20 26 21 17
  20516554.745      -28262.578 8    -22021.994 9  20516575.520    20516575.131
  21241873.157    -1420512.390 8  -1106891.192 9  21241894.652    21241894.173
  24652924.575    -2830335.663 4   -115955.996 6  24652947.360    24652953.475
  22418422.089       63993.624 7     -9310.136 8  22418442.445    22418442.175
  24254832.779    -1711019.080 3  -1979636.398 6  24254853.674    24254858.411
  20765146.188     -312389.838 9   -243420.229 9  20765162.497    20765161.028
 92  8  4  0  9 40.0000000  0  6  3 23 20 26 21 17
  20516650.588      -27774.354 8    -21641.568 9  20516668.426    20516668.006
  21240365.981    -1428427.489 8  -1113058.796 9  21240388.465    21240387.716
  24656320.325    -2812498.249 4   -102056.750 6  24656342.209    24656347.936
  22418436.869       64082.926 7     -9240.543 8  22418459.264    22418459.384
  24251922.364    -2587948.749 3  -1991558.358 6                  24251946.976
  20764801.907     -314176.899 9   -244812.741 9  20764822.473    20764821.213
 92  8  4  0  9 45.0000000  0  6  3 23 20 26 21 17
  20516738.158      -27278.753 8    -21255.377 9  20516762.711    20516762.471
  21238862.671    -1436337.660 8  -1119222.559 9  21238883.297    21238882.638
  24659712.476    -2794668.836 4    -88163.732 6  24659734.391    24659740.177
  22418457.555       64181.709 7     -9163.558 8  22418478.360    22418477.611
  24249009.070    -2603250.122 3  -2003481.467 6                  24249035.152
  20764464.400     -315963.740 9   -246205.084 9  20764482.448    20764480.949
 92  8  4  0  9 50.0000000  0  6  3 23 20 26 21 17
  20516840.777      -26776.324 8    -20863.875 9  20516858.165    20516858.075
  21237356.694    -1444243.302 8  -1125382.793 9  21237378.879    21237378.099
  24663107.356    -2776847.959 4    -74277.368 6  24663125.553    24663131.220
  22418479.679       64289.744 7     -9079.372 8  22418498.776    22418498.656
  24246115.354    -2618553.464 3  -2015406.089 6                  24246123.208
  20764122.427     -317750.593 8   -247597.435 9  20764142.363    20764141.074
 92  8  4  0  9 55.0000000  0  6  3 23 20 26 21 17
  20516932.123      -26265.998 8    -20466.217 9  20516955.447    20516955.177
  21235853.085    -1452143.120 8  -1131538.488 9  21235875.389    21235874.790
  24666494.052    -2759034.530 4    -60396.816 5  24666515.786    24666520.793
  22418499.526       64408.326 7     -8986.965 8  22418521.381    22418521.051
  24243194.296    -2633857.537 3  -2027331.314 6                  24243210.635
  20763785.910     -319536.361 9   -248988.945 9  20763802.459    20763800.990
 92  8  4  0 10  0.0000000  0  6  3 23 20 26 21 17
  20517034.682      -25748.301 8    -20062.821 9  20517054.079    20517053.959
  21234351.634    -1460037.445 8  -1137689.906 9  21234373.069    21234372.680
  24669881.137    -2741229.082 4    -46522.490 5  24669903.681    24669908.148
  22418521.171       64537.046 7     -8886.656 8  22418546.293    22418545.244
  24240282.831           0.07113  -2039257.421 6  24240292.185    24240298.690
  20763441.598     -321321.807 8   -250380.199 9  20763462.434    20763461.235
 92  8  4  0 10  5.0000000  0  6  3 23 20 26 21 17
  20517132.115      -25223.786 8    -19654.105 9  20517153.670    20517153.370
  21232850.723    -1467926.587 8  -1143837.281 9  21232872.009    21232871.499
  24673267.742    -2723432.282 4    -32654.903 5  24673290.047    24673295.983
  22418551.270       64675.329 7     -8778.900 8  22418572.315    22418571.596
  24237364.622    -2664469.603 3  -2051184.798 6                  24237385.247
  20763103.972     -323107.628 8   -251771.744 9  20763122.769    20763121.480
 92  8  4  0 10 10.0000000  0  6  3 23 20 26 21 17
  20517234.674      -24691.939 8    -19239.681 9  20517255.090    20517254.700
  21231351.191    -1475809.960 8  -1149980.161 9  21231371.817    21231371.278
  24676653.868    -2705643.587 4    -18793.629 5  24676675.843    24676681.119
  22418581.459       64823.764 7     -8663.230 8  22418600.975    22418600.016
  24234445.273    -2679777.550 3  -2063113.035 5                  24234471.594
  20762761.579     -324893.349 9   -253163.214 9  20762782.625    20762781.755
 92  8  4  0 10 15.0000000  0  6  3 23 20 26 21 17
  20517334.685      -24152.542 8    -18819.367 9  20517357.649    20517357.139
  21229853.278    -1483687.059 8  -1156118.150 9  21229872.585    21229872.345
  24680040.833    -2687862.786 5     -4938.484 5  24680060.140    24680063.647
  22418607.301       64982.496 7     -8539.540 9  22418630.835    22418630.145
  24231539.804    -2695086.418 3  -2075042.002 5                  24231558.271
  20762424.343     -326678.830 9   -254554.497 9  20762443.110    20762441.881
 92  8  4  0 10 20.0000000  0  6  3 23 20 26 21 17
  20517442.010      -23605.595 8    -18393.168 9  20517461.527    20517461.347
  21228354.346    -1491557.559 8  -1162250.998 9  21228374.942    21228374.732
  24683419.824    -2670089.926 5      8910.464 5  24683442.608    24683445.097
  22418638.929       65151.598 7     -8407.763 8  22418662.793    22418662.403
  24228620.365    -2710396.365 3  -2086971.793 5                  24228645.188
  20762082.130     -328464.256 9   -255945.736 9  20762103.385    20762102.066
 92  8  4  0 10 25.0000000  0  6  3 23 20 26 21 17
  20517543.940      -23051.217 8    -17961.189 9  20517566.994    20517567.054
  21226858.592    -1499421.523 8  -1168378.755 9  21226878.378    21226878.048
  24686805.170    -2652325.152 5     22753.146 5  24686823.398    24686825.227
  22418674.754       65330.829 7     -8268.096 8  22418696.459    22418696.489
  24225716.785    -2725707.703 3  -2098902.686 5                  24225731.865
  20761744.863     -330249.752 8   -257337.029 9  20761763.780    20761762.491
 92  8  4  0 10 30.0000000  0  6  3 23 20 26 21 17
  20517657.022      -22489.297 8    -17523.336 9  20517674.080    20517674.080
  21225363.047    -1507278.863 8  -1174501.354 9  21225383.493    21225382.893
  24690179.754    -2634568.387 5     36589.561 5  24690202.778    24690205.117
  22418711.839       65520.257 7     -8120.490 8  22418732.854    22418732.644
  24222791.051    -2741020.329 3  -2110834.564 5                  24222817.372
  20761398.543     -332035.313 9   -258728.377 9  20761423.965    20761422.736
 92  8  4  0 10 35.0000000  0  6  3 23 20 26 21 17
  20517758.052      -21920.250 8    -17079.911 9  20517782.395    20517782.155
  21223869.931    -1515129.775 8  -1180618.941 9  21223889.267    21223889.147
  24693561.443    -2616819.958 5     50419.465 5  24693580.120    24693582.728
  22418750.542       65719.403 7     -7965.306 8  22418770.718    22418770.298
  24219882.884    -2756334.621 3  -2122767.762 5                  24219902.430
  20761063.795     -333821.128 9   -260119.913 9  20761083.911    20761082.741
 92  8  4  0 10 40.0000000  0  6  3 23 20 26 21 17
  20517872.093      -21343.749 8    -16630.697 9  20517892.029    20517891.999
  21222377.983    -1522974.068 8  -1186731.372 9  21222396.690    21222396.331
  24696933.209    -2599079.655 5     64243.048 5  24696955.933    24696959.021
  22418789.125       65928.064 7     -7802.707 8  22418810.411    22418810.141
  24216960.507    -2771649.984 4  -2134701.775 5                  24216988.568
  20760720.862     -335606.904 8   -261511.430 9  20760744.276    20760742.837
 92  8  4  0 10 45.0000000  0  6  3 23 20 26 21 17
  20517980.588      -20759.648 8    -16175.558 9  20518003.312    20518002.892
  21220886.156    -1530811.509 8  -1192838.457 9  21220905.103    21220904.863
  24700309.232    -2581347.351 5     78060.401 5  24700330.817    24700332.616
  22418831.396       66146.345 7     -7632.616 8  22418851.662    22418851.992
  24214042.837    -2786966.059 4  -2146636.355 5                  24214072.786
  20760384.405     -337392.591 8   -262902.875 9  20760404.221    20760403.172
 92  8  4  0 10 50.0000000  0  6  3 23 20 26 21 17
  20518095.348      -20167.996 8    -15714.524 9  20518115.794    20518115.704
  21219395.678    -1538642.129 8  -1198940.235 9  21219414.925    21219414.745
  24703685.644    -2563623.013 5     91871.548 5  24703703.182    24703706.720
  22418876.725       66374.039 7     -7455.180 8  22418895.312    22418894.952
  24211138.568    -2802282.951 4  -2158571.549 5                  24211158.624
  20760044.770     -339178.034 8   -264294.124 9  20760064.616    20760063.237
 92  8  4  0 10 55.0000000  0  6  3 23 20 26 21 17
  20518214.066      -19568.809 8    -15247.626 9  20518229.805    20518229.895
  21217905.410    -1546466.157 8  -1205036.872 9  21217926.125    21217925.826
  24707056.930    -2545906.723 5    105676.423 5  24707074.408    24707078.036
  22418917.766       66611.054 7     -7270.490 8  22418940.221    22418940.041
  24208224.465          -1.79914  -2170507.351 5  24208238.825    24208243.442
  20759708.523     -340963.282 9   -265685.224 9  20759724.862    20759723.842
 92  8  4  0 11  0.0000000  0  6  3 23 20 26 21 17
  20518325.259      -18962.148 8    -14774.903 9  20518345.285    20518344.985
  21216418.679    -1554283.711 8  -1211128.469 9  21216438.495    21216438.255
  24710430.075    -2528198.714 5    119474.823 5  24710444.106    24710447.913
  22418966.213       66857.245 7     -7078.643 9  22418987.408    22418987.048
  24205304.666       12254.46314  -2182443.996 5  24205324.662    24205329.699
  20759365.950     -342748.559 9   -267076.346 9  20759385.077    20759383.938
 92  8  4  0 11  5.0000000  0  6  3 23 20 26 21 17
  20518444.007      -18348.100 8    -14296.424 9  20518462.144    20518462.114
  21214932.488    -1562094.615 8  -1217214.877 9  21214952.334    21214951.914
  24713792.817    -2510498.950 5    133266.817 5  24713812.424    24713816.171
  22419017.567       67112.606 7     -6879.658 8  22419036.064    22419035.435
  24202402.585       -3065.274 4  -2194381.433 5  24202409.391    24202413.018
  20759029.073     -344533.567 8   -268467.262 9  20759045.352    20759044.513
 92  8  4  0 11 10.0000000  0  6  3 23 20 26 21 17
  20518555.200      -17726.301 8    -13811.903 9  20518580.532    20518580.113
  21213448.785    -1569898.554 8  -1223295.853 9  21213467.192    21213466.833
  24717164.463    -2492807.146 4    147052.595 5  24717179.842    24717182.121
  22419065.654       67377.106 7     -6673.552 8  22419086.699    22419085.500
  24199472.414      -18386.049 4  -2206319.638 5  24199493.429    24199498.016
  20758686.440     -346318.093 9   -269857.796 9  20758705.987    20758704.638
 92  8  4  0 11 15.0000000  0  6  3 23 20 26 21 17
  20518680.663      -17096.891 8    -13321.456 9  20518700.539    20518700.179
  21211960.255    -1577695.491 8  -1229371.385 9  21211983.340    21211982.890
  24720530.923    -2475123.458 4    160832.051 5  24720543.604    24720547.591
  22419120.876       67650.617 7     -6460.423 8  22419138.773    22419138.234
  24196570.243      -33708.035 4  -2218258.811 5  24196577.738    24196582.774
  20758343.268     -348102.372 9   -271248.144 9  20758366.412    20758365.273
 92  8  4  0 11 20.0000000  0  6  3 23 20 26 21 17
  20518796.833      -16459.794 8    -12825.015 9  20518821.685    20518821.475
  21210481.139    -1585485.285 8  -1235441.343 9  21210501.046    21210500.776
  24723891.236    -2457447.797 4    174605.246 5  24723907.965    24723912.522
  22419172.410       67933.452 7     -6240.025 8  22419192.256    22419191.687
  24193638.872      -49031.264 4  -2230198.951 5  24193662.886    24193667.353
  20758009.239     -349886.422 9   -272638.307 9  20758026.717    20758025.698
 92  8  4  0 11 25.0000000  0  6  3 23 20 26 21 17
  20518926.373      -15814.836 8    -12322.445 9  20518944.240    20518944.211
  21209001.094    -1593267.658 8  -1241505.528 9  21209020.071    21209019.741
  24727253.109    -2439779.942 4    188372.373 5  24727269.987    24727274.424
  22419224.993       68225.916 7     -6012.122 8  22419247.598    22419247.268
  24190726.419      -64355.418 4  -2242139.824 5  24190745.096    24190750.672
  20757667.566     -351669.991 9   -274028.101 9  20757687.502    20757686.603
 92  8  4  0 11 30.0000000  0  6  3 23 20 26 21 17
  20519045.211      -15162.251 8    -11813.942 9  20519068.474    20519068.205
  21207523.207    -1601042.955 8  -1247564.195 9  21207540.565    21207539.996
  24730613.572    -2422120.264 4    202133.123 5  24730629.402    24730634.408
  22419286.511       68527.489 7     -5777.124 8  22419305.008    22419304.708
  24187802.393      -79680.754 4  -2254081.603 5  24187828.835    24187834.920
  20757325.233     -353453.655 8   -275417.968 9  20757347.957    20757347.148
 92  8  4  0 11 35.0000000  0  6  3 23 20 26 21 17
  20519171.453      -14502.398 8    -11299.767 9  20519194.177    20519193.818
  21206044.121    -1608811.481 8  -1253617.580 9  21206062.319    21206061.629
  24733970.319    -2404469.158 4    215887.199 6  24733988.276    24733993.762
  22419345.600       68837.690 7     -5535.399 8  22419364.157    22419364.037
  24184893.896      -95007.598 4  -2266024.561 5  24184913.263    24184918.779
  20756989.345     -355237.816 8   -276808.218 9  20757008.622    20757007.633
 92  8  4  0 11 40.0000000  0  6  3 23 20 26 21 17
  20519304.411      -13834.812 8    -10779.573 9  20519321.050    20519320.870
  21204565.845    -1616572.747 8  -1259665.312 9  21204585.301    21204584.791
  24737328.654    -2386826.063 4    229635.018 5  24737345.952    24737351.768
  22419401.541       69156.785 7     -5286.756 8  22419424.865    22419424.595
  24181985.130     -110335.586 5  -2277968.390 5  24181997.691    24182001.049
  20756649.890     -357021.831 8   -278198.357 9  20756668.957    20756667.878
 92  8  4  0 11 45.0000000  0  6  3 23 20 26 21 17
  20519429.155      -13159.520 8    -10253.368 9  20519449.840    20519449.511
  21203089.577    -1624327.018 8  -1265707.595 9  21203109.753    21203108.973
  24740673.378    -2369191.173 4    243376.438 6  24740701.529    24740707.944
  22419468.155       69484.500 7     -5031.382 8  22419487.342    22419486.652
  24179056.877     -125664.906 5  -2289913.280 5  24179079.841    24179083.739
  20756308.936     -358805.753 9   -279588.420 9  20756329.592    20756328.573
 92  8  4  0 11 50.0000000  0  6  3 23 20 26 21 17
  20519559.055      -12476.907 8     -9721.468 9  20519579.621    20519579.231
  21201613.968    -1632074.646 8  -1271744.703 9  21201635.283    21201634.894
  24744035.041    -2351564.701 4    257111.322 6  24744056.536    24744061.693
  22419528.324       69820.527 7     -4769.530 8  22419550.718    22419550.808
  24176141.695     -140995.686 5  -2301859.313 5  24176162.771    24176165.439
  20755970.561     -360589.728 9   -280978.529 9  20755989.987    20755989.088
 92  8  4  0 11 55.0000000  0  6  3 23 20 26 21 17
  20519688.415      -11786.180 8     -9183.231 9  20519711.020    20519710.900
  21200139.829    -1639815.309 8  -1277776.383 9  21200162.583    21200161.983
  24747392.747    -2333946.049 4    270840.118 6  24747407.706    24747413.912
  22419598.235       70165.659 7     -4500.599 8  22419617.062    22419616.642
  24173226.963     -156327.070 5  -2313805.836 5  24173246.390    24173247.589
  20755632.754     -362373.233 9   -282368.266 9  20755650.562    20755649.603
 92  8  4  0 12  0.0000000  0  6  3 23 20 26 21 17
  20519823.772      -11087.668 8     -8638.940 9  20519843.948    20519843.828
  21198671.715    -1647549.359 8  -1283802.904 9  21198690.482    21198690.002
  24750731.985    -2316335.456 4    284562.606 6  24750760.045    24750765.352
  22419664.010       70519.616 7     -4224.779 8  22419684.036    22419683.976
  24170314.449     -171659.408 5  -2325753.068 6  24170328.150    24170330.009
  20755288.503     -364156.467 9   -283757.807 9  20755311.347    20755310.238
 92  8  4  0 12  5.0000000  0  6  3 23 20 26 21 17
  20519956.640      -10381.159 8     -8088.416 9  20519978.494    20519978.584
  21197200.334    -1655276.559 8  -1289824.090 9  21197220.240    21197219.940
  24754088.011    -2298732.711 4    298278.990 5  24754110.076    24754115.053
  22419729.934       70882.522 7     -3941.982 8  22419753.198    22419752.958
  24167387.456     -186992.470 5  -2337700.876 5  24167410.090    24167413.658
  20754948.088     -365939.201 9   -285146.944 9  20754972.162    20754971.053
 92  8  4  0 12 10.0000000  0  6  3 23 20 26 21 17
  20520090.197       -9666.923 8     -7531.868 9  20520114.360    20520114.091
  21195732.999    -1662997.308 8  -1295840.249 9  21195750.807    21195750.777
  24757435.794    -2281138.267 4    311988.933 6  24757456.989    24757462.146
  22419806.471       71253.990 7     -3652.523 8  22419823.649    22419823.739
  24164464.929     -202326.742 5  -2349649.623 6  24164491.641    24164495.598
  20754613.430     -367721.909 9   -286536.065 9  20754632.947    20754631.777
 92  8  4  0 12 15.0000000  0  6  3 23 20 26 21 17
  20520229.661       -8945.240 8     -6969.521 9  20520251.515    20520251.515
  21194263.237    -1670711.879 8  -1301851.596 9  21194282.663    21194282.544
  24760781.268    -2263552.250 4    325692.287 5  24760805.251    24760809.388
  22419875.153       71633.694 7     -3356.646 8  22419896.319    22419896.109
  24161555.263     -217662.449 5  -2361599.495 6  24161574.150    24161577.118
  20754272.296     -369505.034 9   -287925.506 9  20754293.701    20754292.292
 92  8  4  0 12 20.0000000  0  6  3 23 20 26 21 17
  20520369.124       -8216.115 8     -6401.373 9  20520390.499    20520390.080
  21192796.053    -1678420.368 8  -1307858.208 9  21192816.139    21192815.659
  24764128.750    -2245974.720 4    339389.033 5  24764149.256    24764154.742
  22419951.810       72021.491 7     -3054.461 8  22419970.098    22419969.708
  24158633.546     -232999.715 5  -2373550.564 6  24158654.322    24158658.938
  20753936.289     -371288.438 9   -289315.175 9  20753954.276    20753953.197
 92  8  4  0 12 25.0000000  0  6  3 23 20 26 21 17
  20520507.658       -7479.064 8     -5827.042 9  20520530.562    20520530.622
  21191330.127    -1686122.597 8  -1313859.931 9  21191350.603    21191349.614
  24767473.475    -2228405.284 4    353079.490 5  24767492.182    24767497.488
  22420024.540       72417.686 7     -2745.731 8  22420045.855    22420045.136
  24155720.223     -248338.500 5  -2385502.847 6  24155735.902    24155739.649
  20753595.575     -373071.426 9   -290704.515 9  20753614.851    20753613.592
 92  8  4  0 12 30.0000000  0  6  3 23 20 26 21 17
  20520652.248       -6734.244 8     -5246.666 9  20520672.154    20520672.274
  21189862.613    -1693818.796 8  -1319856.971 9  21189885.817    21189885.398
  24770808.966    -2210844.039 4    366763.535 6  24770835.887    24770839.724
  22420099.698       72822.266 7     -2430.463 9  22420122.722    22420122.092
  24152794.189     -263679.048 5  -2397456.490 6  24152816.433    24152820.540
  20753254.801     -374853.707 9   -292093.298 9  20753275.696    20753274.677
 92  8  4  0 12 35.0000000  0  6  3 23 20 26 21 17
  20520793.330       -5981.637 8     -4660.220 9  20520815.305    20520815.125
  21188401.065    -1701509.066 8  -1325849.380 9  21188422.410    21188421.961
  24774149.673    -2193291.067 4                                  24774174.016
  22420182.531       73235.352 7     -2108.575 8  22420200.938    22420200.878
  24149877.358     -279021.269 5  -2409411.428 6  24149897.474    24149900.352
  20752916.335     -376635.300 9   -293481.550 9  20752936.811    20752935.582
 92  8  4  0 12 40.0000000  0  6  3 23 20 26 21 17
  20520940.469       -5221.053 8     -4067.563 9  20520960.495    20520960.105
  21186939.547    -1709193.417 8  -1331837.181 9  21186959.993    21186959.783
  24777491.250    -2175746.169 4   -630434.55416  24777513.195    24777518.891
  22420256.100       73657.331 7     -1779.747 8  22420281.042    22420281.102
  24146955.371     -294364.828 5  -2421367.434 6  24146977.196    24146980.763
  20752578.019     -378415.955 9   -294869.074 9  20752597.746    20752596.636
 92  8  4  0 12 45.0000000  0  6  3 23 20 26 21 17
  20521086.977       -4452.502 8     -3468.693 9  20521106.584    20521106.314
  21185481.896    -1716871.887 8  -1337820.395 9  21185498.684    21185498.205
  24780823.593    -2158209.285 4   -616769.460 6  24780851.354    24780856.000
  22420345.228       74088.265 7     -1443.954 8  22420363.186    22420362.856
  24144036.291     -309709.307 5  -2433324.133 6  24144057.817    24144060.575
  20752239.104     -380195.431 9   -296255.678 9  20752259.190    20752258.081
 92  8  4  0 12 50.0000000  0  6  3 23 20 26 21 17
  20521235.135       -3676.078 8     -2863.686 9  20521254.141    20521254.201
  21184018.009    -1724544.768 8  -1343799.261 9  21184038.695    21184038.365
  24784159.413    -2140680.646 4   -603110.816 6  24784186.994    24784192.031
  22420424.523       74527.867 7     -1101.399 8  22420446.918    22420446.738
  24141119.611     -325054.764 5  -2445281.611 6  24141137.178    24141140.206
  20751900.458     -381973.976 8   -297641.553 9  20751920.664    20751919.765
 92  8  4  0 12 55.0000000  0  6  3 23 20 26 21 17
  20521381.253       -2891.890 8     -2252.633 9  20521403.408    20521403.348
  21182558.350    -1732212.164 8  -1349773.842 9  21182579.725    21182579.605
  24787503.628    -2123160.356 4   -589458.657 6  24787520.327    24787526.023
  22420511.583       74976.016 7      -752.185 8  22420532.239    22420531.729
  24138199.992     -340401.187 5  -2457239.844 6  24138217.260    24138220.018
  20751563.402     -383751.644 8   -299026.743 9  20751582.348    20751581.659
 92  8  4  0 13  0.0000000  0  6  3 23 20 26 21 17
  20521535.227       -2099.991 8     -1635.563 9  20521554.054    20521554.114
  21181102.918    -1739873.913 8  -1355744.035 9  21181121.745    21181121.355
  24790835.552    -2105648.414 4   -575813.020 6  24790852.730    24790858.696
  22420600.891       75433.041 7      -396.063 8  22420618.998    22420618.699
  24135270.720     -355748.622 5  -2469198.852 6  24135296.262    24135299.350
  20751224.067     -385528.586 9   -300411.377 9  20751244.392    20751243.283
 92  8  4  0 13  5.0000000  0  6  3 23 20 26 21 17
  20521682.185       -1300.186 8     -1012.337 9  20521706.318    20521706.198
  21179646.136    -1747529.846 8  -1361709.685 9  21179664.573    21179664.513
  24794172.991    -2088144.650 4   -562173.777 6  24794182.525    24794188.820
  22420687.801       75899.452 7       -32.612 9  22420707.647    22420707.737
  24132358.296     -371097.181 5  -2481158.740 6  24132375.624    24132378.682
  20750885.031     -387304.835 9   -301795.469 9  20750906.287    20750905.297
 92  8  4  0 13 10.0000000  0  6  3 23 20 26 21 17
  20521839.066        -492.845 8      -383.236 9  20521859.962    20521859.722
  21178186.746    -1755180.567 8  -1367671.283 9  21178208.511    21178208.571
  24797491.364    -2070649.572 3   -548541.265 6  24797511.810    24797518.225
  22420775.940       76374.845 7       337.832 8  22420798.244    22420798.244
  24129435.320     -386447.294 5  -2493119.844 6  24129454.956    24129458.104
  20750544.407     -389080.778 9   -303179.311 9  20750568.181    20750567.221
 92  8  4  0 13 15.0000000  0  6  3 23 20 26 21 17
  20521996.577         322.613 8       252.178 9  20522015.135    20522015.254
  21176733.982    -1762825.533 8  -1373628.389 9  21176753.888    21176753.649
  24800837.408    -2053162.595 4   -534915.090 6  24800840.196    24800846.341
  22420868.875       76859.939 7       715.837 8  22420890.251    22420890.461
  24126518.009     -401798.213 5  -2505081.586 6  24126533.568    24126536.476
  20750210.168     -390856.042 9   -304562.629 9  20750230.255    20750229.475
 92  8  4  0 13 20.0000000  0  6  3 23 20 26 21 17
  20522150.761        1146.292 8       894.011 9  20522171.926    20522171.716
  21175276.721    -1770464.640 8  -1379580.968 9  21175300.375    21175300.045
  24804150.264    -2035683.556 4   -521295.100 6  24804165.973    24804172.838
  22420964.030       77355.054 7      1101.641 9  22420984.595    22420984.236
  24123595.123     -417149.750 5  -2517043.794 6  24123612.151    24123614.879
  20749872.302     -392630.515 9   -305945.336 9  20749892.778    20749891.789
 92  8  4  0 13 25.0000000  0  6  3 23 20 26 21 17
  20522307.882        1978.150 8      1542.209 9  20522330.067    20522330.216
  21173825.336    -1778098.181 8  -1385529.143 9  21173847.251    21173847.161
  24807472.894    -2018212.606 4   -507681.412 7  24807489.592    24807497.357
  22421062.122       77860.125 7      1495.215 8  22421080.409    22421080.529
  24120664.292     -432502.082 5  -2529006.625 6  24120690.793    24120693.641
  20749538.124     -394404.658 9   -307327.782 9  20749555.152    20749554.282
 92  8  4  0 13 30.0000000  0  6  3 23 20 26 21 17
  20522470.429        2817.811 8      2196.490 9  20522489.916    20522489.646
  21172374.190    -1785726.522 8  -1391473.297 9  21172395.805    21172395.805
  24810794.414    -2000750.045 4   -494074.240 7  24810813.092    24810820.466
  22421160.424       78375.136 7      1896.529 8  22421178.861    22421178.531
  24117747.341     -447855.452 5  -2540970.272 6  24117769.316    24117772.344
  20749197.170     -396178.937 9   -308710.336 9  20749217.316    20749216.686
 92  8  4  0 13 35.0000000  0  6  3 23 20 26 21 17
  20522631.328        3665.584 8      2857.095 9  20522651.174    20522651.114
  21170927.572    -1793349.529 8  -1397413.293 9  21170945.080    21170944.990
  24814118.573    -1983295.619 4   -480473.425 7  24814135.122    24814141.807
  22421256.957       78900.254 7      2305.716 8  22421278.692    22421278.242
  24114825.144     -463209.481 5  -2552934.424 6  24114847.478    24114850.446
  20748859.543     -397953.209 9   -310092.887 9  20748879.689    20748878.910
 92  8  4  0 13 40.0000000  0  6  3 23 20 26 21 17
  20522790.398        4521.377 8      3523.945 9  20522813.932    20522813.962
  21169476.366    -1800967.438 8  -1403349.320 9  21169495.613    21169495.433
  24817429.031    -1965849.427 4   -466879.024 7  24817454.784    24817461.769
  22421361.854       79435.432 7      2722.747 8  22421380.621    22421379.872
  24111906.874     -478564.015 5  -2564898.984 6  24111925.251    24111928.849
  20748523.146     -399727.643 9   -311475.558 9  20748542.063    20748541.284
 92  8  4  0 13 45.0000000  0  6  3 23 20 26 21 17
  20522956.783        5385.502 8      4197.288 9  20522978.458    20522978.308
  21168027.020    -1808580.127 8  -1409281.279 9  21168046.956    21168046.956
  24820750.882    -1948411.236 3   -453290.870 7  24820772.167    24820779.962
  22421465.702       79980.700 7      3147.651 8  22421484.259    22421484.050
  24108990.763     -493918.757 5  -2576863.689 7  24109003.444    24109006.352
  20748188.158     -401501.941 9   -312858.124 9  20748204.617    20748203.628
 92  8  4  0 13 50.0000000  0  6  3 23 20 26 21 17
  20523124.007        6257.998 8      4877.156 9  20523144.393    20523144.093
  21166577.194    -1816187.447 8  -1415209.052 9  21166599.318    21166599.018
  24824063.438    -1930980.985 3   -439708.894 7  24824088.291    24824097.075
  22421572.338       80536.330 7      3580.608 8  22421590.206    22421589.487
  24106064.879     -509273.617 5  -2588828.487 7  24106081.127    24106084.845
  20747847.804     -403276.111 9   -314240.591 9  20747866.811    20747866.091
 92  8  4  0 13 55.0000000  0  6  3 23 20 26 21 17
  20523289.672        7138.425 8      5563.205 9  20523312.037    20523311.587
  21165134.412    -1823789.954 8  -1421133.078 9  21165152.640    21165152.160
  24827384.419    -1088916.11213   -426133.470 7  24827404.895    24827412.690
  22421675.077       81101.833 7      4021.259 8  22421697.922    22421697.502
  24103141.063     -524629.203 5  -2600793.854 7  24103159.320    24103162.678
  20747509.518     -405050.555 9   -315623.273 9  20747529.304    20747528.495
 92  8  4  0 14  0.0000000  0  6  3 23 20 26 21 17
  20523460.284        8026.519 8      6255.225 9  20523481.090    20523480.820
  21163685.545    -1831388.014 8  -1427053.633 9  21163706.741    21163706.501
  24830710.317    -1071502.966 4   -412564.813 7  24830717.722    24830726.206
  22421787.080       81677.031 7      4469.481 8  22421807.436    22421806.716
  24100220.634     -539985.848 6  -2612760.036 7  24100236.553    24100240.421
  20747170.843     -406825.481 9   -317006.329 9  20747191.348    20747190.689
 92  8  4  0 14  5.0000000  0  6  3 23 20 26 21 17
  20523631.046        8922.843 8      6953.660 9  20523651.642    20523651.372
  21162240.246    -1838980.956 8  -1432970.210 9  21162261.951    21162261.441
  24834013.850    -1054097.902 3   -399002.484 7  24834030.788    24834038.433
  22421895.695       82262.793 7      4925.928 8  22421918.689    22421917.999
  24097290.283     -555342.709 6  -2624726.410 7  24097314.536    24097318.374
  20746833.186     -408600.323 9   -318389.321 9  20746853.602    20746852.853
 92  8  4  0 14 10.0000000  0  6  3 23 20 26 21 17
  20523801.778        9827.424 8      7658.529 9  20523823.752    20523823.932
  21160794.437    -1846568.730 8  -1438882.749 9  21160817.881    21160817.491
  24837317.383    -1036701.025 3   -385446.523 7  24837342.685    24837348.561
  22422010.095       82858.933 7      5390.465 8  22422032.220    22422031.770
  24094370.275     -570699.988 5  -2636693.095 7  24094392.879    24094396.087
  20746495.200     -410375.294 9   -319772.411 9  20746515.826    20746514.927
 92  8  4  0 14 15.0000000  0  6  3 23 20 26 21 17
  20523973.679       10739.977 8      8369.605 9  20523997.512    20523997.302
  21159354.504    -1854151.347 8  -1444791.275 9  21159375.219    21159374.440
  24840627.362    -1019312.580 3   -371897.129 7  24840649.306    24840657.011
  22422130.312       83465.244 7      5862.913 8  22422147.370    22422147.250
  24091448.557     -586057.998 5  -2648660.342 7  24091469.423    24091473.290
  20746156.824     -412150.611 9   -321155.774 9  20746178.200    20746177.180
 92  8  4  0 14 20.0000000  0  6  3 23 20 26 21 17
  20524152.145       11661.037 8      9087.319 9  20524172.561    20524172.531
  21157914.421    -1861728.212 8  -1450695.319 9  21157933.308    21157932.828
  24843933.473    -1001932.057 3   -358353.906 7  24843957.606    24843964.951
  22422242.734       84082.040 7      6343.544 8  22422264.919    22422264.649
  24088527.589     -601416.329 6  -2660627.839 7  24088547.016    24088550.464
  20745821.597     -413925.653 9   -322538.919 9  20745840.394    20745839.614
 92  8  4  0 14 25.0000000  0  6  3 23 20 26 21 17
  20524327.734       12590.248 8      9811.379 9  20524349.528    20524349.289
  21156473.618    -1869299.573 8  -1456595.071 9  21156492.685    21156491.935
  24847243.032     4127582.216 4   -344817.193 7                  24847271.032
  22422363.371       84709.053 7      6832.135 8  22422384.386    22422383.997
  24085609.260     -616775.108 5  -2672595.691 7  24085624.429    24085628.536
  20745482.142     -415700.858 9   -323922.194 9  20745502.917    20745501.838
 92  8  4  0 14 30.0000000  0  6  3 23 20 26 21 17
  20524509.708       13527.557 8     10541.748 9  20524527.695    20524527.665
  21155030.387    -1876865.587 8  -1462490.667 9  21155053.022    21155052.182
  24850546.625     -106103.05213   -331286.975 7  24850569.319    24850574.685
  22422482.868       85346.387 7      7328.764 8  22422505.682    22422505.323
  24082683.045     -632134.343 5  -2684563.896 7  24082701.603    24082705.260
  20745147.064     -417476.345 8   -325305.688 9  20745164.871    20745164.062
 92  8  4  0 14 35.0000000  0  6  3 23 20 26 21 17
  20524687.395       14473.332 8     11278.713 9  20524707.990    20524707.750
  21153595.011    -1884426.213 8  -1468382.052 9  21153614.407    21153613.448
  24853850.577     4162301.854 3   -317763.027 7                  24853877.199
  22422611.509       85994.378 7      7833.699 8  22422628.867    22422628.567
  24079761.898     -647493.583 5  -2696532.110 7  24079778.836    24079782.463
  20744807.399     -419251.641 9   -326689.031 9  20744826.915    20744826.106
 92  8  4  0 14 40.0000000  0  6  3 23 20 26 21 17
  20524867.720       15427.700 8     12022.374 9  20524889.485    20524889.185
  21152158.106    -1891981.308 8  -1474269.132 9  21152176.393    21152175.883
  24857153.151     4179649.817 3   -304245.198 7                  24857179.023
  22422736.193       86653.213 7      8347.085 8  22422754.300    22422753.701
  24076838.921     -662852.628 5  -2708500.172 7  24076856.189    24076859.877
  20744471.661     -421026.432 8   -328071.985 9  20744489.259    20744488.150
 92  8  4  0 14 45.0000000  0  6  3 23 20 26 21 17
  20525051.672       16390.840 8     12772.874 9  20525072.688    20525072.868
  21150720.481    -1899530.725 8  -1480151.785 9  21150739.937    21150739.458
  24860461.331        1728.90913   -290733.387 6  24860472.153    24860478.029
  22422859.048       87323.126 7      8869.101 8  22422881.592    22422881.112
  24073914.716     -678211.237 5  -2720467.884 7  24073932.973    24073937.020
  20744130.827     -422800.807 9   -329454.614 9  20744151.513    20744150.583
 92  8  4  0 14 50.0000000  0  6  3 23 20 26 21 17
  20525236.554       17362.139 8     13529.736 9  20525257.480    20525257.390
  21149282.287    -1907075.086 8  -1486030.503 9  21149304.381    21149303.482
  24863749.364       -5205.25713   -277228.100 6  24863771.999    24863776.616
  22422990.567       88003.454 7      9399.233 9  22423011.162    22423010.713
  24070988.561     -693569.679 5  -2732435.461 7  24071010.986    24071014.344
  20743792.421     -424575.722 8   -330837.657 9  20743813.767    20743812.567
 92  8  4  0 14 55.0000000  0  6  3 23 20 26 21 17
  20525425.723       18341.839 8     14293.135 9  20525443.741    20525443.651
  21147847.540    -1914614.238 8  -1491905.164 9  21147869.634    21147869.185
  24867041.835     4231645.481 3   -263729.214 6                  24867073.973
  22423119.328       88694.193 7      9937.479 8  22423142.531    22423141.932
  24068062.437     -708927.745 5  -2744402.763 7  24068087.979    24068092.386
  20743458.063     -426351.384 8   -332221.290 9  20743475.721    20743475.031
 92  8  4  0 15  0.0000000  0  6  3 23 20 26 21 17
  20525607.937       19329.322 8     15062.602 9  20525631.771    20525631.741
  21146417.020    -1922148.772 8  -1497776.218 9  21146435.637    21146435.457
  24870349.206     4248960.303 3   -250237.176 6                  24870368.302
  22423258.011       89394.617 7     10483.304 9  22423275.669    22423275.250
  24065143.658     -724286.270 5  -2756370.421 7  24065165.962    24065169.410
  20743117.469     -428128.163 8   -333605.785 9  20743137.705    20743136.865
 92  8  4  0 15  5.0000000  0  6  3 23 20 26 21 17
  20525803.162       20325.341 8     15838.725 9  20525821.270    20525821.270
  21144982.034    -1929678.075 8  -1503643.207 9  21145002.959    21145002.509
  24873634.421     4266267.042 3   -236751.466 7                  24873662.032
  22423394.327       90105.315 7     11037.077 8  22423410.606    22423410.636
  24062222.090     -739644.809 5  -2768338.077 7  24062242.386    24062246.703
  20742780.682     -429905.344 8   -334990.606 9  20742799.449    20742798.699
 92  8  4  0 15 10.0000000  0  6  3 23 20 26 21 17
  20525993.171       21329.846 8     16621.457 9  20526012.537    20526012.147
  21143552.593    -1937202.233 8  -1509506.177 9  21143571.060    21143570.731
  24876923.474     4283565.701 3   -223272.060 6                  24876953.513
  22423528.814       90826.448 7     11599.005 8  22423548.061    22423547.521
  24059304.150     -755003.615 5  -2780305.953 7  24059320.849    24059323.877
  20742441.706     -431683.034 8   -336375.816 9  20742461.073    20742460.354
 92  8  4  0 15 15.0000000  0  6  3 23 20 26 21 17
  20526186.567       22342.635 8     17410.637 9  20526205.184    20526205.094
  21142122.673    -1944721.434 8  -1515365.287 9  21142140.241    21142139.701
  24880221.221     4300855.963 3   -209799.156 7                  24880243.436
  22423669.117       91557.739 7     12168.850 8  22423687.374    22423686.925
  24056379.765     -770363.140 5  -2792274.391 7  24056397.213    24056400.780
  20742101.772     -433461.569 8   -337761.682 9  20742122.667    20742121.528
 92  8  4  0 15 20.0000000  0  6  3 23 20 26 21 17
  20526378.014       23363.480 8     18206.109 9  20526399.389    20526399.030
  21140695.031    -1952235.876 8  -1521220.687 9  21140710.261    21140709.751
  24883512.853     4318137.666 3   -196332.936 6                  24883532.489
  22423806.872       92298.883 7     12746.370 8  22423828.517    22423827.677
  24053457.628     -785723.624 5  -2804243.567 7  24053473.847    24053477.684
  20741765.405     -435241.095 8   -339148.322 9  20741784.202    20741783.242
 92  8  4  0 15 25.0000000  0  6  3 23 20 26 21 17
  20526576.986       24392.889 8     19008.242 9  20526595.484    20526595.094
  21139263.313    -1959745.149 8  -1527072.064 9  21139281.450    21139280.700
  24886794.591     4335411.297 3   -182873.008 6                  24886818.574
  22423951.761       93050.229 7     13331.849 8  22423971.488    22423970.828
  24050538.579     -801084.458 5  -2816213.027 7  24050551.650    24050555.487
  20741430.956     -437020.909 8   -340535.190 9  20741445.436    20741444.597
 92  8  4  0 15 30.0000000  0  6  3 23 20 26 21 17
  20526768.374       25431.160 8     19817.287 9  20526793.107    20526792.507
  21137833.332    -1967248.994 8  -1532919.207 9  21137853.598    21137852.759
  24890081.755     4352677.065 3   -169419.187 6                  24890104.119
  22424101.538       93811.845 7     13925.317 8  22424116.227    22424115.538
  24047608.887     -816445.488 5  -2828182.630 7  24047628.313    24047631.611
  20741089.043     -438800.552 8   -341921.919 9  20741106.821    20741105.951
 92  8  4  0 15 35.0000000  0  6  3 23 20 26 21 17
  20526972.982       26478.204 8     20633.169 9  20526992.469    20526992.049
  21136407.550    -1974747.346 8  -1538762.073 9  21136426.736    21136425.567
  24893368.170     4369934.901 4   -155971.554 6                  24893388.736
  22424242.140       94583.688 7     14526.764 8  22424263.186    22424262.706
  24044685.790     -831806.917 5  -2840152.547 7  24044705.637    24044708.515
  20740747.969     -440579.975 8   -343308.479 9  20740768.145    20740767.156
 92  8  4  0 15 40.0000000  0  5  3 23 26 21 17
  20527173.034       27533.716 8     21455.638 9  20527193.120    20527192.850
  21134981.827    -1982240.401 8  -1544600.812 9  21135000.713    21135000.174
  22424391.527       95365.218 7     15135.757 8  22424411.883    22424410.953
  24041764.103     -847169.208 5  -2852123.141 7  24041782.900    24041785.328
  20740406.715     -442359.330 8   -344694.992 9  20740429.559    20740428.540
 92  8  4  0 15 45.0000000  0  5  3 23 26 21 17
  20527378.631       28598.128 8     22285.052 9  20527395.810    20527395.330
  21133555.774    -1989727.455 8  -1550434.867 9  21133575.830    21133575.470
  22424541.813       96156.903 7     15752.660 8  22424562.708    22424561.749
  24038840.587     -862531.806 5  -2864093.975 7  24038858.545    24038862.442
  20740070.558     -444137.869 8   -346080.862 9  20740091.214    20740090.014
 92  8  4  0 15 50.0000000  0  5  3 23 26 21 17
  20527579.343       29671.051 8     23121.095 9  20527599.758    20527599.549
  21132133.708    -1997208.914 8  -1556264.567 9  21132152.355    21132151.606
  22424695.097       96958.148 7     16377.021 8  22424714.853    22424714.343
  24035914.732     -877895.044 5  -2876065.286 7  24035935.028    24035938.566
  20739733.291     -445915.825 8   -347466.275 9  20739752.388    20739751.759
 92  8  4  0 15 55.0000000  0  5  3 23 26 21 17
  20527785.270       30752.925 8     23964.113 9  20527805.806    20527805.626
  21130712.212    -2004684.039 8  -1562089.332 9  21130729.840    21130729.121
  22424850.479       97769.500 7     17009.247 8  22424869.306    22424868.646
  24032990.647     -893258.208 5  -2888036.567 7  24033012.022    24033015.260
  20739397.554     -447692.367 8   -348850.595 9  20739414.642    20739413.833
 92  8  4  0 16  0.0000000  0  5  3 23 26 21 17
  20527992.666       31843.534 8     24813.940 9  20528013.532    20528013.202
  21129287.449    -2012153.059 8  -1567909.338 9  21129308.254    21129307.865
  22425010.478       98590.841 7     17649.261 8  22425025.498    22425025.108
  24030066.591     -908621.630 5  -2900008.041 7  24030088.326    24030091.894
  20739061.906     -449467.719 8   -350233.980 9  20739076.926    20739075.907
 92  8  4  0 16  5.0000000  0  5  3 23 26 21 17
  20528200.333       32942.790 8     25670.499 9  20528222.547    20528222.008
  21127867.752    -2019616.060 8  -1573724.658 9  21127888.287    21127887.628
  22425162.023       99422.043 7     18296.952 8  22425184.178    22425182.979
  24027145.683     -923985.627 5  -2911979.950 7  24027164.960    24027167.358
  20738722.631     -451241.691 8   -351616.293 9  20738739.509    20738738.430
 92  8  4  0 16 10.0000000  0  5  3 23 26 21 17
  20528415.254       34050.554 8     26533.698 9  20528433.571    20528432.912
  21126448.774    -2027073.312 8  -1579535.495 9  21126469.310    21126468.830
  22425326.130      100262.901 7     18952.177 8  22425343.907    22425343.188
  24024217.970     -939350.493 5  -2923952.547 7  24024241.144    24024243.512
  20738381.917     -453014.389 8   -352997.612 9  20738401.823    20738401.074
 92  8  4  0 16 15.0000000  0  5  3 23 26 21 17
  20528624.539       35167.090 8     27403.730 9  20528645.944    20528645.405
  21125032.195    -2034524.540 8  -1585341.640 9  21125051.201    21125050.782
  22425488.737      101113.569 7     19615.039 8  22425505.855    22425504.746
  24021298.741     -954715.811 5  -2935925.492 7  24021317.538    24021319.606
  20738046.749     -454785.385 8   -354377.605 9  20738065.096    20738063.897
 92  8  4  0 16 20.0000000  0  5  3 23 26 21 17
  20528842.938       36292.273 8     28280.493 9  20528860.086    20528859.636
  21123613.816    -2041969.778 8  -1591143.118 9  21123634.412    21123633.753
  22425645.679      101973.798 7     20285.357 8  22425669.032    22425668.733
  24018370.848     -970081.578 5  -2947898.788 7  24018393.152    24018395.701
  20737708.073     -456554.775 8   -355756.350 9  20737728.399    20737727.140
 92  8  4  0 16 25.0000000  0  5  3 23 26 21 17
  20529057.349       37426.425 8     29164.246 9  20529075.817    20529075.487
  21122201.074    -2049408.804 8  -1596939.751 9  21122218.792    21122218.313
  22425815.151      102843.721 7     20963.217 8  22425834.788    22425834.548
  24015447.901     -985447.474 5  -2959872.176 7  24015468.377    24015471.675
  20737370.987     -458322.337 8   -357133.666 9  20737392.062    20737390.893
 92  8  4  0 16 30.0000000  0  5  3 23 26 21 17
  20529274.399       38569.388 8     30054.870 9  20529293.196    20529292.986
  21120785.694    -2056841.783 8  -1602731.671 9  21120804.431    21120803.622
  22425982.735      103723.294 7     21648.618 8  22426001.832    22426001.592
  24012522.497    -1000813.713 5  -2971845.840 7  24012544.771    24012547.409
  20737037.827     -460088.298 8   -358509.736 9  20737055.995    20737054.826
 92  8  4  0 16 35.0000000  0  5  3 23 26 21 17
  20529489.200       39721.542 8     30952.657 9  20529512.494    20529512.164
  21119368.875    -2064268.369 8  -1608518.617 9  21119391.300    21119390.370
  22426151.638      104613.071 7     22341.953 8  22426171.425    22426171.155
  24009602.518    -1016179.706 5  -2983819.311 7  24009620.206    24009623.084
  20736702.899     -461852.208 8   -359884.212 9  20736720.407    20736719.118
 92  8  4  0 16 40.0000000  0  5  3 23 26 21 17
  20529709.908       40882.537 8     31857.325 9  20529733.621    20529733.291
  21117961.679    -2071689.055 8  -1614300.965 9  21117979.037    21117978.408
  22426320.691      105512.840 7     23043.074 8  22426342.696    22426342.306
  24006677.263    -1031545.824 5  -2995792.866 7  24006696.510    24006699.208
  20736367.611     -463614.497 9   -361257.420 9  20736384.999    20736383.770
 92  8  4  0 16 45.0000000  0  5  3 23 26 21 17
  20529936.611       42052.835 8     32769.242 9  20529956.037    20529955.887
  21116547.318    -2079103.511 8  -1620078.457 9  21116568.214    21116567.435
  22426494.091      106422.948 7     23752.255 8  22426515.736    22426514.957
  24003751.169    -1046911.679 5  -3007766.236 7  24003772.454    24003775.722
  20736032.893     -465374.936 9   -362629.189 9  20736049.891    20736048.782
 92  8  4  0 16 50.0000000  0  5  3 23 26 21 17
  20530159.296       43231.990 8     33688.069 9  20530180.432    20530180.342
  21115136.705    -2086512.215 8  -1625851.464 9  21115158.320    21115157.720
  22426671.538      107342.764 7     24469.012 8  22426690.785    22426689.976
  24000829.242    -1062277.856 5  -3019739.845 7  24000848.788    24000851.516
  20735696.826     -467134.166 9   -364000.008 9  20735715.323    20735714.004
 92  8  4  0 16 55.0000000  0  5  3 23 26 21 17
  20530386.719       44420.077 8     34613.853 9  20530406.565    20530406.056
  21113731.488    -2093914.647 8  -1631619.586 9  21113749.475    21113748.876
  22426847.606      108272.452 7     25193.439 8  22426867.872    22426867.453
  23997900.569    -1077644.119 5  -3031713.527 7  23997924.163    23997927.221
  20735360.249     -468891.938 9   -365369.703 9  20735380.725    20735379.406
 92  8  4  0 17  0.0000000  0  5  3 23 26 21 17
  20530612.553       45617.033 8     35546.545 9  20530634.318    20530634.168
  21112321.564    -2101310.810 8  -1637382.817 9  21112342.130    21112341.620
  22427028.022      109211.723 7     25925.347 8  22427046.729    22427046.009
  23994977.353    -1093010.766 6  -3043687.502 7  23994999.987    23995002.505
  20735027.779     -470648.525 9   -366738.465 9  20735046.516    20735045.197
 92  8  4  0 17  5.0000000  0  5  3 23 26 21 17
  20530844.112       46822.841 8     36486.139 9  20530863.899    20530863.479
  21110914.428    -2108700.456 8  -1643140.978 9  21110935.893    21110935.444
  22427207.327      110160.751 7     26664.855 8  22427226.964    22427226.424
  23992053.507    -1108377.703 5  -3055661.706 7  23992075.722    23992078.210
  20734692.191     -472403.903 9   -368106.292 9  20734712.397    20734711.258
 92  8  4  0 17 10.0000000  0  5  3 23 26 21 17
  20531077.081       48037.584 8     37432.686 9  20531095.129    20531094.769
  21109512.389    -2116083.633 8  -1648894.093 9  21109531.126    21109530.436
  22427390.351      111119.478 7     27411.916 8  22427409.537    22427409.088
  23989135.897    -1123745.021 5  -3067636.214 7  23989151.396    23989154.094
  20734356.634     -474158.117 9   -369473.211 9  20734378.488    20734377.349
 92  8  4  0 17 15.0000000  0  5  3 23 26 21 17
  20531309.780       49261.427 8     38386.330 9  20531327.887    20531327.438
  21108107.831    -2123460.049 8  -1654641.947 9  21108127.288    21108126.538
  22427569.657      112088.309 7     28166.854 8  22427594.150    22427592.651
  23986206.865    -1139112.671 5  -3079610.977 6  23986226.681    23986229.889
  20734025.903     -475910.909 9   -370839.014 9  20734044.939    20734043.860
 92  8  4  0 17 20.0000000  0  5  3 23 26 21 17
  20531546.376       50494.213 8     39346.948 9  20531562.505    20531562.115
  21106703.153    -2130829.569 8  -1660384.421 9  21106724.768    21106724.289
  22427758.346      113067.291 7     28929.706 8  22427780.201    22427779.361
  23983276.393    -1154480.680 5  -3091586.008 6  23983301.966    23983304.514
  20733694.452     -477662.117 8   -372203.599 9  20733711.690    20733710.401
 92  8  4  0 17 25.0000000  0  5  3 23 26 21 17
  20531779.255       51735.675 8     40314.319 9  20531798.771    20531798.022
  21105304.442    -2138192.221 8  -1666121.546 9  21105323.868    21105323.389
  22427949.404      114056.166 7     29700.265 8  22427968.500    22427967.541
  23980359.263    -1169849.022 5  -3103561.305 6  23980377.400    23980380.608
  20733358.774     -479412.181 9   -373567.278 9  20733378.831    20733377.601
 92  8  4  0 17 30.0000000  0  5  3 23 26 21 17
  20532014.112       52985.989 8     41288.588 9  20532036.477    20532036.657
  21103903.542    -2145547.706 8  -1671853.085 9  21103924.047    21103923.328
  22428140.551      115054.885 7     30478.494 8  22428158.239    22428157.759
  23977428.851    -1185217.518 5  -3115536.723 6  23977452.955    23977455.563
  20733027.084     -481161.223 9   -374930.162 9  20733045.881    20733044.502
 92  8  4  0 17 35.0000000  0  5  3 23 26 21 17
  20532254.786       54245.126 8     42269.738 9  20532276.041    20532275.921
  21102504.470    -2152895.834 8  -1677578.890 9  21102525.576    21102525.126
  22428332.958      116063.288 7     31264.270 8  22428350.226    22428349.597
  23974513.400    -1200585.817 5  -3127511.980 6  23974527.850    23974531.297
  20732693.655     -482909.046 9   -376292.102 9  20732713.141    20732711.942
 92  8  4  0 17 40.0000000  0  5  3 23 26 21 17
  20532496.808       55513.359 8     43257.974 9  20532517.434    20532517.404
  21101110.495    -2160236.622 8  -1683298.978 9  21101128.693    21101128.153
  22428523.326      117081.527 7     32057.705 8  22428544.372    22428543.113
  23971589.584    -1215953.692 5  -3139486.927 6  23971603.914    23971607.242
  20732359.027     -484655.362 9   -377652.862 9  20732380.702    20732379.712
 92  8  4  0 17 45.0000000  0  5  3 23 26 21 17
  20532741.079       56790.885 8     44253.441 9  20532760.326    20532760.626
  21099710.374    -2167569.947 8  -1689013.252 9  21099733.219    21099732.619
  22428714.924      118110.076 7     32859.190 8  22428739.777    22428738.757
  23968657.194    -1231320.989 5  -3151461.405 6  23968679.229    23968682.167
  20732031.773     -486400.013 9   -379012.328 9  20732048.921    20732047.692
 92  8  4  0 17 50.0000000  0  5  3 23 26 21 17
  20532986.100       58077.639 8     45256.115 9  20533005.586    20533005.166
  21098319.577    -2174895.957 8  -1694721.820 9  21098339.304    21098338.164
  22428914.675      119148.982 7     33668.728 8  22428937.879    22428936.890
  23965735.447    -1246687.853 5  -3163435.554 6  23965754.873    23965758.710
  20731698.884     -488143.226 9   -380370.671 9  20731717.231    20731716.002
 92  8  4  0 17 55.0000000  0  5  3 23 26 21 17
  20533230.940       59373.802 8     46266.113 9  20533251.896    20533251.776
  21096927.791    -2182214.475 8  -1700424.543 9  21096946.438    21096945.958
  22429118.265      120198.545 7     34486.580 8  22429137.091    22429136.432
  23962816.277    -1262053.790 5  -3175408.982 6  23962830.997    23962833.486
  20731366.414     -489885.053 9   -381727.938 9  20731385.900    20731384.701
 92  8  4  0 18  0.0000000  0  5  3 23 26 21 17
  20533480.757       60678.895 8     47283.065 9  20533500.393    20533500.304
  21095532.886    -2189525.967 8  -1706121.816 9  21095555.131    21095554.771
  22429323.113      121258.311 7     35312.375 8  22429338.672    22429338.462
  23959891.262    -1277419.142 5  -3187381.952 6  23959907.391    23959909.910
  20731034.783     -491626.112 9   -383084.608 9  20731054.719    20731053.430
 92  8  4  0 18  5.0000000  0  5  3 23 26 21 17
  20533726.797       61993.097 8     48307.119 9  20533750.360    20533750.001
  21094145.477    -2196830.353 8  -1711813.536 9  21094165.173    21094164.244
  22429519.747      122328.560 7     36146.349 8  22429542.381    22429541.841
  23956964.509    -1292783.823 5  -3199354.403 6  23956983.216    23956985.974
  20730703.752     -493366.417 9   -384440.679 9  20730723.359    20730721.920
 92  8  4  0 18 10.0000000  0  5  3 23 26 21 17
  20533981.351       63316.322 8     49338.204 9  20534002.246    20534002.036
  21092755.159    -2204127.910 8  -1717499.937 9  21092776.445    21092775.995
  22429725.434      123409.235 7     36988.438 8  22429748.188    22429747.349
  23954037.215    -1308148.090 5  -3211326.531 6  23954059.580    23954062.308
  20730376.379     -495106.294 9   -385796.428 9  20730392.238    20730390.979
 92  8  4  0 18 15.0000000  0  5  3 23 26 21 17
  20534233.776       64648.806 8     50376.503 9  20534256.020    20534255.571
  21091371.287    -2211418.511 8  -1723180.919 9  21091389.215    21091388.496
  22429934.030      124500.554 7     37838.825 8  22429955.975    22429954.985
  23951118.885    -1323511.837 5  -3223298.258 6  23951136.573    23951137.982
  20730043.250     -496845.866 9   -387151.931 9  20730061.117    20730059.708
 92  8  4  0 18 20.0000000  0  5  3 23 26 21 17
  20534489.918       65990.326 8     51421.842 9  20534511.204    20534510.964
  21089982.949    -2218702.530 8  -1728856.772 9  21090002.975    21090002.645
  22430143.165      125602.153 7     38697.223 8  22430165.560    22430164.870
  23948192.072    -1338875.457 5  -3235269.876 6  23948212.607    23948215.156
  20729710.570     -498585.338 9   -388507.361 9  20729730.146    20729728.887
 92  8  4  0 18 25.0000000  0  5  3 23 26 21 17
  20534746.211       67340.920 8     52474.257 9  20534768.036    20534767.676
  21088595.479    -2225979.823 8  -1734527.384 9  21088618.263    21088617.754
  22430357.637      126713.966 7     39563.573 8  22430376.853    22430376.763
  23945267.806    -1354238.869 5  -3247241.345 6  23945288.612    23945290.590
  20729382.717     -500324.626 9   -389862.648 9  20729398.906    20729397.886
 92  8  4  0 18 30.0000000  0  5  3 23 26 21 17
  20535002.474       68701.240 8     53534.246 9  20535026.877    20535026.727
  21087216.764    -2233249.693 8  -1740192.211 9  21087234.781    21087234.182
  22430575.106      127836.682 7     40438.418 8  22430590.815    22430590.066
  23942343.451    -1369601.312 5  -3259212.045 5  23942365.365    23942367.884
  20729048.268     -502063.351 9   -391217.494 9  20729068.085    20729067.095
 92  8  4  0 18 35.0000000  0  5  3 23 26 21 17
  20535266.891       70070.553 8     54601.239 9  20535287.726    20535287.336
  21085832.892    -2240512.726 8  -1745851.711 9  21085852.798    21085852.288
  22430787.239      128969.761 7     41321.352 8  22430806.606    22430805.556
  23939424.341    -1384963.356 5  -3271182.439 6  23939442.449    23939444.547
  20728717.477     -503802.340 8   -392572.548 9  20728737.204    20728736.215
 92  8  4  0 18 40.0000000  0  5  3 23 26 21 17
  20535528.759       71449.158 8     55675.478 9  20535549.955    20535549.625
  21084452.557    -2247768.534 8  -1751505.583 9  21084472.044    21084471.624
  22431003.180      130113.812 7     42212.827 8  22431023.985    22431023.326
  23936499.236    -1400324.664 5  -3283152.274 6  23936519.233    23936520.462
  20728388.126     -505541.227 8   -393927.520 9  20728406.293    20728405.214
 92  8  4  0 18 45.0000000  0  5  3 23 26 21 17
  20535792.996       72837.136 8     56757.020 9  20535814.102    20535813.562
  21083074.381    -2255017.177 8  -1757153.868 9  21083092.759    21083092.099
  22431221.968      131269.024 7     43113.002 8  22431243.643    22431242.654
  23933577.279    -1415685.436 5  -3295121.670 5  23933596.586    23933597.605
  20728055.656     -507279.975 8   -395282.389 9  20728075.352    20728074.423
 92  8  4  0 18 50.0000000  0  5  3 23 26 21 17
  20536060.621       74234.542 8     57845.910 9  20536080.018    20536079.598
  21081691.709    -2262258.462 8  -1762796.418 9  21081714.643    21081713.773
  22431440.487      132435.579 7     44022.011 8  22431465.939    22431465.220
  23930653.253    -1431045.485 5  -3307090.510 5  23930673.879    23930675.078
  20727726.783     -509018.448 8   -396637.034 9  20727744.741    20727743.422
 92  8  4  0 18 55.0000000  0  5  3 23 26 21 17
  20536325.638       75641.170 8     58941.984 9  20536347.492    20536347.433
  21080318.779    -2269492.698 8  -1768433.479 9  21080337.906    21080337.186
  22431667.520      133613.188 7     44939.632 8  22431689.974    22431689.045
  23927724.641    -1446405.028 5  -3319058.958 5  23927751.023    23927752.372
  20727393.474     -510756.633 8   -397991.459 9  20727413.830    20727412.841
 92  8  4  0 19  0.0000000  0  5  3 23 26 21 17
  20536599.318       77057.106 8     60045.306 9  20536617.276    20536616.766
  21078942.342    -2276719.709 8  -1774064.908 9  21078962.608    21078962.038
  22431898.090      134801.884 7     45865.901 8  22431916.287    22431914.938
  23924810.328    -1461764.015 5  -3331026.965 6  23924827.866    23924829.365
  20727064.122     -512494.383 8   -399345.547 9  20727083.489    20727082.140
 92  8  4  0 19  5.0000000  0  5  3 23 26 21 17
  20536868.742       78482.268 8     61155.821 9  20536888.318    20536887.928
  21077568.813    -2283939.575 8  -1779690.770 9  21077588.779    21077588.149
  22432131.748      136001.395 7     46800.593 8  22432144.190    22432143.290
  23921889.061    -1477122.636 5  -3342994.697 6  23921905.789    23921907.648
  20726732.492     -514231.851 8   -400699.416 9  20726752.758    20726751.469
 92  8  4  0 19 10.0000000  0  5  3 23 26 21 17
  20537142.482       79921.590 8     62277.375 9  20537162.178    20537161.729
  21076197.262    -2291147.300 8  -1785307.168 9  21076217.348    21076216.599
  22432358.541      137216.875 7     47747.726 8  22432375.719    22432374.760
  23918970.371    -1492475.971 5  -3354958.314 6  23918984.132    23918985.841
  20726405.598     -515963.801 8   -402048.979 9  20726422.926    20726422.027
 92  8  4  0 19 15.0000000  0  5  3 23 26 21 17
  20537417.452       81367.328 8     63403.923 9  20537437.388    20537437.208
  21074827.271    -2298350.607 8  -1790920.124 9  21074846.577    21074845.978
  22432589.981      138440.620 7     48701.294 8  22432608.388    22432607.249
  23916046.675    -1507831.664 5  -3366923.763 6  23916061.455    23916063.344
  20726070.970     -517697.638 8   -403400.020 9  20726092.944    20726091.955
 92  8  4  0 19 20.0000000  0  5  3 23 26 21 17
  20537692.212       82812.997 8     64530.422 9  20537712.478    20537712.148
  21073456.680    -2305556.245 8  -1796534.906 9  21073475.297    21073474.697
  22432823.639      139666.033 7     49656.168 8  22432841.777    22432840.907
  23913123.069    -1523196.350 5  -3378896.217 6  23913138.359    23913139.858
  20725743.117     -519439.984 8   -404757.690 9  20725761.494    20725760.325
 92  8  4  0 19 25.0000000  0  5  3 23 26 21 17
  20537969.550       84265.688 8     65662.389 9  20537989.216    20537988.347
  21072085.129    -2312757.281 8  -1802146.091 9  21072105.065    21072104.466
  22433060.116      140900.269 7     50617.916 8  22433076.784    22433075.825
  23910191.969    -1538562.905 5  -3390870.123 6  23910213.943    23910215.712
  20725410.167     -521183.710 9   -406116.435 9  20725430.013    20725428.424
 92  8  4  0 19 30.0000000  0  5  3 23 26 21 17
  20538247.817       85727.356 8     66801.352 9  20538267.154    20538267.004
  21070717.896    -2319951.963 8  -1807752.331 9  21070736.183    21070735.134
  22433294.913      142145.151 7     51587.969 8  22433313.350    22433312.631
  23907268.063    -1553929.330 5  -3402843.937 6  23907290.067    23907291.566
  20725077.577     -522926.727 9   -407474.630 9  20725098.173    20725096.944
 92  8  4  0 19 35.0000000  0  5  3 23 26 21 17
  20538526.264       87198.104 8     67947.389 9  20538547.070    20538546.380
  21069349.463    -2327140.276 8  -1813353.603 9  21069368.410    21069367.480
  22433532.589      143400.646 7     52566.285 8  22433552.315    22433551.805
  23904346.166    -1569295.485 5  -3414817.530 6  23904365.472    23904368.590
  20724750.144     -524668.904 9   -408832.166 9  20724766.723    20724765.164
 92  8  4  0 19 40.0000000  0  5  3 23 26 21 17
  20538806.780       88678.249 8     69100.749 9  20538828.665    20538828.635
  21067982.229    -2334321.993 8  -1818949.739 9  21068001.686    21068000.697
  22433770.144      144666.796 7     53552.895 8  22433793.348    22433792.509
  23901418.123    -1584660.950 5  -3426790.585 6  23901441.716    23901443.635
  20724416.235     -526409.825 9   -410188.721 9  20724435.362    20724433.923
 92  8  4  0 19 45.0000000  0  5  3 23 26 21 17
  20539089.065       90167.315 8     70261.060 9  20539112.119    20539111.639
  21066613.437    -2341497.816 8  -1824541.283 9  21066636.101    21066635.112
  22434017.383      145942.987 7     54547.334 8  22434036.300    22434035.610
  23898498.144    -1600026.344 5  -3438763.594 6  23898518.290    23898519.669
  20724088.382     -528150.086 9   -411544.768 9  20724104.391    20724102.802
 92  8  4  0 19 50.0000000  0  5  3 23 26 21 17
  20539376.865       91665.610 8     71428.563 9  20539397.341    20539396.831
  21065254.148    -2348667.656 8  -1830128.164 9  21065271.626    21065270.786
  22434260.904      147229.666 7     55549.938 8  22434281.170    22434280.331
  23895567.013    -1615391.400 5  -3450736.333 6  23895594.354    23895596.243
  20723754.773     -529889.118 9   -412899.856 9  20723773.480    20723772.161
 92  8  4  0 19 55.0000000  0  5  3 23 26 21 17
  20539662.777       93173.579 8     72603.598 9  20539684.183    20539683.703
  21063887.274    -2355831.244 8  -1835710.174 9  21063908.530    21063907.720
  22434506.404      148527.429 7     56561.192 8  22434528.109    22434527.929
  23892649.943    -1630755.727 5  -3462708.505 6  23892670.568    23892672.577
  20723426.740     -531626.292 9   -414253.497 9  20723442.629    20723441.400
 92  8  4  0 20  0.0000000  0  5  3 23 26 21 17
  20539952.557       94691.145 8     73786.121 9  20539973.033    20539972.553
  21062528.045    -2362988.587 8  -1841287.315 9  21062546.572    21062545.523
  22434754.722      149836.446 7     57581.214 8  22434777.297    22434776.338
  23889724.298    -1646119.461 5  -3474680.225 6  23889746.213    23889748.911
  20723091.422     -533361.620 9   -415605.695 9  20723112.318    20723110.849
 92  8  4  0 20  5.0000000  0  5  3 23 26 21 17
  20540244.285       96218.178 8     74976.015 9  20540263.501    20540262.932
  21061164.020    -2370139.786 8  -1846859.667 9  21061185.425    21061184.615
  22435004.600      151156.353 7     58609.715 8  22435028.283    22435027.983
  23886801.501    -1661482.843 5  -3486651.651 6  23886822.997    23886824.585
  20722762.760     -535095.475 9   -416956.752 9  20722782.456    20722780.867
 92  8  4  0 20 10.0000000  0  5  3 23 26 21 17
  20540538.231       97754.517 8     76173.164 9  20540555.889    20540555.349
  21059807.968    -2377284.635 8  -1852427.077 9  21059825.836    21059825.266
  22435263.440      152487.055 7     59646.637 8  22435281.518    22435280.528
  23883879.514    -1676845.650 5  -3498622.632 6  23883899.271    23883901.459
  20722429.780     -536827.915 9   -418306.698 9  20722452.954    20722451.305
 92  8  4  0 20 15.0000000  0  5  3 23 26 21 17
  20540830.049       99300.323 8     77377.702 9  20540849.955    20540849.746
  21058445.771    -2384423.124 8  -1857989.529 9  21058467.626    21058466.727
  22435516.315      153828.365 7     60691.817 8  22435536.821    22435535.952
  23880961.724    -1692207.915 5  -3510593.203 6  23880975.305    23880977.373
  20722105.975     -538558.870 9   -419655.494 9  20722123.512    20722121.864
 92  8  4  0 20 20.0000000  0  5  3 23 26 21 17
  20541125.075      100855.966 8     78589.877 9  20541145.641    20541145.761
  21057092.748    -2391554.837 8  -1863546.701 9  21057110.466    21057109.656
  22435773.058      155180.601 7     61745.505 8  22435794.073    22435793.114
  23878030.533    -1707569.562 5  -3522563.300 6  23878052.118    23878054.397
  20721773.325     -540287.765 9   -421002.682 9  20721794.610    20721793.051
 92  8  4  0 20 25.0000000  0  5  3 23 26 21 17
  20541423.878      102421.418 8     79809.712 9  20541444.054    20541443.395
  21055732.380    -2398679.803 8  -1869098.614 9  21055754.714    21055754.055
  22436033.577      156543.662 7     62807.643 8  22436053.513    22436052.614
  23875113.103    -1722930.453 5  -3534532.788 6  23875128.662    23875131.600
  20721449.129     -542014.510 9   -422348.194 9  20721465.978    20721464.269
 92  8  4  0 20 30.0000000  0  5  3 23 26 21 17
  20541721.092      103996.993 8     81037.438 9  20541743.727    20541743.157
  21054381.845    -2405797.575 8  -1874644.919 9  21054400.192    21054399.473
  22436295.236      157917.864 7     63878.454 8  22436314.782    22436313.883
  23872191.626    -1738290.137 5  -3546501.335 6  23872205.776    23872208.294
  20721116.959     -543738.586 8   -423691.622 9  20721137.825    20721136.446
 92  8  4  0 20 35.0000000  0  5  3 23 26 21 17
  20542026.011      105582.711 8     82273.057 9  20542045.288    20542044.958
  21053023.395    -2412908.066 8  -1880185.555 9  21053047.289    21053046.389
  22436554.317      159303.022 7     64957.802 8  22436578.720    22436577.880
  23869259.476    -1753648.643 5  -3558468.990 5  23869283.489    23869286.397
  20720795.132     -545459.948 9   -425032.944 9  20720810.242    20720808.773
 92  8  4  0 20 40.0000000  0  5  3 23 26 21 17
  20542328.322      107177.918 8     83516.079 9  20542348.858    20542348.558
  21051677.627    -2420011.749 8  -1885720.879 9  21051695.165    21051694.385
  22436822.841      160698.698 7     66045.356 8  22436843.976    22436843.107
  23866337.848    -1769006.607 5  -3570436.198 6  23866361.262    23866362.941
  20720462.962     -547179.013 9   -426372.471 9  20720482.868    20720481.609
 92  8  4  0 20 45.0000000  0  5  3 23 26 21 17
  20542635.789      108782.862 8     84766.682 9  20542654.226    20542654.106
  21050323.884    -2427108.374 8  -1891250.715 9  21050344.750    21050344.120
  22437091.785      162105.240 7     67141.355 8  22437111.991    22437110.701
  23863415.111    -1784363.916 4  -3582402.890 6  23863438.975    23863440.144
  20720141.974     -548895.883 8   -427710.292 9  20720156.274    20720154.895
 92  8  4  0 20 50.0000000  0  5  3 23 26 21 17
  20542941.577      110397.828 8     86025.096 9  20542961.724    20542961.604
  21048977.696    -2434197.803 8  -1896774.936 9  21048995.624    21048994.844
  22437361.148      163523.019 7     68246.129 8  22437381.354    22437380.305
  23860495.343    -1799720.196 4  -3594368.808 5  23860517.108    23860518.457
  20719809.175     -550610.346 8   -429046.236 9  20719830.310    20719828.721
 92  8  4  0 20 55.0000000  0  5  3 23 26 21 17
  20543248.925      112022.144 8     87290.793 9  20543270.660    20543270.690
  21047629.200    -2441280.885 8  -1902294.215 9  21047647.547    21047647.007
  22437634.229      164951.204 7     69359.008 8  22437653.296    22437652.217
  23857572.936    -1815076.227 4  -3606334.518 6  23857594.251    23857596.380
  20719488.906     -552323.084 8   -430380.825 9  20719504.016    20719502.847
 92  8  4  0 21  0.0000000  0  5  3 23 26 21 17
  20543559.450      113656.300 8     88564.166 9  20543581.814    20543581.514
  21046283.491    -2448357.230 8  -1907808.242 9  21046301.299    21046300.220
  22437905.331      166389.810 7     70480.002 8  22437926.826    22437925.657
  23854657.005    -1830431.645 4  -3618299.749 6  23854672.234    23854673.553
  20719160.274     -554033.720 8   -431713.787 9  20719178.531    20719177.302
 92  8  4  0 21  5.0000000  0  5  3 23 26 21 17
  20543876.720      115300.508 8     89845.363 9  20543894.528    20543894.168
  21044934.005    -2455426.629 8  -1913316.857 9  21044956.130    21044955.351
  22438184.288      167838.737 7     71609.038 8  22438202.785    22438201.916
  23851724.105    -1845786.195 4  -3630264.309 5  23851749.707    23851751.986
  20718837.607     -555742.137 8   -433045.018 9  20718853.526    20718852.027
 92  8  4  0 21 10.0000000  0  5  3 23 26 21 17
  20544188.474      116954.715 8     91134.360 9  20544209.340    20544209.220
  21043594.533    -2462488.959 8  -1918819.959 9  21043611.921    21043611.171
  22438461.057      169297.910 7     72746.057 8  22438480.603    22438479.344
  23848804.576    -1861139.834 5  -3642228.149 6  23848828.679    23848830.328
  20718507.716     -557448.407 8   -434374.576 9  20718528.971    20718527.472
 92  8  4  0 21 15.0000000  0  5  3 23 26 21 17
  20544508.743      118618.713 8     92430.977 9  20544526.041    20544525.771
  21042247.805    -2469544.409 8  -1924317.711 9  21042269.570    21042268.431
  22438738.754      170766.896 7     73890.727 8  22438760.190    22438759.110
  23845889.094    -1876492.978 5  -3654191.611 5  23845907.112    23845908.761
  20718184.030     -559152.941 8   -435702.777 9  20718204.296    20718203.007
 92  8  4  0 21 20.0000000  0  5  3 23 26 21 17
  20544823.585      120292.913 8     93735.554 9  20544844.810    20544844.510
  21040910.041    -2476592.666 8  -1929809.850 9  21040928.059    21040927.189
  22439022.718      172245.880 7     75043.192 8  22439041.335    22439040.196
  23842972.624    -1891845.323 4  -3666154.447 6  23842985.934    23842986.834
  20717860.674     -560855.667 8   -437029.574 9  20717880.250    20717879.111
 92  8  4  0 21 25.0000000  0  5  3 23 26 21 17
  20545142.953      121976.873 8     95047.731 9  20545165.108    20545164.509
  21039567.031    -2483634.298 8  -1935296.830 9  21039588.046    21039587.387
  22439307.131      173734.658 7     76203.279 8  22439324.759    22439324.009
  23840044.671    -1907197.060 5  -3678116.819 5  23840063.767    23840065.776
  20717538.786     -562556.825 8   -438355.125 9  20717556.534    20717555.215
 92  8  4  0 21 30.0000000  0  5  3 23 26 21 17
  20545466.909      123670.686 8     96367.589 9  20545487.235    20545487.505
  21038232.085    -2490669.394 8  -1940778.714 9  21038249.623    21038248.634
  22439592.773      175233.221 7     77370.998 8  22439609.891    22439608.932
  23837123.793    -1922547.972 5  -3690078.536 6  23837142.110    23837144.718
  20717212.612     -564256.262 8   -439679.378 9  20717233.208    20717231.859
 92  8  4  0 21 35.0000000  0  5  3 23 26 21 17
  20545793.563      125374.078 8     97694.904 9  20545811.341    20545811.071
  21036891.503    -2497698.153 8  -1946255.663 9  21036911.979    21036911.259
  22439879.375      176741.305 7     78546.124 8  22439896.613    22439895.983
  23834197.369    -1937898.156 5  -3702039.692 6  23834221.502    23834224.020
  20716890.425     -565954.446 8   -441002.635 9  20716910.122    20716908.952
 92  8  4  0 21 40.0000000  0  5  3 23 26 21 17
  20546119.887      127087.575 8     99030.095 9  20546137.485    20546137.425
  21035556.857    -2504720.150 8  -1951727.344 9  21035575.684    21035574.905
  22440166.696      178259.446 7     79729.103 8  22440185.673    22440184.593
  23831280.778    -1953247.210 5  -3713999.953 6  23831300.234    23831302.902
  20716568.538     -567651.157 8   -442324.743 9  20716587.635    20716585.956
 92  8  4  0 21 45.0000000  0  5  3 23 26 21 17
  20546445.162      128810.938 8    100372.971 9  20546465.548    20546465.278
  21034222.631    -2511735.703 8  -1957193.999 9  21034240.858    21034239.779
  22440455.186      179787.460 7     80919.762 8  22440476.351    22440475.542
  23828357.741    -1968595.225 5  -3725959.421 6  23828379.596    23828381.874
  20716247.610     -569346.600 8   -443645.867 9  20716264.908    20716263.139
 92  8  4  0 21 50.0000000  0  5  3 23 26 21 17
  20546774.814      130544.375 8    101723.701 9  20546795.529    20546795.230
  21032886.546    -2518744.320 8  -1962655.258 9  21032906.991    21032906.062
  22440749.912      181325.612 7     82118.334 8  22440768.889    22440768.110
  23825433.715    -1983941.685 5  -3737917.666 6  23825459.468    23825461.866
  20715928.121     -571040.457 8   -444965.752 9  20715942.541    20715940.803
 92  8  4  0 21 55.0000000  0  5  3 23 26 21 17
  20547107.164      132287.570 8    103082.031 9  20547127.250    20547126.920
  21031555.557    -2525746.033 8  -1968111.121 9  21031574.594    21031573.904
  22441041.220      182873.802 7     83324.719 8  22441064.065    22441063.075
  23822518.444    -1999286.832 5  -3749874.879 6  23822538.680    23822541.827
  20715601.827     -572732.992 9   -446284.605 9  20715620.115    20715618.796
 92  8  4  0 22  0.0000000  0  5  3 23 26 21 17
  20547443.291      134040.589 8    104448.024 9  20547460.709    20547460.529
  21030221.391    -2532740.804 8  -1973561.594 9  21030243.815    21030242.646
  22441337.745      184432.304 7     84539.144 8  22441360.769    22441359.660
  23819600.414    -2014630.693 5  -3761831.118 6  23819619.301    23819621.579
  20715280.899     -574424.218 9   -447602.438 9  20715298.527    20715296.728
 92  8  4  0 22  5.0000000  0  5  3 23 26 21 17
  20547775.311      135803.464 8    105821.700 9  20547796.177    20547795.907
  21028894.269    -2539728.697 8  -1979006.693 9  21028913.666    21028912.976
  22441637.927      186001.198 7     85761.657 8  22441658.973    22441658.253
  23816677.737    -2029973.306 5  -3773786.369 6  23816699.532    23816702.560
  20714957.483     -576114.163 9   -448919.274 9  20714976.850    20714975.171
 92  8  4  0 22 10.0000000  0  5  3 23 26 21 17
  20548112.158      137576.492 8    107203.273 9  20548133.473    20548133.413
  21027564.960    -2546709.225 8  -1984446.053 9  21027585.196    21027584.686
  22441940.838      187580.785 7     86992.510 8  22441959.395    22441958.975
  23813757.729    -2045314.265 5  -3785740.333 6  23813780.483    23813783.391
  20714638.954     -577802.520 9   -450234.872 9  20714655.622    20714654.003
 92  8  4  0 22 15.0000000  0  5  3 23 26 21 17
  20548452.512      139359.606 8    108592.710 9  20548473.048    20548472.508
  21026238.918    -2553682.271 8  -1989879.590 9  21026258.404    21026257.805
  22442242.459      189170.901 7     88231.568 8  22442261.885    22442261.016
  23810837.540    -2060653.737 5  -3797693.140 6  23810861.524    23810864.372
  20714312.030     -579489.496 9   -451549.395 9  20714334.575    20714332.986
 92  8  4  0 22 20.0000000  0  5  3 23 26 21 17
  20548796.644      141152.842 8    109990.031 9  20548814.122    20548813.972
  21024911.407    -2560648.030 8  -1995307.451 9  21024932.872    21024932.002
  22442548.067      190771.351 7     89478.673 8  22442566.594    22442566.055
  23807918.551    -2075991.813 5  -3809644.857 6  23807942.115    23807945.382
  20713993.021     -581175.495 9   -452863.157 9  20714013.557    20714011.818
 92  8  4  0 22 25.0000000  0  5  3 23 26 21 17
  20549133.281      142955.950 8    111395.055 9  20549157.145    20549156.935
  21023587.763    -2567606.695 8  -2000729.781 9  21023608.599    21023607.729
  22442856.494      192382.132 7     90733.838 8  22442873.462    22442872.053
  23804995.215    -2091328.590 5  -3821595.544 6  23805023.545    23805027.203
  20713677.190     -582860.846 9   -454176.414 9  20713693.109    20713691.310
 92  8  4  0 22 30.0000000  0  5  3 23 26 21 17
  20549478.552      144769.226 8    112807.996 9  20549502.445    20549502.146
  21022267.687    -2574558.227 8  -2006146.548 9  21022285.704    21022285.015
  22443158.745      194003.404 7     91997.171 8  22443181.769    22443180.869
  23802078.774    -2106663.876 5  -3833545.115 6  23802105.485    23802108.663
  20713354.943     -584545.272 9   -455488.944 9  20713372.241    20713370.892
 92  8  4  0 22 35.0000000  0  5  3 23 26 21 17
  20549829.669      146592.655 8    114228.845 9  20549849.335    20549848.946
  21020942.274    -2581502.655 8  -2011557.785 9  21020964.399    21020963.560
  22443472.237      195635.391 7     93268.853 8  22443492.384    22443491.574
  23799161.643    -2121997.823 5  -3845493.606 6  23799186.736    23799190.963
  20713032.486     -586228.551 9   -456800.589 9  20713052.182    20713050.474
 92  8  4  0 22 40.0000000  0  5  3 23 26 21 17
  20550179.677      148425.813 8    115657.281 9  20550198.264    20550197.844
  21019625.676    -2588440.442 8  -2016963.846 9  21019644.293    21019643.364
  22443784.022      197277.766 7     94548.622 8  22443804.647    22443804.018
  23796249.309    -2137330.686 5  -3857441.275 6  23796269.366    23796272.813
  20712710.479     -587911.144 9   -458111.697 9  20712731.854    20712730.385
 92  8  4  0 22 45.0000000  0  5  3 23 26 21 17
  20550526.417      150268.993 8    117093.526 9  20550549.111    20550548.511
  21018304.670    -2595371.180 8  -2022364.417 9  21018325.506    21018324.487
  22444101.112      198931.195 7     95837.018 8  22444119.429    22444118.500
  23793333.438    -2152661.950 5  -3869387.668 6  23793351.755    23793356.192
  20712392.729     -589592.657 8   -459421.965 9  20712411.796    20712410.207
 92  8  4  0 22 50.0000000  0  5  3 23 26 21 17
  20550879.032      152122.416 8    118537.750 9  20550901.607    20550901.727
  21016986.483    -2602294.688 8  -2027759.354 9  21017008.008    21017006.839
  22444413.076      200595.812 7     97134.121 8  22444436.160    22444435.231
  23790413.130    -2167991.581 5  -3881332.822 6  23790434.895    23790438.612
  20712071.801     -591273.032 9   -460731.345 9  20712092.157    20712090.358
 92  8  4  0 22 55.0000000  0  5  3 23 26 21 17
  20551237.284      153985.918 8    119989.826 9  20551256.291    20551255.902
  21015670.484    -2609211.456 8  -2033149.033 9  21015691.529    21015690.840
  22444737.152      202271.465 7     98439.837 8  22444754.780    22444754.060
  23787490.873    -2183319.790 5  -3893276.848 6  23787517.494    23787521.242
  20711750.334     -592952.579 8   -462040.082 9  20711772.398    20711770.959
 92  8  4  0 23  0.0000000  0  5  3 23 26 21 17
  20551588.102      155859.055 8    121449.414 9  20551612.805    20551612.655
  21014356.104    -2616122.000 8  -2038533.865 9  21014376.610    21014375.920
  22445057.840      203957.878 7     99753.928 8  22445075.617    22445074.838
  23784580.008    -2198646.871 5  -3905220.004 6  23784601.083    23784605.101
  20711437.440     -594631.726 8   -463348.501 9  20711452.910    20711451.590
 92  8  4  0 23  5.0000000  0  5  3 23 26 21 17
  20551951.030      157742.474 8    122917.008 9  20551971.176    20551970.757
  21013044.902    -2623025.804 8  -2043913.445 9  21013062.619    21013062.080
  22445376.129      205655.450 7    101076.723 8  22445398.584    22445398.224
  23781665.635    -2213972.029 5  -3917161.661 6  23781684.792    23781688.570
  20711114.354     -596309.819 8   -464656.106 9  20711133.661    20711132.042
 92  8  4  0 23 10.0000000  0  5  3 23 26 21 17
  20552312.310      159635.873 8    124392.385 9  20552331.167    20552331.227
  21011729.952    -2629923.084 8  -2049287.947 9  21011750.038    21011749.439
  22445705.661      207363.793 7    102407.905 8  22445723.739    22445723.139
  23778755.730    -2229295.461 5  -3929101.985 6  23778768.711    23778772.368
  20710795.285     -597986.942 8   -465962.953 9  20710814.471    20710813.062
 92  8  4  0 23 15.0000000  0  5  3 23 26 21 17
  20552673.530      161539.434 8    125875.675 9  20552693.706    20552693.287
  21010420.249    -2636813.396 8  -2054657.015 9  21010439.076    21010438.056
  22446032.975      209083.158 7    103747.671 8  22446051.172    22446050.333
  23775827.657    -2244616.839 5  -3941040.695 6  23775853.199    23775856.467
  20710475.556     -599662.691 8   -467268.730 9  20710495.702    20710493.963
 92  8  4  0 23 20.0000000  0  5  3 23 26 21 17
  20553037.298      163453.091 8    127366.836 9  20553057.564    20553057.504
  21009110.665    -2643696.594 8  -2060020.545 9  21009129.312    21009128.233
  22446360.228      210813.783 7    105096.223 8  22446379.925    22446379.565
  23772919.490    -2259936.130 5  -3952977.777 6  23772937.838    23772941.975
  20710159.785     -601336.967 8   -468573.355 9  20710177.143    20710175.494
 92  8  4  0 23 25.0000000  0  5  3 23 26 21 17
  20553408.561      165376.701 8    128865.750 9  20553423.911    20553423.341
  21007800.243    -2650572.947 8  -2065378.734 9  21007820.598    21007819.999
  22446689.460      212555.675 7    106453.543 8  22446711.555    22446710.775
  23769997.533    -2275253.715 5  -3964913.529 6  23770022.656    23770027.213
  20709840.176     -603010.010 8   -469877.025 9  20709858.643    20709857.384
 92  8  4  0 23 30.0000000  0  5  3 23 26 21 17
  20553772.000      167310.605 8    130372.686 9  20553791.726    20553791.366
  21006496.205    -2657442.045 8  -2070731.273 9  21006513.503    21006512.544
  22447024.149      214309.436 7    107820.112 8  22447045.494    22447044.714
  23767096.471    -2290569.245 5  -3976847.692 6  23767108.943    23767111.971
  20709521.557     -604681.304 8   -471179.323 9  20709540.533    20709539.064
 92  8  4  0 23 35.0000000  0  5  3 23 26 21 17
  20554140.774      169254.367 8    131887.304 9  20554161.610    20554161.520
  21005187.461    -2664304.649 8  -2076078.748 9  21005207.577    21005206.528
  22447364.383      216074.666 7    109195.621 8  22447381.351    22447380.632
  23764168.878    -2305883.042 5  -3988780.502 6  23764194.930    23764198.348
  20709203.896     -606351.236 8   -472480.567 9  20709222.693    20709221.344
 92  8  4  0 23 40.0000000  0  5  3 23 26 21 17
  20554516.534      171208.136 8    133409.718 9  20554533.323    20554533.173
  21003883.724    -2671160.558 8  -2081421.010 9  21003902.851    21003902.041
  22447700.121      217851.712 7    110580.336 8  22447719.367    22447718.918
  23761257.414    -2321194.894 5  -4000711.772 6  23761280.678    23761284.065
  20708888.065     -608019.368 8   -473780.411 9  20708905.213    20708903.924
 92  8  4  0 23 45.0000000  0  5  3 23 26 21 17
  20554884.410      173172.047 8    134940.046 9  20554907.074    20554906.684
  21002579.477    -2678009.391 8  -2086757.759 9  21002599.743    21002598.933
  22448040.745      219640.608 7    111974.287 8  22448059.692    22448059.812
  23758344.480    -2336504.723 5  -4012641.501 6  23758368.254    23758371.132
  20708568.396     -609685.569 8   -475078.741 9  20708588.243    20708587.163
 92  8  4  0 23 50.0000000  0  5  3 23 26 21 17
  20555261.728      175146.093 8    136478.263 9  20555282.744    20555282.234
  21001277.178    -2684850.834 8  -2092088.745 9  21001297.774    21001296.995
  22448382.058      221441.335 7    113377.455 8  22448402.145    22448402.115
  23755433.106    -2351812.794 5  -4024569.860 6  23755454.631    23755457.959
  20708253.644     -611349.883 8   -476375.606 9  20708271.482    20708270.523
 92  8  4  0 23 55.0000000  0  5  3 23 26 21 17
  20555641.865      177130.500 8    138024.581 9  20555660.273    20555660.033
  20999978.657    -2691684.692 8  -2097413.825 9  20999997.244    20999996.255
  22448727.479      223254.133 7    114790.025 8  22448747.086    22448746.906
  23752526.378    -2367119.108 5  -4036496.814 6  23752542.357    23752544.126
  20707936.134     -613012.201 8   -477670.919 9  20707955.171    20707953.942
 92  8  4  0 24  0.0000000  0  5  3 23 26 21 17
  20556019.004      179125.149 8    139578.826 9  20556039.810    20556039.540
  20998680.676    -2698511.074 8  -2102733.079 9  20998698.424    20998697.374
  22449075.868      225078.796 7    116211.845 8  22449094.575    22449094.156
  23749607.629    -2382423.690 5  -4048422.448 6  23749629.813    23749633.141
  20707621.112     -614672.483 8   -478964.640 9  20707639.040    20707638.050
 92  8  4  0 24  5.0000000  0  5  3 23 26 21 17
  20556402.709      181130.244 8    141141.234 9  20556421.416    20556420.906
  20997381.555    -2705329.868 8  -2108046.419 9  20997400.652    20997399.753
  22449420.600      226915.330 7    117642.918 8  22449443.893    22449443.354
  23746698.023    -2397726.618 5  -4060346.782 6  23746717.719    23746720.118
  20707306.900     -616330.655 8   -480256.722 9  20707323.658    20707322.489
 92  8  4  0 24 10.0000000  0  5  3 23 26 21 17
  20556790.970      183145.812 8    142711.810 9  20556804.880    20556804.820
  20996086.332    -2712140.737 8  -2113353.586 9  20996104.319    20996103.630
  22449772.976      228763.758 7    119083.251 8  22449795.550    22449795.310
  23743787.398    -2413028.089 5  -4072269.973 6  23743806.405    23743808.354
  20706990.469     -617986.596 8   -481547.057 9  20707008.456    20707007.257
 92  8  4  0 24 15.0000000  0  5  3 23 26 21 17
  20557169.907      185171.821 8    144290.516 9  20557190.503    20557190.383
  20994792.817    -2718943.793 8  -2118654.658 9  20994809.696    20994809.156
  22450131.527      230624.146 6    120532.906 8  22450149.575    22450149.575
  23740875.784    -2428328.434 5  -4084192.305 6  23740894.821    23740896.769
  20706676.376     -619640.220 8   -482835.595 9  20706693.854    20706692.475
 92  8  4  0 24 20.0000000  0  5  3 23 26 21 17
  20557556.520      187208.028 8    145877.166 9  20557577.925    20557577.985
  20993496.994    -2725739.437 8  -2123949.959 9  20993516.811    20993515.911
  22450485.942      232495.886 7    121991.404 8  22450506.088    22450505.309
  23737969.596    -2443628.308 5  -4096114.258 6  23737983.386    23737984.675
  20706360.755     -621292.039 8   -484122.724 9  20706379.432    20706378.203
 92  8  4  0 24 25.0000000  0  5  3 23 26 21 17
  20557948.229      189254.257 8    147471.628 9  20557967.145    20557967.325
  20992204.739    -2732527.746 8  -2129239.550 9  20992224.975    20992224.106
  22450843.894      234378.559 7    123458.437 8  22450864.490    22450863.411
  23735050.966    -2458928.007 5  -4108036.073 6  23735072.072    23735073.660
  20706048.041     -622942.236 8   -485408.585 9  20706065.669    20706064.350
 92  8  4  0 24 30.0000000  0  5  3 23 26 21 17
  20558337.029      191310.775 8    149074.117 9  20558358.644    20558358.614
  20990918.240    -2739308.342 8  -2134523.123 9  20990934.728    20990933.739
  22451209.311      236272.581 7    124934.292 8  22451224.781    22451224.061
  23732146.517    -2474227.318 5  -4119957.598 6  23732160.487    23732161.866
  20705730.171     -624590.584 8   -486693.017 9  20705751.786    20705750.587
 92  8  4  0 24 35.0000000  0  5  3 23 26 21 17
  20558731.466      193377.502 8    150684.544 9  20558751.792    20558751.912
  20989626.914    -2746081.521 8  -2139800.919 9  20989645.920    20989644.961
  22451565.465      238178.054 7    126419.080 8  22451587.350    22451586.450
  23729229.566    -2489526.387 5  -4131878.907 6  23729249.472    23729250.492
  20705417.967     -626237.157 8   -487976.052 9  20705438.353    20705437.094
 92  8  4  0 24 40.0000000  0  5  3 23 26 21 17
  20559130.010      195454.421 8    152302.930 9  20559147.159    20559147.039
  20988338.735    -2752847.455 8  -2145073.066 9  20988358.192    20988357.173
  22451931.361      240094.998 7    127912.814 8  22451952.227    22451951.387
  23726317.172    -2504825.242 5  -4143800.069 6  23726337.918    23726339.327
  20705107.562     -627881.930 8   -489257.695 9  20705125.490    20705124.111
 92  8  4  0 24 45.0000000  0  5  3 23 26 21 17
  20559529.814      197541.514 8    153929.229 9  20559544.114    20559544.174
  20987051.397    -2759605.689 8  -2150339.219 9  20987072.112    20987071.363
  22452297.018      242023.430 7    129415.486 8  22452318.963    22452318.034
  23723404.269    -2520123.817 5  -4155721.024 6  23723426.993    23723427.383
  20704791.431     -629524.595 8   -490537.689 9  20704813.136    20704811.637
 92  8  4  0 24 50.0000000  0  5  3 23 26 21 17
  20559919.934      199638.851 8    155563.516 9  20559943.377    20559943.257
  20985767.296    -2766356.030 8  -2155599.213 9  20985787.502    20985786.752
  22452663.754      243963.284 7    130927.071 8  22452688.187    22452687.528
  23720493.734    -2535421.968 6  -4167641.626 6  23720515.499    23720516.458
  20704482.105     -631164.781 8   -491815.755 9  20704501.142    20704499.523
 92  8  4  0 24 55.0000000  0  5  3 23 26 21 17
  20560327.292      201746.731 8    157206.021 9  20560344.560    20560344.620
  20984484.724    -2773098.196 8  -2160852.843 9  20984504.420    20984503.670
  22453037.056      245914.742 7    132447.687 8  22453059.510    22453058.611
  23717584.668    -2550719.661 6  -4179561.887 5  23717604.694    23717604.994
  20704169.811     -632802.351 8   -493091.782 9  20704189.208    20704187.889
 92  8  4  0 25  0.0000000  0  5  3 23 26 21 17
  20560728.354      203865.086 8    158856.687 9  20560747.631    20560747.481
  20983202.121    -2779832.197 8  -2166100.113 9  20983222.897    20983222.238
  22453415.274      247877.564 7    133977.165 8  22453433.172    22453432.272
  23714671.435    -2566016.720 6  -4191481.632 6  23714693.679    23714694.369
  20703858.147     -634437.466 8   -494365.896 9  20703878.383    20703876.495
 92  8  4  0 25  5.0000000  0  5  3 23 26 21 17
  20561135.442      205994.019 8    160515.598 9  20561152.920    20561152.380
  20981921.768    -2786558.046 8  -2171341.030 9  20981943.113    20981942.364
  22453788.905      249851.771 7    135515.513 8  22453808.962    22453807.912
  23711763.208    -2581313.060 6  -4203400.844 6  23711782.425    23711784.313
  20703547.922     -636069.908 8   -495637.923 9  20703567.588    20703565.940
 92  8  4  0 25 10.0000000  0  5  3 23 26 21 17
  20561539.382      208133.388 8    162182.634 9  20561559.948    20561559.798
  20980644.202    -2793275.961 8  -2176575.762 9  20980664.768    20980664.019
  22454165.085      251836.981 7    137062.435 8  22454186.760    22454185.651
  23708851.983    -2596608.720 5  -4215319.522 6  23708871.710    23708873.119
  20703242.074     -637700.064 8   -496908.174 9  20703257.333    20703255.834
 92  8  4  0 25 15.0000000  0  5  3 23 26 21 17
  20561948.809      210283.493 8    163858.044 9  20561969.045    20561969.045
  20979370.714    -2799985.555 8  -2181804.004 9  20979388.192    20979387.292
  22454542.164      253833.376 7    138618.064 8  22454566.567    22454566.027
  23705941.208    -2611903.450 6  -4227237.462 6  23705961.205    23705962.134
  20702926.602     -639327.566 8   -498176.349 9  20702947.438    20702946.299
 92  8  4  0 25 20.0000000  0  5  3 23 26 21 17
  20562361.593      212444.212 8    165541.717 9  20562380.270    20562380.090
  20978093.988    -2806686.719 8  -2187025.691 9  20978113.144    20978112.095
  22454930.305      255840.887 7    140182.361 8  22454948.952    22454947.693
  23703027.645    -2627197.473 5  -4239154.857 6  23703050.879    23703052.768
  20702618.655     -640952.438 8   -499442.481 9  20702638.202    20702636.823
 92  8  4  0 25 25.0000000  0  5  3 23 26 21 17
  20562773.598      214615.344 8    167233.509 9  20562793.444    20562792.965
  20976816.152    -2813379.541 8  -2192240.866 9  20976839.266    20976838.457
  22455311.671      257859.348 7    141755.197 8  22455332.537    22455331.787
  23700115.282    -2642490.899 5  -4251071.805 6  23700140.614    23700142.053
  20702312.747     -642574.849 8   -500706.698 9  20702329.356    20702328.126
 92  8  4  0 25 30.0000000  0  5  3 23 26 21 17
  20563191.299      216796.293 8    168932.956 9  20563208.597    20563208.267
  20975550.279    -2820064.664 8  -2197450.051 9  20975567.097    20975566.497
  22455699.723      259888.366 7    143336.247 8  22455718.759    22455717.920
  23697211.672    -2657784.209 5  -4262988.640 6  23697230.709    23697232.357
  20701998.954     -644195.379 8   -501969.449 9  20702021.019    20702019.910
 92  8  4  0 25 35.0000000  0  5  3 23 26 21 17
  20563603.184      218987.633 8    170640.491 9  20563625.638    20563625.129
  20974279.818    -2826741.671 8  -2202652.893 9  20974296.757    20974296.157
  22456085.166      261928.540 7    144925.992 8  22456106.781    22456105.911
  23694298.858    -2673077.109 5  -4274905.156 6  23694319.694    23694321.433
  20701694.575     -645813.480 8   -503230.305 9  20701713.162    20701711.813
 92  8  4  0 25 40.0000000  0  5  3 23 26 21 17
  20564028.349      221189.682 8    172356.378 9  20564044.688    20564043.969
  20973006.060    -2833410.470 8  -2207849.368 9  20973027.675    20973026.806
  22456477.684      263979.985 7    146524.521 8  22456497.021    22456496.481
  23691391.171    -2688369.470 5  -4286821.251 6  23691410.268    23691411.827
  20701386.179     -647429.036 8   -504489.180 9  20701405.635    20701404.256
 92  8  4  0 25 45.0000000  0  5  3 23 26 21 17
  20564446.470      223402.380 8    174080.552 9  20564465.777    20564465.237
  20971741.505    -2840070.996 8  -2213039.385 9  20971760.213    20971759.073
  22456868.314      266042.763 7    148131.891 8  22456889.809    22456888.789
  23688480.276    -2703661.060 5  -4298736.763 6  23688499.703    23688502.491
  20701084.917     -649042.017 8   -505746.044 9  20701098.827    20701097.478
 92  8  4  0 25 50.0000000  0  5  3 23 26 21 17
  20564872.265      225625.491 8    175812.852 9  20564888.724    20564888.274
  20970479.529    -2846723.765 8  -2218223.351 9  20970494.339    20970493.230
  22457263.350      268116.173 7    149747.535 8  22457284.336    22457283.526
  23685574.208    -2718952.280 5  -4310651.970 6  23685590.157    23685592.406
  20700774.452     -650652.885 8   -507001.264 9  20700792.200    20700791.001
 92  8  4  0 25 55.0000000  0  5  3 23 26 21 17
  20565291.705      227859.044 8    177553.286 9  20565313.650    20565313.350
  20969211.617    -2853368.714 8  -2223401.229 9  20969229.904    20969228.795
  22457662.374      270200.257 7    151371.497 8  22457680.901    22457679.762
  23682656.538    -2734242.979 5  -4322566.769 6  23682680.402    23682682.410
  20700465.396     -652261.707 8   -508254.887 9  20700486.022    20700484.793
 92  8  4  0 26  0.0000000  0  5  3 23 26 21 17
  20565723.856      230103.114 8    179301.913 9  20565740.554    20565740.134
  20967947.422    -2860005.545 8  -2228572.779 9  20967966.879    20967965.679
  22458059.839      272295.265 7    153003.973 8  22458080.165    22458078.696
  23679753.348    -2749533.141 5  -4334481.152 6  23679770.826    23679772.415
  20700160.057     -653868.328 8   -509506.802 9  20700180.084    20700179.094
 92  8  4  0 26  5.0000000  0  5  3 23 26 21 17
  20566147.942      232357.713 8    181058.742 9  20566169.827    20566169.407
  20966686.345    -2866634.263 8  -2233738.004 9  20966705.562    20966704.453
  22458460.751      274401.381 7    154645.112 8  22458480.567    22458479.038
  23676842.693    -2764822.517 5  -4346394.933 6  23676861.550    23676862.989
  20699855.049     -655472.770 8   -510757.010 9  20699875.105    20699873.786
 92  8  4  0 26 10.0000000  0  5  3 23 26 21 17
  20566581.982      234623.082 8    182823.967 9  20566600.779    20566600.509
  20965427.517    -2873254.945 8  -2238896.976 9  20965445.384    20965444.635
  22458865.021      276519.094 7    156295.275 8  22458883.848    22458882.319
  23673933.207    -2780110.609 5  -4358307.712 6  23673951.854    23673954.223
  20699547.761     -657074.711 8   -512005.279 9  20699570.096    20699568.927
 92  8  4  0 26 15.0000000  0  5  3 23 26 21 17
  20567009.995      236898.979 8    184597.397 9  20567033.919    20567033.349
  20964168.898    -2879868.075 8  -2244050.049 9  20964186.885    20964186.106
  22459264.705      278648.203 7    157954.329 8  22459288.928    22459287.339
  23671024.561    -2795397.573 5  -4370219.603 6  23671042.608    23671044.917
  20699248.868     -658674.495 8   -513251.860 9  20699265.657    20699264.457
 92  8  4  0 26 20.0000000  0  5  3 23 26 21 17
  20567449.641      239185.435 8    186379.051 9  20567468.858    20567468.618
  20962907.521    -2886473.517 8  -2249197.146 9  20962930.125    20962929.076
  22459678.868      280788.702 7    159622.247 8  22459696.076    22459695.057
  23668108.390    -2810683.286 5  -4382130.522 6  23668134.322    23668136.000
  20698943.769     -660272.084 8   -514496.727 9  20698961.607    20698960.558
 92  8  4  0 26 25.0000000  0  5  3 23 26 21 17
  20567886.349      241482.461 8    188168.941 9  20567906.045    20567905.715
  20961650.791    -2893071.286 8  -2254338.257 9  20961674.385    20961673.755
  22460084.067      282940.775 7    161299.192 8  22460105.532    22460104.183
  23665207.298    -2825967.798 5  -4394040.505 6  23665225.375    23665228.343
  20698644.097     -661867.520 8   -515739.926 9  20698658.247    20698656.958
 92  8  4  0 26 30.0000000  0  5  3 23 26 21 17
  20568326.114      243790.203 8    189967.185 9  20568345.331    20568344.671
  20960402.695    -2899661.237 8  -2259473.280 9  20960420.743    20960419.753
  22460497.871      285104.628 7    162985.315 8  22460517.687    22460515.948
  23662297.093    -2841250.663 5  -4405949.215 7  23662316.249    23662319.337
  20698334.591     -663460.723 8   -516981.382 9  20698354.947    20698353.988
 92  8  4  0 26 35.0000000  0  5  3 23 26 21 17
  20568766.149      246108.707 8    191773.808 9  20568786.505    20568786.176
  20959148.543    -2906243.649 8  -2264602.425 9  20959168.000    20959166.801
  22460909.576      287280.173 7    164680.546 8  22460931.671    22460930.082
  23659385.598    -2856531.521 5  -4417856.346 7  23659409.821    23659411.590
  20698032.820     -665051.829 8   -518221.200 9  20698052.277    20698050.987
 92  8  4  0 26 40.0000000  0  5  3 23 26 21 17
  20569209.632      248437.860 8    193588.736 9  20569229.809    20569229.149
  20957897.809    -2912818.527 8  -2269725.704 9  20957916.846    20957915.497
  22461327.517      289467.244 7    166384.758 8  22461348.202    22461346.044
  23656480.309    -2871809.979 5  -4429761.605 6  23656502.164    23656504.533
  20697732.638     -666640.928 8   -519459.462 9  20697749.726    20697748.617
 92  8  4  0 26 45.0000000  0  5  3 23 26 21 17
  20569655.124      250777.889 8    195412.133 9  20569675.180    20569674.491
  20956647.015    -2919385.666 8  -2274842.951 9  20956667.281    20956666.022
  22461747.646      291666.247 7    168098.271 8  22461766.233    22461764.674
  23653570.944    -2887085.542 5  -4441664.622 7  23653594.957    23653597.805
  20697430.087     -668227.699 8   -520695.903 9  20697447.925    20697446.546
 92  8  4  0 26 50.0000000  0  5  3 23 26 21 17
  20570100.616      253128.631 8    197243.881 9  20570122.171    20570121.901
  20955399.879    -2925945.442 8  -2279954.450 9  20955418.885    20955418.136
  22462166.696      293877.113 7    169821.033 8  22462186.962    22462185.373
  23650668.053    -2902358.139 5  -4453565.313 7  23650688.649    23650691.467
  20697126.158     -669812.353 8   -521930.701 9  20697146.184    20697145.105
 92  8  4  0 26 55.0000000  0  5  3 23 26 21 17
  20570551.683      255489.818 8    199083.771 9  20570571.740    20570571.320
  20954150.284    -2932498.168 8  -2285060.469 9  20954171.659    20954170.909
  22462591.921      296099.333 7    171552.636 8  22462609.609    22462608.020
  23647762.465    -2917628.110 6  -4465463.969 7  23647782.821    23647785.639
  20696821.599     -671395.389 8   -523164.230 9  20696845.012    20696843.693
 92  8  4  0 27  0.0000000  0  5  3 23 26 21 17
  20571000.713      257861.742 8    200932.024 9  20571022.927    20571022.807
  20952907.194    -2939043.306 8  -2290160.570 9  20952926.591    20952925.452
  22463014.539      298333.215 7    173293.331 8  22463034.535    22463033.216
  23644862.782    -2932894.961 5  -4477360.193 7  23644877.652    23644880.260
  20696527.892     -672976.461 8   -524396.237 9  20696544.261    20696542.852
 92  8  4  0 27  5.0000000  0  5  3 23 26 21 17
  20571458.586      260244.655 8    202788.834 9  20571476.483    20571476.423
  20951663.805    -2945580.766 8  -2295254.686 9  20951682.362    20951681.283
  22463443.272      300578.881 7    175043.196 8  22463462.099    22463460.390
  23641950.688    -2948158.350 5  -4489253.715 7  23641972.903    23641975.841
  20696224.112     -674555.487 8   -525626.644 9  20696243.719    20696242.340
 92  8  4  0 27 10.0000000  0  5  3 23 26 21 17
  20571911.572      262638.601 8    204654.251 9  20571932.018    20571931.688
  20950421.135    -2952110.739 8  -2300342.971 9  20950439.782    20950438.643
  22463871.435      302836.634 7    176802.497 8  22463891.641    22463890.172
  23639044.800    -2963418.098 6  -4501144.397 7  23639068.993    23639071.661
  20695925.399     -676132.441 8   -526855.441 9  20695943.716    20695942.217
 92  8  4  0 27 15.0000000  0  5  3 23 26 21 17
  20572369.865      265043.429 8    206528.147 9  20572389.741    20572389.561
  20949178.436    -2958633.527 8  -2305425.653 9  20949198.372    20949197.322
  22464305.085      305106.231 7    178571.012 8  22464323.462    22464322.293
  23636147.276    -2978674.530 6  -4513032.507 7  23636165.953    23636168.591
  20695623.898     -677707.698 8   -528082.917 9  20695643.834    20695642.545
 92  8  4  0 27 20.0000000  0  5  3 23 26 21 17
  20572828.877      267459.281 8    208410.630 9  20572849.083    20572848.963
  20947939.183    -2965149.177 8  -2310502.776 9  20947958.550    20947957.501
  22464735.227      307387.475 7    180348.612 8  22464757.382    22464756.273
  23633243.426    -2993927.454 6  -4524917.877 7  23633263.962    23633265.791
  20695324.195     -679281.250 8   -529309.054 9  20695344.641    20695343.172
 92  8  4  0 27 25.0000000  0  5  3 23 26 21 17
  20573290.527      269886.099 8    210301.660 9  20573311.123    20573310.823
  20946699.572    -2971657.345 8  -2315574.070 9  20946719.958    20946718.878
  22465175.922      309680.632 7    182135.501 8  22465194.000    22465192.321
  23630344.823    -3009176.848 6  -4536800.491 7  23630362.391    23630364.189
  20695027.281     -680852.986 8   -530533.785 9  20695045.538    20695043.919
 92  8  4  0 27 30.0000000  0  5  3 23 26 21 17
  20573757.484      272323.699 8    212201.094 9  20573774.902    20573774.692
  20945462.628    -2978158.140 8  -2320639.620 9  20945482.984    20945481.965
  22465610.771      311985.480 7    183931.476 8  22465633.076    22465631.397
  23627441.393    -3024423.179 6  -4548680.730 7  23627460.519    23627463.098
  20694725.779     -682423.139 8   -531757.275 9  20694746.735    20694744.966
 92  8  4  0 27 35.0000000  0  5  3 23 26 21 17
  20574220.334      274772.468 8    214109.220 9  20574240.869    20574240.660
  20944227.933    -2984651.291 8  -2325699.211 9  20944247.299    20944246.370
  22466057.432      314302.479 7    185736.935 8  22466073.621    22466071.762
  23624545.727    -3039666.113 6  -4560558.317 7  23624559.788    23624562.456
  20694429.465     -683991.162 8   -532979.114 9  20694448.202    20694446.793
 92  8  4  0 27 40.0000000  0  5  3 23 26 21 17
  20574692.387      277231.769 8    216025.560 9  20574708.815    20574708.726
  20942995.306    -2991137.620 8  -2330753.489 9  20943013.174    20943012.094
  22466495.369      316631.046 7    187551.407 9  22466516.954    22466515.605
  23621642.177    -3054906.161 6  -4572433.657 7  23621660.285    23621662.263
  20694128.083     -685557.909 8   -534199.952 9  20694149.818    20694148.349
 92  8  4  0 27 45.0000000  0  5  3 23 26 21 17
  20575159.074      279701.980 8    217950.402 9  20575179.040    20575178.470
  20941758.572    -2997616.814 9  -2335802.204 9  20941779.947    20941779.228
  22466941.970      318971.357 7    189375.032 8  22466962.236    22466960.647
  23618741.296    -3070143.079 6  -4584306.553 7  23618760.213    23618762.551
  20693832.338     -687123.015 8   -535419.514 9  20693852.094    20693850.745
 92  8  4  0 27 50.0000000  0  5  3 23 26 21 17
  20575628.789      282183.492 8    219884.047 9  20575651.453    20575651.063
  20940526.965    -3004088.766 8  -2340845.279 9  20940548.520    20940547.681
  22467389.500      321323.556 7    191207.915 9  22467410.096    22467408.177
  23615840.684    -3085376.801 6  -4596176.965 7  23615861.759    23615863.558
  20693538.931     -688686.166 8   -536637.552 9  20693554.880    20693553.591
 92  8  4  0 27 55.0000000  0  5  3 23 26 21 17
  20576103.060      284676.126 8    221826.367 9  20576125.575    20576125.245
  20939296.587    -3010553.613 8  -2345882.811 9  20939318.022    20939317.392
  22467841.557      323687.108 7    193049.647 8  22467859.874    22467857.806
  23612939.892    -3100607.779 6  -4608045.230 7  23612963.665    23612965.374
  20693237.730     -690247.632 8   -537854.274 9  20693257.696    20693256.587
 92  8  4  0 28  0.0000000  0  5  3 23 26 21 17
  20576581.319      287179.280 8    223776.875 9  20576602.005    20576601.495
  20938069.356    -3017011.908 9  -2350915.246 9  20938089.292    20938088.363
  22468292.625      326061.440 7    194899.782 8  22468311.572    22468310.193
  23610043.867    -3115836.403 6  -4619911.668 7  23610065.002    23610067.730
  20692941.145     -691808.167 8   -539070.280 9  20692960.991    20692959.402
 92  8  4  0 28  5.0000000  0  5  3 23 26 21 17
  20577058.709      289692.971 8    225735.599 9  20577080.324    20577080.114
  20936841.766    -3023463.527 9  -2355942.476 9  20936861.432    20936860.563
  22468743.333      328446.768 7    196758.480 8  22468765.397    22468763.988
  23607143.585    -3131062.650 6  -4631776.254 7  23607167.718    23607170.176
  20692644.290     -693367.725 9   -540285.515 9  20692663.717    20692662.698
 92  8  4  0 28 10.0000000  0  5  3 23 26 21 17
  20577542.004      292217.887 8    227703.057 9  20577560.501    20577560.561
  20935615.825    -3029907.704 9  -2360963.905 9  20935635.311    20935634.592
  22469201.386      330843.737 7    198626.255 8  22469221.412    22469220.213
  23604251.637    -3146285.737 6  -4643638.371 7  23604270.943    23604273.551
  20692345.128     -694925.422 9   -541499.305 9  20692367.312    20692366.233
 92  8  4  0 28 15.0000000  0  5  3 23 26 21 17
  20578022.182      294753.918 8    229679.193 9  20578043.257    20578043.167
  20934388.954    -3036344.703 9  -2365979.740 9  20934410.269    20934409.310
  22469662.676      333252.222 7    200503.000 8  22469679.884    22469678.505
  23601350.425    -3161505.900 6  -4655498.214 7  23601374.768    23601377.257
  20692050.701     -696481.415 8   -542711.767 9  20692071.327    20692070.158
 92  8  4  0 28 20.0000000  0  5  3 23 26 21 17
  20578508.715      297300.613 8    231663.628 9  20578527.932    20578527.812
  20933165.441    -3042775.039 9  -2370990.386 9  20933186.696    20933185.647
  22470116.142      335671.729 7    202388.332 9  22470140.425    22470138.956
  23598456.798    -3176723.654 6  -4667356.194 7  23598479.253    23598481.111
  20691757.055     -698036.138 9   -543923.240 9  20691775.312    20691774.203
 92  8  4  0 28 25.0000000  0  5  3 23 26 21 17
  20578994.289      299858.462 8    233656.763 9  20579014.465    20579014.705
  20931943.577    -3049198.258 9  -2375995.482 9  20931964.503    20931963.213
  22470581.300      338102.498 7    204282.446 8  22470602.795    22470601.416
  23595560.833    -3191938.536 6  -4679211.905 7  23595583.587    23595585.566
  20691459.151     -699589.118 8   -545133.352 9  20691479.956    20691478.637
 92  8  4  0 28 30.0000000  0  5  3 23 26 21 17
  20579484.929      302427.340 8    235658.478 9  20579503.516    20579503.306
  20930721.083    -3055614.547 9  -2380995.192 9  20930743.238    20930742.369
  22471047.508      340544.165 7    206185.046 8  22471067.504    22471066.095
  23592664.508    -3207150.794 6  -4691065.598 7  23592688.701    23592690.770
  20691166.943     -701140.635 8   -546342.328 9  20691184.691    20691183.642
 92  8  4  0 28 35.0000000  0  5  3 23 26 21 17
  20579975.809      305007.155 8    237668.731 9  20579994.216    20579994.097
  20929505.275    -3062023.657 9  -2385989.298 9  20929523.682    20929522.963
  22471512.785      342996.584 7    208096.022 9  22471533.861    22471533.111
  23589773.939    -3222360.592 6  -4702917.353 7  23589795.015    23589795.974
  20690868.620     -702690.667 8   -547550.147 9  20690890.085    20690888.796
 92  8  4  0 28 40.0000000  0  5  3 23 26 21 17
  20580468.338      307597.703 8    239687.342 9  20580487.555    20580487.495
  20928283.711    -3068425.973 9  -2390978.106 9  20928305.476    20928304.516
  22471979.592      345459.205 7    210014.952 8  22472002.736    22472001.567
  23586881.512    -3237568.428 6  -4714767.603 7  23586900.519    23586902.137
  20690574.793     -704239.528 9   -548757.046 9  20690595.329    20690593.830
 92  8  4  0 28 45.0000000  0  5  3 23 26 21 17
  20580962.336      310199.352 8    241714.599 9  20580982.362    20580982.242
  20927069.221    -3074821.200 9  -2395961.396 9  20927088.588    20927087.689
  22472453.654      347932.407 7    211942.131 8  22472473.440    22472472.271
  23583989.983    -3252774.027 5  -4726616.097 7  23584007.311    23584008.960
  20690280.967     -705786.836 9   -549962.741 9  20690300.603    20690299.254
 92  8  4  0 28 50.0000000  0  5  3 23 26 21 17
  20581453.756      312811.589 8    243750.111 9  20581479.388    20581479.358
  20925850.625    -3081209.900 9  -2400939.595 9  20925872.780    20925871.940
  22472929.065      350415.669 7    213877.140 8  22472945.943    22472944.684
  23581097.226    -3267977.786 5  -4738463.171 7  23581114.374    23581115.903
  20689987.020     -707332.866 9   -551167.438 9  20690006.237    20690004.948
 92  8  4  0 28 55.0000000  0  5  3 23 26 21 17
  20581957.917      315434.656 8    245794.060 9  20581978.663    20581978.513
  20924637.605    -3087591.955 9  -2405912.619 9  20924658.530    20924657.301
  22473399.859      352909.012 7    215820.011 8  22473420.425    22473419.016
  23578200.571    -3283179.957 5  -4750308.995 7  23578220.717    23578222.366
  20689694.572     -708877.307 9   -552370.891 9  20689712.500    20689711.181
 92  8  4  0 29  0.0000000  0  5  3 23 26 21 17
  20582459.890      318068.836 8    247846.669 9  20582479.976    20582479.586
  20923424.195    -3093966.925 9  -2410880.122 9  20923444.970    20923444.131
  22473876.169      355412.911 7    217771.106 8  22473896.945    22473895.476
  23575308.773    -3298380.519 5  -4762153.570 7  23575328.590    23575329.729
  20689399.487     -710419.652 9   -553572.712 9  20689419.363    20689417.984
 92  8  4  0 29  5.0000000  0  5  3 23 26 21 17
  20582962.851      320714.236 8    249908.021 9  20582983.237    20582983.207
  20922211.145    -3100334.665 9  -2415841.986 9  20922233.449    20922232.430
  22474354.728      357927.899 7    219730.838 8  22474375.624    22474374.484
  23572413.558    -3313579.409 5  -4773996.829 7  23572436.462    23572437.241
  20689105.360     -711959.554 9   -554772.650 9  20689125.926    20689124.697
 92  8  4  0 29 10.0000000  0  5  3 23 26 21 17
  20583469.591      323370.432 8    251977.785 9  20583488.867    20583488.717
  20921003.701    -3106695.607 9  -2420798.565 9  20921022.827    20921021.928
  22474835.745      360453.517 7    221698.857 8  22474855.891    22474855.501
  23569520.351    -3328777.200 5  -4785839.266 7  23569544.304    23569545.773
  20688813.123     -713497.650 9   -555971.163 9  20688833.419    20688832.130
 92  8  4  0 29 15.0000000  0  5  3 23 26 21 17
  20583976.330      326037.767 8    254056.234 9  20583996.266    20583996.026
  20919795.357    -3113049.362 9  -2425749.526 9  20919814.004    20919812.985
  22475317.511      362990.135 7    223675.448 8  22475338.707    22475337.987
  23566634.129    -3343973.763 5  -4797680.702 7  23566652.416    23566653.735
  20688519.356     -715033.612 9   -557168.013 9  20688541.181    20688539.682
 92  8  4  0 29 20.0000000  0  5  3 23 26 21 17
  20584486.007      328716.390 8    256143.473 9  20584506.123    20584506.273
  20918587.523    -3119395.965 9  -2430694.936 9  20918606.350    20918605.301
  22475798.888      365537.963 7    225660.774 8  22475823.501    22475822.602
  23563744.969    -3359168.771 5  -4809520.959 7  23563761.218    23563762.237
  20688232.155     -716566.985 9   -558362.851 9  20688249.303    20688248.104
 92  8  4  0 29 25.0000000  0  5  3 23 26 21 17
  20584992.326      331406.084 8    258239.338 9  20585017.839    20585017.659
  20917379.420    -3125735.613 9  -2435634.914 9  20917399.835    20917398.666
  22476288.030      368096.742 7    227654.629 8  22476310.604    22476309.405
  23560847.295    -3374362.476 5  -4821360.184 7  23560869.659    23560870.859
  20687937.309     -718097.951 9   -559555.812 9  20687958.115    20687956.616
 92  8  4  0 29 30.0000000  0  5  3 23 26 21 17
  20585510.668      334106.873 8    260343.845 9  20585531.743    20585531.683
  20916172.215    -3132068.179 9  -2440569.373 9  20916194.760    20916193.590
  22476779.899      370666.176 7    229656.791 8  22476799.446    22476798.576
  23557959.754    -3389555.068 5  -4833198.559 7  23557978.641    23557979.600
  20687646.300     -719626.562 9   -560746.938 9  20687667.046    20687665.697
 92  8  4  0 29 35.0000000  0  5  3 23 26 21 17
  20586028.679      336818.773 8    262457.020 9  20586047.626    20586047.956
  20914970.048    -3138393.512 9  -2445498.199 9  20914991.153    20914990.104
  22477268.561      373246.346 7    231667.320 8  22477290.356    22477289.456
  23555063.129    -3404746.499 5  -4845036.014 7  23555087.922    23555088.911
  20687359.279     -721152.545 9   -561936.012 9  20687376.787    20687375.348
 92  8  4  0 29 40.0000000  0  5  3 23 26 21 17
  20586546.361      339542.078 8    264579.076 9  20586566.177    20586565.937
  20913768.839    -3144711.402 9  -2450421.226 9  20913788.865    20913788.086
  22477760.370      375837.758 7    233686.603 8  22477783.604    22477782.675
  23552173.040    -3419936.388 5  -4856872.264 7  23552197.053    23552198.192
  20687067.971     -722675.569 9   -563122.782 9  20687087.008    20687085.689
 92  8  4  0 29 45.0000000  0  5  3 23 26 21 17
  20587063.143      342276.550 8    266709.827 9  20587086.377    20587086.167
  20912567.451    -3151022.027 9  -2455338.589 9  20912588.077    20912586.847
  22478262.073      378440.371 7    235714.620 8  22478278.981    22478278.082
  23549283.730    -3435125.062 5  -4868707.571 7  23549306.424    23549308.223
  20686778.102     -724195.999 9   -564307.535 9  20686797.738    20686796.119
 92  8  4  0 29 50.0000000  0  5  3 23 26 21 17
  20587587.929      345021.985 8    268849.132 9  20587608.735    20587608.495
  20911368.191    -3157325.646 9  -2460250.493 9  20911388.367    20911387.438
  22478757.270      381054.127 7    237751.319 8  22478776.427    22478775.468
  23546396.549    -3450312.578 5  -4880541.980 7  23546416.755    23546417.684
  20686488.622     -725713.811 8   -565490.243 9  20686508.708    20686507.449
 92  8  4  0 29 55.0000000  0  5  3 23 26 21 17
  20588114.005      347778.504 8    270997.070 9  20588133.252    20588132.982
  20910171.659    -3163622.215 9  -2465156.905 9  20910190.067    20910189.017
  22479257.204      383679.075 7    239796.759 8  22479275.611    22479274.832
  23543505.440    -3465498.755 6  -4892375.351 7  23543526.636    23543527.985
  20686199.052     -727228.880 9   -566670.817 9  20686220.488    20686218.989
 92  8  4  0 30  0.0000000  0  5  3 23 26 21 17
  20588640.471      350546.122 8    273153.652 9  20588660.017    20588659.837
  20908975.158    -3169911.581 9  -2470057.705 9  20908993.475    20908992.396
  22479761.065      386315.231 7    241850.884 8  22479777.524    22479776.624
  23540618.499    -3480683.674 6  -4904207.721 7  23540637.266    23540638.705
  20685909.753     -728741.189 9   -567849.235 9  20685932.777    20685931.128
 92  8  4  0 30  5.0000000  0  5  3 23 26 21 17
  20589166.936      353324.930 8    275318.956 9  20589188.791    20589188.731
  20907778.896    -3176193.517 9  -2474952.713 9  20907797.903    20907796.793
  22480259.320      388962.839 7    243913.962 8  22480280.905    22480280.006
  23537731.528    -3495867.286 6  -4916039.089 7  23537748.466    23537748.796
  20685628.487     -730250.524 8   -569025.339 9  20685645.516    20685643.987
 92  8  4  0 30 10.0000000  0  5  3 23 26 21 17
  20589697.929      356114.863 8    277492.930 9  20589719.694    20589719.334
  20906585.632    -3182467.988 9  -2479841.905 9  20906603.799    20906602.780
  22480766.539      391622.029 7    245986.054 8  22480787.015    22480785.996
  23534839.819    -3511049.519 6  -4927869.383 7  23534858.586    23534860.175
  20685341.646     -731757.034 8   -570199.242 9  20685358.854    20685357.325
 92  8  4  0 30 15.0000000  0  5  3 23 26 21 17
  20590234.257      358915.578 8    279675.306 9  20590252.815    20590252.695
  20905390.569    -3188735.132 9  -2484725.386 9  20905411.345    20905410.356
  22481278.045      394292.497 7    248066.948 8  22481295.283    22481294.324
  23531952.159    -3526230.558 6  -4939698.730 7  23531969.367    23531971.045
  20685053.815     -733261.312 8   -571371.402 9  20685072.522    20685071.233
 92  8  4  0 30 20.0000000  0  5  3 23 26 21 17
  20590771.665      361727.783 8    281866.637 9  20590787.914    20590787.524
  20904200.243    -3194994.163 9  -2489602.553 9  20904220.239    20904219.400
  22481785.684      396975.275 7    250157.416 8  22481805.860    22481804.690
  23529057.872    -3541409.532 5  -4951526.481 7  23529080.297    23529082.605
  20684770.571     -734762.564 8   -572541.212 9  20684786.790    20684785.351
 92  8  4  0 30 25.0000000  0  5  3 23 26 21 17
  20591306.525      364550.935 8    284066.493 9  20591325.172    20591324.902
  20903009.438    -3201245.505 9  -2494473.721 9  20903030.603    20903029.644
  22482299.018      399670.032 7    252257.241 8  22482318.505    22482317.515
  23526173.449    -3556586.824 5  -4963352.923 6  23526193.325    23526194.584
  20684483.970     -736261.010 8   -573708.824 9  20684501.777    20684500.308
 92  8  4  0 30 30.0000000  0  5  3 23 26 21 17
  20591848.250      367385.497 8    286275.238 9  20591864.889    20591864.019
  20901821.030    -3207488.917 9  -2499338.709 9  20901842.526    20901841.566
  22482810.584      402376.939 7    254366.524 8  22482833.968    22482832.769
  23523288.456    -3571762.136 5  -4975177.808 7  23523305.035    23523306.204
  20684199.407     -737756.537 8   -574874.174 9  20684217.005    20684215.865
 92  8  4  0 30 35.0000000  0  5  3 23 26 21 17
  20592384.099      370231.019 8    288492.531 9  20592406.074    20592405.834
  20900635.351    -3213724.633 9  -2504197.703 9  20900655.977    20900654.808
  22483333.422      405095.784 7    256485.101 8  22483351.410    22483350.241
  23520396.239    -3586935.934 5  -4987001.529 7  23520416.564    23520420.342
  20683915.563     -739249.535 8   -576037.546 9  20683933.101    20683931.362
 92  8  4  0 30 40.0000000  0  5  3 23 26 21 17
  20592930.381      373088.084 8    290718.816 9  20592949.808    20592949.448
  20899452.730    -3219952.152 9  -2509050.312 9  20899470.807    20899469.848
  22483851.523      407826.867 7    258613.217 8  22483870.710    22483869.931
  23517512.325    -3602107.794 5  -4998823.720 7  23517530.133    23517532.291
  20683631.000     -740739.600 8   -577198.635 9  20683649.437    20683647.849
 92  8  4  0 30 45.0000000  0  5  3 23 26 21 17
  20593477.142      375956.558 8    292953.991 9  20593495.370    20593495.280
  20898269.539    -3226171.427 9  -2513896.492 9  20898287.437    20898286.357
  22484372.503      410569.379 7    260751.022 8  22484393.009    22484392.229
  23514627.182    -3617277.538 5  -5010644.287 7  23514643.371    23514645.470
  20683347.457     -742226.606 8   -578357.340 9  20683366.343    20683365.144
 92  8  4  0 30 50.0000000  0  5  3 23 26 21 17
  20594023.244      378836.074 8    295197.768 9  20594043.450    20594043.480
  20897086.378    -3232382.833 9  -2518736.544 9  20897105.385    20897104.665
  22484899.988      413325.884 7    262898.170 8  22484917.346    22484916.296
  23511737.243    -3632445.646 5  -5022463.554 6  23511756.520    23511758.558
  20683065.352     -743710.868 8   -579513.902 9  20683083.969    20683082.590
 92  8  4  0 30 55.0000000  0  5  3 23 26 21 17
  20594570.216      381726.872 8    297450.334 9  20594593.659    20594593.450
  20895909.093    -3238586.166 9  -2523570.307 9  20895925.012    20895923.993
  22485429.811      416093.655 7    265054.872 8  22485443.721    22485442.762
  23508854.529    -3647611.911 5  -5034281.406 6  23508870.717    23508872.876
  20682781.628     -745192.040 8   -580668.060 9  20682801.834    20682800.695
 92  8  4  0 31  0.0000000  0  5  3 23 26 21 17
  20595123.723      384628.903 8    299711.659 9  20595145.847    20595145.487
  20894728.570    -3244781.411 9  -2528397.760 9  20894745.838    20894745.419
  22485954.208      418873.703 7    267221.152 8  22485972.975    22485971.896
  23505964.589    -3662776.251 5  -5046097.736 6  23505984.975    23505987.643
  20682505.459     -746670.272 8   -581819.927 9  20682520.359    20682519.610
 92  8  4  0 31  5.0000000  0  5  3 23 26 21 17
  20595678.548      387542.014 8    301981.618 9  20595700.104    20595699.744
  20893551.495    -3250968.600 9  -2533218.942 9  20893568.464    20893567.834
  22486483.371      421666.089 7    269397.037 8  22486504.597    22486503.428
  23503079.507    -3677938.678 5  -5057912.579 6  23503099.533    23503101.272
  20682221.736     -748145.655 8   -582969.569 9  20682239.843    20682238.704
 92  8  4  0 31 10.0000000  0  5  3 23 26 21 17
  20596236.672      390466.220 8    304260.214 9  20596256.848    20596256.548
  20892373.431    -3257147.627 9  -2538033.762 9  20892392.648    20892391.928
  22487019.251      424470.899 7    271582.605 8  22487038.257    22487037.118
  23500200.060    -3693099.049 5  -5069725.829 6  23500214.330    23500217.058
  20681940.501     -749618.228 8   -584117.029 9  20681959.627    20681958.728
 92  8  4  0 31 15.0000000  0  5  3 23 26 21 17
  20596799.263      393401.818 8    306547.698 9  20596815.242    20596815.301
  20891198.124    -3263318.089 9  -2542841.909 9  20891218.271    20891217.941
  22487556.479      427288.446 7    273778.095 8  22487574.256    22487573.357
  23497314.048    -3708257.082 5  -5081537.257 6  23497329.787    23497332.665
  20681660.494     -751087.989 8   -585262.293 9  20681679.981    20681678.872
 92  8  4  0 31 20.0000000  0  5  3 23 26 21 17
  20597358.166      396349.018 8    308844.212 9  20597376.213    20597376.033
  20890023.987    -3269479.645 9  -2547643.113 9  20890045.692    20890045.153
  22488095.625      430119.102 7    275983.805 8  22488113.193    22488112.174
  23494428.546    -3723412.269 5  -5093346.467 6  23494445.484    23494448.212
  20681381.987     -752554.848 8   -586405.303 9  20681400.874    20681399.645
 92  8  4  0 31 25.0000000  0  5  3 23 26 21 17
  20597922.675      399307.402 8    311149.450 9  20597939.283    20597938.954
  20888855.007    -3275632.927 9  -2552437.872 9  20888874.913    20888874.223
  22488633.123      432962.325 7    278199.301 8  22488654.019    22488653.299
  23491543.163    -3738564.866 5  -5105153.657 6  23491562.110    23491564.988
  20681102.011     -754019.479 8   -587546.566 9  20681122.247    20681121.048
 92  8  4  0 31 30.0000000  0  5  3 23 26 21 17
  20598484.576      402277.353 8    313463.696 9  20598504.242    20598503.972
  20887684.827    -3281777.575 9  -2557225.904 9  20887705.632    20887704.973
  22489176.047      435818.237 7    280424.692 8  22489197.273    22489196.493
  23488662.517    -3753714.593 5  -5116958.611 6  23488679.815    23488681.524
  20680825.482     -755481.566 8   -588685.850 9  20680844.040    20680842.571
 92  8  4  0 31 35.0000000  0  5  3 23 26 21 17
  20599052.593      405258.655 8    315786.791 9  20599071.839    20599071.569
  20886516.865    -3287913.675 9  -2562007.276 9  20886538.001    20886537.131
  22489721.430      438686.464 7    282659.681 8  22489743.105    22489742.595
  23485770.989    -3768861.661 5  -5128761.495 6  23485796.921    23485800.039
  20680548.384     -756941.132 8   -589823.175 9  20680566.432    20680564.993
 92  8  4  0 31 40.0000000  0  5  3 23 26 21 17
  20599622.258      408251.540 8    318118.907 9  20599641.085    20599640.845
  20885353.221    -3294041.068 8  -2566781.861 9  20885372.048    20885371.118
  22490273.887      441567.105 7    284904.332 8  22490291.155    22490290.586
  23482890.403    -3784005.981 5  -5140562.232 6  23482915.406    23482917.714
  20680271.976     -758398.017 8   -590958.407 9  20680289.124    20680287.565
 92  8  4  0 31 45.0000000  0  5  3 23 26 21 17
  20600193.363      411255.714 8    320459.822 9  20600212.939    20600212.789
  20884186.998    -3300159.744 9  -2571549.655 9  20884207.834    20884206.725
  22490823.467      444460.073 7    287158.595 8  22490841.694    22490841.125
  23480011.766    -3799147.911 5  -5152361.120 6  23480034.251    23480036.379
  20679996.316     -759852.587 8   -592091.837 9  20680012.355    20680011.126
 92  8  4  0 31 50.0000000  0  5  3 23 26 21 17
  20600767.076      414271.004 8    322809.394 9  20600786.802    20600786.802
  20883023.504    -3306270.072 9  -2576310.942 9  20883045.089    20883044.009
  22491376.374      447365.320 7    289422.422 8  22491394.631    22491393.972
  23477131.780    -3814287.786 5  -5164158.400 6  23477152.555    23477156.183
  20679718.349     -761304.939 9   -593223.541 9  20679736.187    20679734.538
 92  8  4  0 31 55.0000000  0  5  3 23 26 21 17
  20601341.628      417298.012 8    325168.101 9  20601362.733    20601362.553
  20881864.746    -3312371.678 9  -2581065.436 9  20881883.693    20881882.943
  22491927.633      450283.437 7    291696.282 8  22491949.757    22491949.188
  23474255.931    -3829425.132 5  -5175953.694 7  23474271.940    23474274.488
  20679443.889     -762754.598 8   -594353.139 9  20679460.258    20679458.669
 92  8  4  0 32  0.0000000  0  5  3 23 26 21 17
  20601917.050      420336.366 8    327535.654 9  20601940.583    20601940.973
  20880704.039    -3318464.712 9  -2585813.249 9  20880724.335    20880723.136
  22492488.604      453214.154 7    293979.964 8  22492507.551    22492506.712
  23471374.446    -3844560.209 5  -5187747.247 7  23471391.504    23471394.652
  20679166.611     -764201.913 9   -595480.915 9  20679184.688    20679183.249
 92  8  4  0 32  5.0000000  0  5  3 23 26 21 17
  20602499.307      423385.941 8    329911.940 9  20602521.101    20602521.251
  20879546.121    -3324549.455 9  -2590554.601 9  20879566.447    20879565.488
  22493047.987      456157.223 7    296273.258 8  22493067.413    22493066.454
  23468491.761    -3859693.319 5  -5199539.262 6  23468512.147    23468514.965
  20678892.361     -765647.086 9   -596607.026 9  20678909.569    20678908.100
 92  8  4  0 32 10.0000000  0  5  3 23 26 21 17
  20603082.793      426447.133 8    332297.285 9  20603103.718    20603103.538
  20878388.382    -3330625.672 9  -2595289.311 9  20878409.998    20878409.188
  22493609.019      459112.856 7    298576.361 8  22493629.944    22493628.955
  23465606.379    -3874824.209 5  -5211329.524 7  23465633.690    23465636.028
  20678615.382     -767089.770 9   -597731.189 9  20678635.379    20678633.490
 92  8  4  0 32 15.0000000  0  5  3 23 26 21 17
  20603669.606      429519.477 8    334691.316 9  20603688.433    20603688.253
  20877233.462    -3336693.782 9  -2600017.699 9  20877255.347    20877254.358
  22494177.185      462080.633 7    300888.928 8  22494194.453    22494193.854
  23462730.560    -3889953.309 5  -5223118.420 7  23462754.303    23462756.732
  20678339.603     -768530.456 9   -598853.801 9  20678361.308    20678359.480
 92  8  4  0 32 20.0000000  0  5  3 23 26 21 17
  20604257.200      432602.812 8    337093.916 9  20604275.247    20604274.917
  20876080.130    -3342754.013 9  -2604739.953 9  20876102.045    20876101.056
  22494743.313      465060.252 7    303210.708 8  22494761.451    22494761.331
  23459851.952    -3905080.692 5  -5234905.966 7  23459875.696    23459878.994
  20678068.921     -769969.517 9   -599975.142 9  20678087.358    20678085.919
 92  8  4  0 32 25.0000000  0  5  3 23 26 21 17
  20604846.232      435697.582 8    339505.421 9  20604864.309    20604863.979
  20874926.889    -3348806.094 9  -2609455.859 9  20874950.453    20874949.493
  22495311.300      468051.862 7    305541.834 8  22495330.876    22495330.457
  23456978.532    -3920205.884 5  -5246691.815 7  23456997.838    23457000.447
  20677793.172     -771406.550 9   -601094.909 9  20677813.827    20677812.179
 92  8  4  0 32 30.0000000  0  5  3 23 26 21 17
  20605435.924      438803.961 8    341925.981 9  20605455.350    20605454.960
  20873776.615    -3354849.813 9  -2614165.239 9  20873800.629    20873799.160
  22495882.315      471055.637 7    307882.435 8  22495902.401    22495901.951
  23454099.924    -3935328.533 5  -5258475.668 7  23454120.071    23454122.589
  20677523.928     -772841.321 9   -602212.910 9  20677540.836    20677539.307
 92  8  4  0 32 35.0000000  0  5  3 23 26 21 17
  20606030.052      441921.883 8    344355.526 9  20606048.549    20606048.280
  20872630.119    -3360885.236 9  -2618868.142 9  20872652.124    20872650.805
  22496452.940      474071.635 7    310232.571 8  22496476.204    22496475.874
  23451222.636    -3950448.621 5  -5270257.532 7  23451242.782    23451244.911
  20677250.427     -774273.650 9   -603329.005 9  20677268.085    20677266.616
 92  8  4  0 32 40.0000000  0  5  3 23 26 21 17
  20606626.369      445051.328 8    346794.054 9  20606644.087    20606643.757
  20871482.333    -3366912.627 9  -2623564.826 9  20871504.968    20871504.038
  22497028.811      477099.903 7    312592.265 8  22497052.734    22497052.015
  23448347.657    -3965566.260 5  -5282037.492 7  23448366.154    23448368.462
  20676975.368     -775703.435 9   -604443.120 9  20676996.113    20676994.465
 92  8  4  0 32 45.0000000  0  5  3 23 26 21 17
  20607222.657      448192.254 8    349241.521 9  20607241.843    20607241.633
  20870338.865    -3372932.041 8  -2628255.272 9  20870359.611    20870358.501
  22497607.800      480140.069 7    314961.215 8  22497631.334    22497630.854
  23445469.709    -3980681.659 5  -5293815.708 7  23445489.375    23445491.444
  20676706.664     -777130.833 8   -605555.382 9  20676724.472    20676722.943
 92  8  4  0 32 50.0000000  0  5  3 23 26 21 17
  20607822.272      451344.535 8    351697.843 9  20607841.848    20607841.338
  20869194.467    -3378943.477 8  -2632939.502 9  20869215.663    20869214.493
  22498192.545      483192.090 7    317339.427 8  22498211.972    22498211.432
  23442595.149    -3995794.906 5  -5305592.238 7  23442613.826    23442616.015
  20676436.041     -778555.907 8   -606665.828 9  20676453.279    20676451.600
 92  8  4  0 32 55.0000000  0  5  3 23 26 21 17
  20608422.426      454508.104 8    354162.969 9  20608443.681    20608443.471
  20868051.628    -3384947.188 8  -2637617.712 9  20868073.214    20868071.805
  22498774.383      486255.886 7    319726.805 8  22498794.978    22498794.049
  23439720.229    -4010906.126 5  -5317367.190 7  23439737.857    23439740.975
  20676163.440     -779978.712 8   -607774.501 9  20676182.567    20676180.888
 92  8  4  0 33  0.0000000  0  5  3 23 26 21 17
  20609026.058      457682.779 8    356636.736 9  20609047.703    20609047.643
  20866913.047    -3390943.365 8  -2642290.050 9  20866931.964    20866930.794
  22499361.766      489331.273 7    322123.204 8  22499379.933    22499379.454
  23436841.862    -4026015.456 5  -5329140.678 7  23436862.967    23436865.426
  20675893.897     -781399.485 8   -608881.600 9  20675912.064    20675910.535
 92  8  4  0 33  5.0000000  0  5  3 23 26 21 17
  20609632.748      460868.599 8    359119.198 9  20609653.854    20609653.524
  20865771.857    -3396932.065 8  -2646956.569 9  20865792.632    20865791.373
  22499949.899      492418.195 7    324528.607 8  22499967.377    22499966.687
  23433971.079    -4041122.948 5  -5340912.725 7  23433988.347    23433990.806
  20675624.323     -782818.348 8   -609987.201 9  20675642.011    20675640.422
 92  8  4  0 33 10.0000000  0  5  3 23 26 21 17
  20610240.248      464066.063 8    361610.731 9  20610262.252    20610262.013
  20864634.174    -3402912.802 8  -2651616.876 9  20864654.380    20864653.241
  22500540.730      495517.173 7    326943.399 8  22500556.799    22500556.049
  23431095.890    -4056228.180 5  -5352683.013 7  23431114.297    23431116.456
  20675353.581     -784234.870 8   -611090.985 9  20675372.408    20675371.028
 92  8  4  0 33 15.0000000  0  5  3 23 26 21 17
  20610848.616      467275.143 8    364111.301 9  20610872.750    20610872.540
  20863496.522    -3408885.688 8  -2656271.069 9  20863517.747    20863516.638
  22501132.490      498628.242 7    329367.607 8  22501149.129    22501148.289
  23428218.932    -4071331.374 5  -5364451.717 7  23428239.707    23428242.705
  20675084.937     -785649.306 8   -612193.135 9  20675103.164    20675101.755
 92  8  4  0 33 20.0000000  0  5  3 23 26 21 17
  20611464.480      470495.791 8    366620.900 9  20611485.825    20611485.585
  20862363.067    -3414850.791 8  -2660919.192 9  20862382.793    20862381.654
  22501727.098      501751.429 7    331801.259 8  22501743.467    22501742.958
  23425352.046    -4086432.440 5  -5376218.760 7  23425365.717    23425368.835
  20674817.072     -787061.679 8   -613293.684 9  20674834.430    20674833.111
 92  8  4  0 33 25.0000000  0  5  3 23 26 21 17
  20612077.795      473727.745 8    369139.307 9  20612100.999    20612100.580
  20861229.551    -3420808.462 8  -2665561.524 9  20861248.978    20861247.569
  22502321.677      504886.576 7    334244.239 8  22502340.054    22502339.664
  23422472.899    -4101531.537 5  -5387984.260 7  23422492.446    23422495.324
  20674547.708     -788471.997 8   -614392.636 9  20674566.146    20674564.707
 92  8  4  0 33 30.0000000  0  5  3 23 26 21 17
  20612694.289      476971.471 8    371666.883 9  20612717.972    20612717.822
  20860099.154    -3426758.431 8  -2670197.865 9  20860116.572    20860115.403
  22502919.283      508033.867 7    336696.672 8  22502938.830    22502938.230
  23419597.200    -4116628.180 5  -5399747.857 7  23419619.805    23419622.413
  20674279.154     -789879.870 8   -615489.679 9  20674298.041    20674296.932
 92  8  4  0 33 35.0000000  0  5  3 23 26 21 17
  20613315.279      480226.660 8    374203.392 9  20613337.763    20613337.493
  20858968.217    -3432701.169 8  -2674828.564 9  20858985.815    20858984.555
  22503519.678      511192.685 7    339158.090 8  22503539.764    22503539.434
  23416727.317    -4131722.759 5  -5411509.837 7  23416747.193    23416750.191
  20674011.590     -791285.499 8   -616584.972 9  20674030.746    20674029.397
 92  8  4  0 33 40.0000000  0  5  3 23 26 21 17
  20613936.479      483493.649 8    376749.083 9  20613959.383    20613959.083
  20857840.547    -3438636.311 8  -2679453.345 9  20857856.287    20857855.237
  22504119.472      514363.362 7    341628.753 8  22504143.246    22504142.616
  23413859.532    -4146814.692 5  -5423269.762 7  23413874.492    23413877.640
  20673747.173     -792688.167 8   -617677.958 9  20673763.691    20673762.432
 92  8  4  0 33 45.0000000  0  5  3 23 26 21 17
  20614559.777      486772.070 8    379303.710 9  20614583.311    20614582.891
  20856710.090    -3444564.265 8  -2684072.525 9  20856728.257    20856727.298
  22504726.102      517545.419 7    344108.271 8  22504749.066    22504748.167
  23410982.814    -4161904.683 5  -5435028.166 7  23411003.649    23411005.868
  20673476.850     -794088.417 8   -618769.057 9  20673497.326    20673495.917
 92  8  4  0 33 50.0000000  0  5  3 23 26 21 17
  20615188.112      490061.899 8    381867.215 9  20615209.218    20615208.738
  20855584.639    -3450484.943 8  -2688686.036 9  20855601.667    20855600.498
  22505336.899      520738.688 7    346596.547 8  22505356.806    22505355.427
  23408114.490    -4176992.879 5  -5446785.180 7  23408131.878    23408135.445
  20673211.503     -795486.225 8   -619858.260 9  20673231.320    20673230.031
 92  8  4  0 33 55.0000000  0  5  3 23 26 21 17
  20615818.456      493363.410 8    384439.821 9  20615837.253    20615837.013
  20854458.619    -3456397.924 8  -2693293.550 9  20854476.426    20854475.437
  22505946.198      523943.620 7    349093.893 8  22505966.554    22505965.354
  23405243.827    -4192078.848 5  -5458540.457 7  23405261.185    23405264.243
  20672946.067     -796881.284 8   -620945.318 9  20672965.854    20672964.445
 92  8  4  0 34  0.0000000  0  5  3 23 26 21 17
  20616448.410      496676.386 8    387021.357 9  20616467.746    20616467.417
  20853333.108    -3462303.675 8  -2697895.424 9  20853352.624    20853351.605
  22506555.076      527159.946 7    351600.130 8  22506578.430    22506577.621
  23402375.742    -4207162.788 6  -5470294.154 7  23402390.942    23402393.490
  20672681.380     -798273.967 8   -622030.520 9  20672700.777    20672699.728
 92  8  4  0 34  5.0000000  0  5  3 23 26 21 17
  20617082.771      500000.830 8    389611.830 9  20617100.548    20617100.278
  20852210.175    -3468202.303 8  -2702491.751 9  20852230.111    20852229.122
  22507172.049      530387.404 7    354115.023 8  22507192.465    22507192.225
  23399501.062    -4222244.510 5  -5482046.117 7  23399520.999    23399523.067
  20672418.103     -799664.060 8   -623113.708 9  20672436.360    20672434.921
 92  8  4  0 34 10.0000000  0  5  3 23 26 21 17
  20617718.391      503337.047 8    392211.481 9  20617735.209    20617734.879
  20851088.682    -3474093.501 8  -2707082.292 9  20851109.187    20851108.108
  22507786.444      533626.073 7    356638.666 8  22507809.018    22507808.418
  23396636.635    -4237323.481 6  -5493795.931 7  23396651.475    23396653.424
  20672152.217     -801051.199 8   -624194.591 9  20672172.513    20672171.164
 92  8  4  0 34 15.0000000  0  5  3 23 26 21 17
  20618353.471      506684.695 8    394820.035 9  20618372.598    20618371.878
  20849969.526    -3479977.225 8  -2711667.001 9  20849989.463    20849988.353
  22508408.393      536875.504 7    359170.694 8  22508427.340    22508426.740
  23393768.371    -4252399.613 6  -5505543.546 7  23393782.911    23393785.070
  20671890.078     -802435.806 8   -625273.507 9  20671908.935    20671907.466
 92  8  4  0 34 20.0000000  0  5  3 23 26 21 17
  20618990.830      510043.879 8    397437.584 9  20619011.545    20619011.395
  20848849.652    -3485853.471 8  -2716245.896 9  20848871.327    20848870.367
  22509027.375      540135.561 7    361710.999 8  22509047.671    22509046.801
  23390897.289    -4267472.799 6  -5517288.861 7  23390914.317    23390917.015
  20671628.000     -803817.988 8   -626350.525 9  20671645.747    20671644.608
 92  8  4  0 34 25.0000000  0  5  3 23 26 21 17
  20619631.186      513414.653 8    400064.163 9  20619652.622    20619653.011
  20847734.304    -3491722.124 8  -2720818.862 9  20847754.420    20847753.401
  22509648.934      543406.176 7    364259.531 8  22509670.399    22509669.080
  23388028.485    -4282543.002 6  -5529031.856 7  23388046.832    23388049.170
  20671365.561     -805197.581 8   -627425.535 9  20671383.429    20671382.050
 92  8  4  0 34 30.0000000  0  5  3 23 26 21 17
  20620275.141      516796.944 8    402699.706 9  20620296.606    20620296.126
  20846619.825    -3497583.033 8  -2725385.800 9  20846639.222    20846638.233
  22510275.830      546687.328 7    366816.281 8  22510294.627    22510293.548
  23385159.381    -4297610.146 6  -5540772.463 6  23385179.107    23385181.506
  20671105.461     -806574.564 8   -628498.505 9  20671121.350    20671119.881
 92  8  4  0 34 35.0000000  0  5  3 23 26 21 17
  20620920.504      520191.048 8    405344.470 9  20620942.449    20620941.939
  20845506.756    -3503435.890 8  -2729946.461 9  20845525.283    20845524.354
  22510901.347      549979.104 7    369381.305 8  22510921.253    22510919.785
  23382295.404    -4312673.788 6  -5552510.344 7  23382312.822    23382315.460
  20670840.535     -807948.663 8   -629569.233 9  20670859.901    20670858.403
 92  8  4  0 34 40.0000000  0  5  3 23 26 21 17
  20621568.325      523596.569 8    407998.119 9  20621590.360    20621590.180
  20844396.085    -3509280.902 8  -2734501.011 9  20844413.233    20844412.124
  22511530.222      553281.355 7    371954.492 8  22511549.828    22511548.269
  23379425.041    -4327734.249 6  -5564245.736 7  23379447.016    23379449.594
  20670578.276     -809320.103 8   -630637.883 9  20670598.962    20670597.523
 92  8  4  0 34 45.0000000  0  5  3 23 26 21 17
  20622218.785      527013.732 8    410660.840 9  20622240.910    20622240.400
  20843286.433    -3515117.845 8  -2739049.279 9  20843302.442    20843301.423
  22512163.324      556594.363 7    374536.057 8  22512180.052    22512178.823
  23376565.560    -4342791.402 6  -5575978.559 6  23376581.929    23376583.998
  20670320.755     -810688.676 8   -631704.301 9  20670338.532    20670337.093
 92  8  4  0 34 50.0000000  0  5  3 23 26 21 17
  20622872.692      530441.989 8    413332.203 9  20622893.378    20622892.928
  20842176.302    -3520947.400 8  -2743591.781 9  20842193.000    20842192.071
  22512794.836      559917.703 7    377125.684 8  22512812.045    22512811.145
  23373699.095    -4357845.866 6  -5587709.290 6  23373716.813    23373718.971
  20670057.897     -812055.095 8   -632769.044 9  20670078.313    20670077.203
 92  8  4  0 34 55.0000000  0  5  3 23 26 21 17
  20623528.548      533882.054 8    416012.783 9  20623547.825    20623547.675
  20841068.389    -3526768.981 8  -2748128.066 9  20841085.387    20841084.397
  22513426.079      563252.029 7    379723.858 8  22513446.885    22513445.716
  23370836.976    -4372897.037 6  -5599437.456 6  23370852.985    23370854.844
  20669797.557     -813418.755 8   -633831.632 9  20669819.112    20669817.523
 92  8  4  0 35  0.0000000  0  5  3 23 26 21 17
  20624185.334      537333.738 8    418702.402 9  20624204.730    20624204.370
  20839960.655    -3532582.726 8  -2752658.255 9  20839978.943    20839977.864
  22514064.757      566596.831 7    382330.201 8  22514083.494    22514082.535
  23367969.431    -4387945.031 6  -5611163.153 6  23367989.008    23367990.986
  20669542.673     -814779.946 8   -634892.300 9  20669560.001    20669558.412
 92  8  4  0 35  5.0000000  0  5  3 23 26 21 17
  20624843.738      540796.851 8    421400.932 9  20624863.524    20624863.434
  20838853.972    -3538388.928 8  -2757182.559 9  20838874.148    20838873.158
  22514701.516      569951.682 7    384944.376 8  22514722.142    22514720.313
  23365108.992    -4402989.876 6  -5622886.383 6  23365126.290    23365128.088
  20669281.554     -816138.919 8   -635951.236 9  20669301.340    20669299.782
 92  8  4  0 35 10.0000000  0  5  3 23 26 21 17
  20625505.080      544271.774 8    424108.669 9  20625525.016    20625524.776
  20837752.054    -3544187.331 8  -2761700.786 9  20837770.881    20837769.832
  22515342.053      573317.206 7    387566.872 8  22515362.349    22515361.060
  23362245.074    -4418031.103 6  -5634606.793 6  23362264.171    23362265.820
  20669026.401     -817495.093 8   -637007.995 9  20669043.279    20669041.930
 92  8  4  0 35 15.0000000  0  5  3 23 26 21 17
  20626165.283      547758.247 8    426825.390 9  20626188.247    20626188.217
  20836649.508    -3549978.197 8  -2766213.147 9  20836668.814    20836667.705
  22515983.789      576693.240 7    390197.553 8  22516005.044    22516003.575
  23359381.427    -4433068.912 6  -5646324.547 6  23359402.652    23359404.241
  20668768.879     -818848.669 8   -638062.723 9  20668785.727    20668783.989
 92  8  4  0 35 20.0000000  0  5  3 23 26 21 17
  20626833.221      551256.633 8    429551.404 9  20626854.086    20626854.086
  20835550.139    -3555761.032 8  -2770719.246 9  20835568.426    20835567.287
  22516630.051      580080.152 7    392836.702 8  22516649.778    22516647.949
  23356523.535    -4448102.784 6  -5658039.225 6  23356541.942    23356543.262
  20668509.499     -820199.265 8   -639115.135 9  20668528.805    20668527.216
 92  8  4  0 35 25.0000000  0  5  3 23 26 21 17
  20627503.167      554766.407 8    432286.296 9  20627522.054    20627522.024
  20834451.909    -3561536.398 8  -2775219.528 9  20834469.597    20834468.368
  22517276.494      583477.166 7    395483.736 8  22517295.711    22517294.302
  23353669.061    -4463133.230 6  -5669751.236 6  23353681.773    23353683.631
  20668251.437     -821547.538 8   -640165.738 9  20668272.003    20668270.714
 92  8  4  0 35 30.0000000  0  5  3 23 26 21 17
  20628172.633      558287.831 8    435030.256 9  20628192.240    20628191.940
  20833355.238    -3567303.765 8  -2779713.574 9  20833371.757    20833370.857
  22517923.596      586884.612 7    398138.894 8  22517944.312    22517942.393
  23350806.673    -4478159.832 6  -5681460.262 7  23350822.682    23350823.671
  20667996.374     -822893.111 8   -641214.234 9  20668015.800    20668014.571
 92  8  4  0 35 35.0000000  0  5  3 23 26 21 17
  20628844.738      561821.120 8    437783.470 9  20628864.584    20628864.374
  20832259.407    -3573062.887 8  -2784201.197 9  20832275.925    20832274.906
  22518571.747      590302.658 7    400802.297 8  22518594.621    22518593.452
  23347948.632    -4493182.277 6  -5693166.049 7  23347963.741    23347964.940
  20667741.340     -824235.791 8   -642260.479 9  20667760.467    20667759.148
 92  8  4  0 35 40.0000000  0  5  3 23 26 21 17
  20629518.102      565366.358 8    440545.992 9  20629539.117    20629539.117
  20831160.398    -3578813.564 9  -2788682.242 9  20831181.533    20831180.424
  22519226.554      593731.368 7    403474.039 8  22519246.880    22519245.860
  23345087.592    -4508200.306 6  -5704868.378 7  23345106.389    23345107.109
  20667488.795     -825575.230 8   -643304.191 9  20667505.674    20667504.265
 92  8  4  0 35 45.0000000  0  5  3 23 26 21 17
  20630194.224      568923.054 8    443317.448 9  20630216.169    20630215.449
  20830068.404    -3584556.402 8  -2793157.174 9  20830088.910    20830087.800
  22519879.352      597170.047 7    406153.539 8  22519901.387    22519900.307
  23342231.499    -4523214.683 6  -5716567.881 7  23342249.157    23342250.266
  20667235.021     -826912.027 8   -644345.849 9  20667251.210    20667249.741
 92  8  4  0 35 50.0000000  0  5  3 23 26 21 17
  20630872.834      572491.429 8    446097.994 9  20630895.109    20630894.809
  20828975.960    -3590290.987 8  -2797625.672 9  20828997.485    20828996.766
  22520538.895      600618.994 7    408841.025 8  22520557.812    22520556.643
  23339376.576    -4538225.332 6  -5728264.469 7  23339392.825    23339393.994
  20666980.917     -828246.051 8   -645385.348 9  20666997.285    20666995.906
 92  8  4  0 35 55.0000000  0  5  3 23 26 21 17
  20631556.061      576071.213 8    448887.439 9  20631576.327    20631575.967
  20827889.092    -3596017.285 8  -2802087.717 9  20827907.979    20827906.930
  22521196.820      604078.290 7    411536.586 8  22521216.216    22521214.448
  23336519.074    -4553232.640 6  -5739958.454 7  23336537.122    23336538.441
  20666723.425     -829577.679 8   -646422.976 9  20666743.871    20666742.582
 92  8  4  0 36  0.0000000  0  5  3 23 26 21 17
  20632241.806      579662.988 8    451686.224 9  20632259.734    20632259.344
  20826798.537    -3601734.893 9  -2806542.982 9  20826819.763    20826818.743
  22521855.104      607548.363 7    414240.541 8  22521876.689    22521874.411
  23333667.658    -4568236.381 6  -5751649.655 7  23333681.928    23333682.857
  20666468.721     -830906.782 8   -647458.645 9  20666491.086    20666489.587
 92  8  4  0 36  5.0000000  0  5  3 23 26 21 17
  20632927.432      583266.422 8    454494.094 9  20632945.629    20632945.419
  20825713.978    -3607443.868 9  -2810991.538 9  20825733.495    20825732.415
  22522515.007      611029.096 7    416952.811 8  22522538.661    22522537.372
  23330808.897    -4583236.702 6  -5763338.197 7  23330827.124    23330828.833
  20666218.485     -832233.515 8   -648492.461 9  20666238.601    20666237.132
 92  8  4  0 36 10.0000000  0  5  3 23 26 21 17
  20633614.136      586881.515 8    457311.041 9  20633633.383    20633633.173
  20824628.969    -3613144.487 9  -2815433.575 9  20824648.696    20824647.616
  22523183.155      614520.450 7    419673.349 8  22523202.941    22523201.682
  23327956.192    -4598233.620 6  -5775024.102 7  23327973.400    23327974.749
  20665968.428     -833557.934 8   -649524.475 9  20665986.595    20665984.976
 92  8  4  0 36 15.0000000  0  5  3 23 26 21 17
  20634305.368      590508.245 8    460137.068 9  20634323.505    20634322.995
  20823543.181    -3618836.688 9  -2819869.052 9  20823565.516    20823564.586
  22523850.373      618022.610 7    422402.308 8  22523869.410    22523868.420
  23325102.528    -4613227.052 6  -5786707.270 7  23325119.945    23325121.265
  20665720.709     -834879.932 8   -650554.596 9  20665735.069    20665733.600
 92  8  4  0 36 20.0000000  0  5  3 23 26 21 17
  20634998.967      594146.811 8    462972.311 9  20635015.906    20635015.696
  20822462.789    -3624520.352 9  -2824297.879 9  20822484.014    20822482.785
  22524516.692      621535.911 7    425139.950 8  22524538.067    22524536.628
  23322245.925    -4628216.591 6  -5798387.408 7  23322267.570    23322269.759
  20665465.886     -836199.027 8   -651582.460 9  20665483.843    20665482.644
 92  8  4  0 36 25.0000000  0  5  3 23 26 21 17
  20635696.375      597797.128 8    465816.715 9  20635710.645    20635710.315
  20821382.907    -3630195.334 9  -2828719.936 9  20821403.832    20821402.753
  22525189.156      625060.576 7    427886.447 8  22525208.792    22525207.204
  23319394.089    -4643202.368 6  -5810064.616 7  23319415.944    23319417.983
  20665215.949     -837515.370 8   -652608.180 9  20665233.517    20665232.227
 92  8  4  0 36 30.0000000  0  5  3 23 26 21 17
  20636388.925      601459.501 8    468670.512 9  20636407.183    20636406.913
  20820306.622    -3635861.387 9  -2833135.033 9  20820326.018    20820324.759
  22525862.880      628597.127 7    430642.202 8  22525881.587    22525879.968
  23316544.052    -4658184.426 6  -5821738.933 6  23316564.738    23316566.417
  20664963.853     -838829.003 8   -653631.789 9  20664983.340    20664982.081
 92  8  4  0 36 35.0000000  0  5  3 23 26 21 17
  20637086.812      605133.725 8    471533.535 9  20637106.508    20637106.119
  20819232.076    -3641518.874 9  -2837543.459 9  20819249.254    20819248.174
  22526538.642      632145.687 7    433407.312 8  22526556.839    22526555.280
  23313693.896    -4673163.094 6  -5833410.605 7  23313713.982    23313716.020
  20664714.066     -840140.113 8   -654653.431 9  20664733.792    20664732.593
 92  8  4  0 36 40.0000000  0  5  3 23 26 21 17
  20637786.947      608819.262 8    474405.388 9  20637807.663    20637807.453
  20818155.401    -3647168.656 9  -2841945.888 9  20818174.198    20818172.969
  22527216.892      635705.890 7    436181.505 8  22527234.640    22527233.141
  23310844.368    -4688139.172 5  -5845080.243 6  23310863.675    23310865.863
  20664466.168     -841449.139 8   -655673.443 9  20664484.725    20664483.436
 92  8  4  0 36 45.0000000  0  5  3 23 26 21 17
  20638491.729      612516.767 8    477286.557 9  20638511.396    20638511.036
  20817078.696    -3652810.092 9  -2846341.805 9  20817100.671    20817099.442
  22527896.072      639278.637 7    438965.466 8  22527914.060    22527913.070
  23307991.573    -4703111.963 5  -5856747.337 6  23308014.387    23308017.056
  20664216.591     -842755.353 8   -656691.272 9  20664236.227    20664234.818
 92  8  4  0 36 50.0000000  0  5  3 23 26 21 17
  20639196.362      616226.400 8    480177.181 9  20639217.407    20639216.808
  20816009.996    -3658443.316 9  -2850731.322 9  20816028.703    20816027.294
  22528576.241      642864.186 7    441759.395 8  22528596.237    22528594.858
  23305145.553    -4718081.263 6  -5868411.704 6  23305165.999    23305167.918
  20663970.971     -844058.684 8   -657706.853 9  20663988.329    20663986.920
 92  8  4  0 36 55.0000000  0  5  3 23 26 21 17
  20639899.555      619947.991 8    483077.123 9  20639925.307    20639925.127
  20814939.287    -3664068.705 9  -2855114.740 9  20814958.324    20814957.005
  22529262.586      646462.269 7    444563.109 8  22529281.563    22529280.064
  23302297.615    -4733047.477 6  -5880073.662 6  23302318.121    23302319.530
  20663722.293     -845359.519 8   -658720.488 9  20663740.790    20663739.381
 92  8  4  0 37  0.0000000  0  5  3 23 26 21 17
  20640614.980      623681.137 8    485986.066 9  20640635.815    20640635.276
  20813872.206    -3669686.382 9  -2859492.143 9  20813889.234    20813888.065
  22529944.974      650072.764 7    447376.491 8  22529968.417    22529967.398
  23299453.154    -4748010.947 6  -5891733.484 6  23299470.752    23299472.041
  20663475.594     -846658.088 8   -659732.352 9  20663493.761    20663492.202
 92  8  4  0 37  5.0000000  0  5  3 23 26 21 17
  20641329.595      627425.820 8    488904.002 9  20641348.302    20641348.242
  20812805.155    -3675296.521 9  -2863863.676 9  20812821.703    20812820.264
  22530634.736      653695.531 7    450199.428 8  22530657.700    22530656.621
  23296605.156    -4762971.750 6  -5903391.232 6  23296624.013    23296625.122
  20663226.796     -847954.654 8   -660742.659 9  20663247.032    20663245.653
 92  8  4  0 37 10.0000000  0  5  3 23 26 21 17
  20642041.842      631182.490 8    491831.270 9  20642063.277    20642062.647
  20811736.275    -3680898.543 9  -2868228.885 9  20811755.671    20811754.262
  22531333.073      657330.916 7    453032.198 8  22531349.801    22531348.302
  23293757.937    -4777929.375 5  -5915046.513 6  23293777.633    23293778.443
  20662983.784     -849248.525 8   -661750.870 9  20663000.812    20662999.313
 92  8  4  0 37 15.0000000  0  5  3 23 26 21 17
  20642760.234      634950.978 8    494767.751 9  20642780.291    20642779.931
  20810671.262    -3686492.444 8  -2872587.763 9  20810691.168    20810689.789
  22532020.677      660978.686 7    455874.626 8  22532043.251    22532042.262
  23290912.097    -4792884.073 5  -5926699.491 6  23290931.674    23290932.993
  20662740.293     -850539.501 8   -662756.824 9  20662755.282    20662753.573
 92  8  4  0 37 20.0000000  0  5  3 23 26 21 17
  20643482.225      638731.791 8    497713.834 9  20643499.972    20643499.163
  20809607.419    -3692077.746 8  -2876939.938 9  20809628.134    20809626.875
  22532717.244      664639.363 7    458727.102 8  22532740.089    22532738.859
  23288073.242    -4807835.527 6  -5938349.938 6  23288086.553    23288087.692
  20662490.146     -851827.184 8   -663760.212 9  20662510.082    20662508.553
 92  8  4  0 37 25.0000000  0  5  3 23 26 21 17
  20644204.545      642525.011 8    500669.599 9  20644221.483    20644221.483
  20808549.901    -3697654.425 8  -2881285.396 9  20808566.899    20808565.850
  22533421.037      668313.168 7    461589.805 8  22533439.474    22533438.365
  23285226.263    -4822783.838 6  -5949997.968 6  23285241.912    23285243.232
  20662244.076     -853111.517 8   -664760.985 9  20662265.841    20662264.192
 92  8  4  0 37 30.0000000  0  5  3 23 26 21 17
  20644928.034      646329.485 8    503634.120 9  20644945.542    20644945.152
  20807488.276    -3703223.578 8  -2885624.995 9  20807507.103    20807506.113
  22534121.682      671998.927 7    464461.835 8  22534140.329    22534139.430
  23282383.301    -4837730.463 6  -5961644.652 6  23282397.092    23282399.250
  20662001.814     -854393.596 8   -665760.005 9  20662021.660    20662020.161
 92  8  4  0 37 35.0000000  0  5  3 23 26 21 17
  20645653.442      650145.603 8    506607.715 9  20645671.669    20645671.399
  20806427.790    -3708784.839 8  -2889958.438 9  20806448.985    20806447.726
  22534822.267      675696.811 7    467343.306 8  22534844.302    22534843.403
  23279537.162    -4852675.127 6  -5973289.829 6  23279554.520    23279554.939
  20661758.382     -855673.275 8   -666757.152 9  20661778.199    20661776.820
 92  8  4  0 37 40.0000000  0  5  3 23 26 21 17
  20646381.697      653973.640 8    509590.592 9  20646400.255    20646399.985
  20805372.430    -3714337.945 8  -2894285.532 9  20805392.247    20805390.958
  22535530.677      679407.008 7    470234.379 8  22535550.013    22535548.634
  23276694.740    -4867617.623 6  -5984933.309 6  23276710.838    23276711.558
  20661518.518     -856950.412 8   -667752.324 9  20661535.307    20661533.418
 92  8  4  0 37 45.0000000  0  5  3 23 26 21 17
  20647110.193      657813.728 8    512582.870 9  20647131.149    20647130.549
  20804317.761    -3719882.587 8  -2898606.021 9  20804337.247    20804335.898
  22536238.187      683129.716 7    473135.184 8  22536258.483    22536257.763
  23273846.801    -4882557.709 6  -5996574.910 6  23273867.607    23273868.296
  20661271.399     -858224.606 8   -668745.203 9  20661292.565    20661291.066
 92  8  4  0 37 50.0000000  0  5  3 23 26 21 17
  20647844.265      661665.687 8    515584.398 9  20647864.111    20647863.661
  20803267.857    -3725419.050 8  -2902920.146 9  20803283.507    20803282.397
  22536954.361      686864.909 7    476045.739 8  22536969.231    22536968.601
  23271009.445    -4897495.853 6  -6008214.997 6  23271025.125    23271024.975
  20661029.947     -859495.848 8   -669735.775 9  20661050.542    20661049.313
 92  8  4  0 37 55.0000000  0  5  3 23 26 21 17
  20648578.217      665529.363 8    518595.048 9  20648599.202    20648598.812
  20802211.179    -3730947.753 8  -2907228.220 9  20802231.295    20802230.246
  22537666.848      690612.377 7    478965.830 8  22537682.587    22537681.268
  23268162.586    -4912432.146 6  -6019853.648 6  23268182.822    23268183.212
  20660792.661     -860764.299 8   -670724.176 9  20660809.389    20660807.800
 92  8  4  0 38  0.0000000  0  5  3 23 26 21 17
  20649311.689      669405.010 8    521615.031 9  20649336.842    20649336.632
  20801161.036    -3736468.516 8  -2911530.101 9  20801180.792    20801179.743
  22538375.857      694372.319 7    481895.677 8  22538397.892    22538396.962
  23265318.005    -4927366.604 6  -6031490.859 6  23265340.190    23265341.929
  20660550.968     -862029.771 8   -671710.253 9  20660568.416    20660567.157
 92  8  4  0 38  5.0000000  0  5  3 23 26 21 17
  20650054.665      673292.429 8    524644.188 9  20650076.909    20650076.190
  20800111.612    -3741981.527 8  -2915825.952 9  20800131.908    20800130.649
  22539098.717      698144.778 7    484835.253 8  22539115.745    22539114.816
  23262479.990    -4942299.323 5  -6043126.706 6  23262498.847    23262500.316
  20660308.946     -863292.637 8   -672694.304 9  20660328.162    20660326.604
 92  8  4  0 38 10.0000000  0  5  3 23 26 21 17
  20650800.009      677191.678 8    527682.559 9  20650818.686    20650818.236
  20799066.206    -3747486.792 8  -2920115.761 9  20799084.314    20799082.994
  22539815.580      701929.708 7    487784.554 8  22539835.906    22539835.007
  23259635.589    -4957230.168 6  -6054761.108 6  23259657.294    23259658.014
  20660067.973     -864552.975 9   -673676.379 9  20660088.298    20660086.859
 92  8  4  0 38 15.0000000  0  5  3 23 26 21 17
  20651543.464      681103.231 8    530730.523 9  20651562.771    20651562.561
  20798016.243    -3752983.988 8  -2924399.287 9  20798038.038    20798036.839
  22540535.412      705727.454 7    490743.836 8  22540558.736    22540557.687
  23256800.632    -4972158.383 6  -6066393.452 6  23256816.611    23256818.050
  20659832.875     -865810.251 8   -674656.073 9  20659848.944    20659847.445
 92  8  4  0 38 20.0000000  0  5  3 23 26 21 17
  20652290.037      685026.466 8    533787.588 9  20652309.793    20652309.044
  20796970.927    -3758473.856 8  -2928677.101 9  20796993.561    20796992.062
  22541264.687      709537.446 7    493712.669 8  22541283.964    22541283.124
  23253955.152    -4987084.174 6  -6078023.911 6  23253975.867    23253977.846
  20659592.532     -867064.612 8   -675633.500 9  20659610.309    20659608.720
 92  8  4  0 38 25.0000000  0  5  3 23 26 21 17
  20653038.709      688961.419 8    536853.785 9  20653058.525    20653058.045
  20795929.747    -3763956.666 8  -2932949.416 9  20795949.893    20795949.024
  22541991.684      713359.461 7    496690.862 8  22542011.440    22542010.361
  23251115.877    -5002007.546 6  -6089652.499 7  23251136.773    23251137.642
  20659350.150     -868315.968 9   -676608.581 9  20659372.334    20659370.715
 92  8  4  0 38 30.0000000  0  5  3 23 26 21 17
  20653787.470      692908.095 8    539929.116 9  20653809.205    20653808.966
  20794888.718    -3769432.261 8  -2937216.104 9  20794907.995    20794906.796
  22542719.310      717193.777 7    499678.640 8  22542740.715    22542739.876
  23248278.372    -5016928.405 6  -6101279.111 7  23248297.049    23248298.578
  20659113.643     -869564.172 8   -677581.199 9  20659134.659    20659133.070
 92  8  4  0 38 35.0000000  0  5  3 23 26 21 17
  20654543.787      696866.686 8    543013.729 9  20654563.004    20654562.044
  20793847.659    -3774900.497 9  -2941477.056 9  20793867.475    20793866.516
  22543448.525      721040.416 7    502676.030 8  22543472.809    22543471.909
  23245440.596    -5031846.535 5  -6112903.599 7  23245458.254    23245459.423
  20658878.456     -870809.274 8   -678551.404 9  20658897.433    20658895.994
 92  8  4  0 38 40.0000000  0  5  3 23 26 21 17
  20655298.005      700837.475 8    546107.848 9  20655318.391    20655317.761
  20792808.218    -3780361.033 8  -2945732.018 9  20792828.334    20792826.985
  22544183.736      724899.544 7    505683.145 8  22544206.880    22544206.161
  23242599.943    -5046761.591 5  -6124525.704 7  23242619.759    23242621.378
  20658640.841     -872051.202 8   -679519.142 9  20658661.256    20658659.907
 92  8  4  0 38 45.0000000  0  5  3 23 26 21 17
  20656055.640      704820.446 8    549211.458 9  20656076.416    20656076.086
  20791773.904    -3785813.865 8  -2949980.971 9  20791790.663    20791789.644
  22544927.072      728771.013 7    508699.878 8  22544943.890    22544942.751
  23239763.367    -5061673.772 5  -6136145.565 7  23239782.074    23239783.543
  20658403.645     -873290.358 8   -680484.715 9  20658425.590    20658424.091
 92  8  4  0 38 50.0000000  0  5  3 23 26 21 17
  20656814.535      708815.375 8    552324.391 9  20656836.480    20656835.850
  20790737.342    -3791259.204 8  -2954224.086 9  20790754.640    20790753.231
  22545663.692      732654.181 7    511725.727 8  22545682.429    22545681.949
  23236928.109    -5076583.343 5  -6147763.389 7  23236944.598    23236947.206
  20658168.607     -874526.938 8   -681448.282 9  20658190.043    20658188.843
 92  8  4  0 38 55.0000000  0  5  3 23 26 21 17
  20657578.316      712821.662 8    555446.176 9  20657598.972    20657598.462
  20789698.141    -3796697.441 8  -2958461.664 9  20789719.697    20789718.377
  22546401.241      736548.379 7    514760.166 8  22546423.636    22546422.796
  23234089.884    -5091490.544 6  -6159379.356 7  23234108.082    23234109.641
  20657939.296     -875761.194 8   -682410.037 9  20657955.215    20657953.956
 92  8  4  0 39  0.0000000  0  5  3 23 26 21 17
  20658344.076      716840.123 8    558577.444 9  20658363.802    20658363.353
  20788664.877    -3802127.484 8  -2962692.865 9  20788686.582    20788685.113
  22547147.395      740454.361 7    517803.802 8  22547167.241    22547166.132
  23231252.229    -5106394.439 6  -6170992.764 7  23231271.775    23231273.634
  20657703.120     -876992.350 8   -683369.377 9  20657720.957    20657719.548
 92  8  4  0 39  5.0000000  0  5  3 23 26 21 17
  20659108.817      720870.529 8    561718.017 9  20659130.552    20659130.012
  20787634.280    -3807549.442 8  -2966917.757 9  20787654.516    20787653.257
  22547893.458      744371.676 7    520856.246 8  22547912.375    22547911.596
  23228418.590    -5121295.323 5  -6182603.822 7  23228436.218    23228438.017
  20657467.363     -878220.770 9   -684326.583 9  20657487.119    20657486.070
 92  8  4  0 39 10.0000000  0  5  3 23 26 21 17
  20659879.253      724912.429 8    564867.550 9  20659899.819    20659899.010
  20786605.542    -3812963.757 8  -2971136.698 9  20786624.219    20786622.960
  22548638.532      748299.632 7    523916.996 8  22548660.057    22548658.948
  23225584.532    -5136193.720 6  -6194212.954 7  23225601.591    23225602.550
  20657232.206     -879446.860 9   -685281.972 9  20657253.821    20657252.622
 92  8  4  0 39 15.0000000  0  5  3 23 26 21 17
  20660650.349      728966.231 8    568026.358 9  20660671.155    20660670.765
  20785576.205    -3818369.854 9  -2975349.235 9  20785595.452    20785594.073
  22549388.523      752238.517 7    526986.265 8  22549409.629    22549408.040
  23222745.438    -5151089.287 6  -6205819.863 7  23222766.843    23222768.912
  20657002.954     -880670.172 8   -686235.206 9  20657021.152    20657019.773
 92  8  4  0 39 20.0000000  0  5  3 23 26 21 17
  20661422.255      733032.169 8    571194.623 9  20661444.859    20661444.410
  20784551.365    -3823767.667 8  -2979555.314 9  20784568.123    20784566.864
  22550137.645      756188.444 7    530064.128 8  22550161.298    22550160.069
  23219911.860    -5165981.790 6  -6217424.391 7  23219933.295    23219935.123
  20656768.936     -881890.605 9   -687186.159 9  20656789.112    20656787.614
 92  8  4  0 39 25.0000000  0  5  3 23 26 21 17
  20662200.876      737109.549 8    574371.795 9  20662220.602    20662220.153
  20783523.166    -3829158.019 9  -2983755.584 9  20783542.503    20783541.154
  22550896.179      760148.723 7    533150.066 8  22550914.587    22550913.897
  23217080.859    -5180871.785 6  -6229026.957 8  23217099.686    23217101.695
  20656537.257     -883108.801 9   -688135.429 9  20656557.193    20656555.964
 92  8  4  0 39 30.0000000  0  5  3 23 26 21 17
  20662980.156      741198.909 8    577558.310 9  20662999.103    20662998.774
  20782495.028    -3834540.309 9  -2987949.570 9  20782517.992    20782516.883
  22551646.440      764119.921 7    536244.504 8  22551669.944    22551669.494
  23214245.182    -5195758.654 6  -6240627.107 8  23214266.528    23214268.866
  20656312.622     -884323.993 9   -689082.324 9  20656325.753    20656324.554
 92  8  4  0 39 35.0000000  0  5  3 23 26 21 17
  20663762.195      745300.190 8    580754.116 9  20663779.343    20663779.073
  20781473.485    -3839914.627 8  -2992137.338 9  20781495.580    20781494.261
  22552406.234      768101.971 7    539347.410 8  22552427.999    22552427.459
  23211414.062    -5210642.399 6  -6252224.809 8  23211434.089    23211436.157
  20656072.728     -885536.461 8   -690027.105 9  20656095.333    20656093.954
 92  8  4  0 39 40.0000000  0  6  3 23 28 26 21 17
  20664539.257      749413.495 8    583959.292 9  20664561.981    20664561.921
  20780454.431    -3845281.010 8  -2996318.933 9  20780474.127    20780472.988
  24766911.244    -4460426.35714
  22553165.369      772095.115 7    542458.953 8  22553187.823    22553187.133
  23208582.613    -5225522.663 6  -6263819.804 8  23208603.058    23208604.737
  20655842.728     -886746.387 8   -690969.900 9  20655864.762    20655863.653
 92  8  4  0 39 45.0000000  0  6  3 23 28 26 21 17
  20665329.120      753538.266 8    587173.392 9  20665347.048    20665346.538
  20779434.567    -3850639.982 8  -3000494.748 9  20779454.653    20779453.124
  24763295.088    -4479425.264 4   -197619.31216                  24763313.585
  22553923.634      776098.826 7    545578.733 8  22553949.656    22553949.026
  23205754.670    -5240399.823 6  -6275412.378 8  23205772.028    23205773.437
  20655615.095     -887954.097 8   -691910.966 9  20655635.091    20655633.742
 92  8  4  0 39 50.0000000  0  6  3 23 28 26 21 17
  20666111.699      757675.286 8    590397.047 9  20666134.273    20666134.123
  20778414.853    -3855990.478 8  -3004663.958 9  20778436.198    20778434.969
  24759679.890    -4498425.044 4   -212424.321 6                  24759699.826
  22554697.908      780114.121 7    548707.537 8  22554713.976    22554713.137
  23202922.051    -5255272.760 6  -6287001.661 8  23202941.628    23202943.217
  20655386.503     -889158.505 9   -692849.464 9  20655405.930    20655404.551
 92  8  4  0 39 55.0000000  0  6  3 23 28 26 21 17
  20666901.502      761824.083 8    593629.876 9  20666923.567    20666923.207
  20777399.935    -3861332.936 8  -3008826.906 9  20777419.572    20777418.552
  24756067.511     -246012.06514   -227230.403 6  24756086.248    24756084.959
  22555461.209      784140.669 7    551845.110 8  22555479.916    22555479.137
  23200094.199    -5270141.846 6  -6298587.935 8  23200111.947    23200113.715
  20655152.905     -890360.175 8   -693785.846 9  20655177.158    20655176.049
 92  8  4  0 40  0.0000000  0  6  3 23 28 26 21 17
  20667694.873      765984.652 8    596871.873 9  20667715.318    20667715.348
  20776385.018    -3866667.354 8  -3012983.586 9  20776404.385    20776403.395
  24752443.890     -265014.485 4   -242037.450 6  24752466.584    24752468.203
  22556224.151      788178.651 7    554991.598 8  22556248.164    22556247.865
  23197263.619    -5285006.945 6  -6310171.111 8  23197283.855    23197284.994
  20654928.630     -891559.059 9   -694720.020 9  20654949.106    20654947.787
 92  8  4  0 40  5.0000000  0  6  3 23 28 26 21 17
  20668488.693      770156.780 8    600122.876 9  20668509.229    20668509.049
  20775367.402    -3871993.965 8  -3017134.184 9  20775390.846    20775389.677
  24748824.016     -284018.273 4   -256845.576 6  24748850.667    24748852.286
  22557000.583      792227.915 7    558146.876 8  22557019.021    22557018.061
  23194435.287    -5299868.437 6  -6321751.474 8  23194455.163    23194456.662
  20654703.576     -892755.336 9   -695652.180 9  20654721.534    20654720.065
 92  8  4  0 40 10.0000000  0  6  3 23 28 26 21 17
  20669284.912      774340.936 8    603383.265 9  20669305.478    20669305.268
  20774359.140    -3877312.234 8  -3021278.291 9  20774378.957    20774377.728
  24745208.938     -303023.118 4   -271654.513 6  24745233.251    24745235.170
  22557768.682      796289.101 7    561311.430 8  22557791.436    22557791.286
  23191609.713    -5314725.697 6  -6333328.544 8  23191628.240    23191629.559
  20654473.815     -893948.530 9   -696581.938 9  20654494.591    20654493.122
 92  8  4  0 40 15.0000000  0  6  3 23 28 26 21 17
  20670083.619      778537.061 8    606652.971 9  20670104.095    20670103.705
  20773348.990    -3882622.411 8  -3025416.084 9  20773368.117    20773367.187
  24741594.461     -322029.348 4   -286464.545 6  24741616.795    24741619.433
  22558543.285      800361.721 7    564484.912 8  22558566.220    22558566.130
  23188780.092    -5329578.800 6  -6344902.375 8  23188801.827    23188802.726
  20654247.502     -895139.061 9   -697509.622 9  20654267.768    20654266.419
 92  8  4  0 40 20.0000000  0  6  3 23 28 26 21 17
  20670881.666      782745.312 8    609932.123 9  20670904.541    20670904.720
  20772338.989    -3887924.186 9  -3029547.328 9  20772359.345    20772358.086
  24737979.683     -341036.572 4   -301275.349 7  24738000.639    24738001.868
  22559321.607      804446.150 7    567667.583 8  22559343.521    22559343.372
  23185954.038    -5344427.386 6  -6356472.680 8  23185976.253    23185977.362
  20654023.107     -896326.708 9   -698435.057 9  20654042.174    20654040.495
 92  8  4  0 40 25.0000000  0  6  3 23 28 26 21 17
  20671687.988      786965.410 8    613220.515 9  20671707.924    20671707.595
  20771333.635    -3893218.054 8  -3033672.416 9  20771351.832    20771350.843
  24734365.925     -360045.070 4   -316087.145 6  24734383.433    24734384.212
  22560098.909      808541.813 7    570859.020 8  22560123.132    22560123.282
  23183129.124    -5359271.723 6  -6368039.677 8  23183151.338    23183152.777
  20653795.835     -897511.848 9   -699358.541 9  20653816.400    20653815.051
 92  8  4  0 40 30.0000000  0  6  3 23 28 26 21 17
  20672492.391      791196.954 8    616517.809 9  20672513.167    20672512.837
  20770326.842    -3898504.309 8  -3037791.570 9  20770345.969    20770344.680
  24730744.522     -379054.882 4   -330899.944 7  24730764.158    24730767.426
  22560884.545      812648.208 7    574058.812 8  22560904.661    22560904.361
  23180308.646    -5374112.273 6  -6379603.724 8  23180327.024    23180328.313
  20653571.260     -898694.597 9   -700280.160 9  20653591.526    20653590.237
 92  8  4  0 40 35.0000000  0  6  3 23 28 26 21 17
  20673301.441      795440.314 8    619824.324 9  20673320.838    20673320.658
  20769319.269    -3903782.505 8  -3041904.442 9  20769341.664    20769340.375
  24727132.832     -398065.395 4   -345713.318 7  24727146.892    24727149.291
  22561667.393      816765.916 7    577267.415 8  22561688.168    22561688.228
  23177485.770    -5388948.723 6  -6391164.565 8  23177503.638    23177504.657
  20653346.985     -899874.400 9   -701199.483 9  20653366.742    20653365.333
 92  8  4  0 40 40.0000000  0  6  3 23 28 26 21 17
  20674111.750      799695.664 8    623140.186 9  20674130.427    20674130.187
  20768319.252    -3909052.493 8  -3046010.920 9  20768338.648    20768337.149
  24723517.575     -417076.570 4   -360527.178 7  24723529.387    24723531.305
  22562455.187      820895.071 7    580484.948 8  22562474.314    22562473.684
  23174661.875    -5403781.298 6  -6402722.401 8  23174681.032    23174682.411
  20653122.591     -901051.270 9   -702116.522 9  20653142.857    20653141.268
 92  8  4  0 40 45.0000000  0  6  3 23 28 26 21 17
  20674925.117      803963.025 8    626465.397 9  20674942.445    20674942.325
  20767319.534    -3914314.012 8  -3050110.798 9  20767337.491    20767336.232
  24719898.211     -436088.461 4   -375341.618 7  24719911.971    24719913.710
  22563241.333      825035.600 6    583711.332 8  22563262.079    22563261.659
  23171839.779    -5418610.297 6  -6414277.450 8  23171859.176    23171860.705
  20652898.136     -902225.386 8   -703031.418 9  20652919.451    20652917.803
 92  8  4  0 40 50.0000000  0  6  3 23 28 26 21 17
  20675736.565      808242.619 8    629800.145 9  20675757.131    20675756.562
  20766316.338    -3919566.612 8  -3054203.726 9  20766337.983    20766336.604
  24716273.960     -455100.843 4   -390156.428 7  24716294.226    24716295.755
  22564029.278      829187.848 7    586946.863 8  22564052.062    22564051.252
  23169019.062    -5433435.441 6  -6425829.486 8  23169037.799    23169040.077
  20652679.497     -903396.716 9   -703944.137 9  20652696.436    20652695.117
 92  8  4  0 40 55.0000000  0  6  3 23 28 26 21 17
  20676553.110      812533.956 8    633144.038 9  20676573.556    20676572.807
  20765319.528    -3924810.745 8  -3058290.058 9  20765340.184    20765338.865
  24712658.463     -474114.189 4   -404971.992 7  24712676.420    24712677.349
  22564823.997      833351.164 7    590191.005 8  22564844.024    22564844.113
  23166192.948    -5448257.286 6  -6437378.942 8  23166216.872    23166219.480
  20652457.111     -904565.842 9   -704855.141 9  20652473.840    20652472.581
 92  8  4  0 41  0.0000000  0  6  3 23 28 26 21 17
  20677373.732      816837.316 7    636497.309 9  20677392.589    20677391.630
  20764323.288    -3930046.243 8  -3062369.664 9  20764343.824    20764342.385
  24709048.602     -493128.255 5   -419788.129 7  24709057.655    24709059.634
  22565614.580      837525.760 7    593443.937 8  22565638.953    22565638.174
  23163379.876    -5463075.734 6  -6448925.770 8  23163397.144    23163399.003
  20652233.736     -905732.236 9   -705764.018 9  20652251.814    20652250.734
 92  8  4  0 41  5.0000000  0  6  3 23 28 26 21 17
  20678194.024      821152.417 8    639859.728 9  20678213.721    20678213.091
  20763328.996    -3935273.187 8  -3066442.598 9  20763349.202    20763347.943
  24705429.687     -512143.285 5   -434605.014 7  24705439.610    24705440.989
  22566413.047      841711.649 7    596705.677 8  22566435.772    22566434.572
  23160559.099    -5477891.067 6  -6460470.161 7  23160577.926    23160579.934
  20652012.939     -906895.677 8   -706670.594 9  20652030.447    20652029.338
 92  8  4  0 41 10.0000000  0  6  3 23 28 26 21 17
  20679016.055      825479.632 8    643231.571 9  20679037.370    20679036.531
  20762338.962    -3940491.553 8  -3070508.851 9  20762356.380    20762354.731
  24701806.665     -531159.143 5   -449422.553 7  24701821.745    24701823.034
  22567217.031      845909.054 6    599976.390 8  22567234.299    22567233.939
  23157740.780    -5492703.110 6  -6472011.989 7  23157759.367    23157761.525
  20651788.484     -908055.720 8   -707574.522 9  20651809.710    20651808.361
 92  8  4  0 41 15.0000000  0  6  3 23 28 26 21 17
  20679842.043      829818.840 8    646612.779 9  20679862.879    20679862.309
  20761346.529    -3945701.589 9  -3074568.610 9  20761364.636    20761363.257
  24698177.827     -550175.784 5   -464240.691 7  24698203.100    24698203.579
  22568015.198      850118.017 7    603256.105 8  22568035.104    22568034.385
  23154922.910    -5507512.005 6  -6483551.367 7  23154941.108    23154943.266
  20651570.985     -909212.339 9   -708475.775 9  20651589.602    20651588.193
 92  8  4  0 41 20.0000000  0  6  3 23 28 26 21 17
  20680670.790      834170.007 8    650003.299 9  20680691.026    20680690.276
  20760353.676    -3950903.548 9  -3078622.081 9  20760374.872    20760373.313
  24694562.990     -569193.429 5   -479059.608 7  24694583.945    24694584.695
  22568819.062      854338.509 7    606544.800 8  22568838.518    22568837.949
  23152107.769    -5522317.991 6  -6495088.485 7  23152124.228    23152125.517
  20651349.798     -910365.777 8   -709374.556 9  20651370.214    20651368.595
 92  8  4  0 41 25.0000000  0  6  3 23 28 26 21 17
  20681498.157      838533.068 8    653403.083 9  20681521.271    20681520.671
  20759367.779    -3956097.596 9  -3082669.382 9  20759386.336    20759385.167
  24690943.625     -588212.293 5   -493879.477 7  24690964.851    24690965.330
  22569627.062      858570.422 7    609842.397 8  22569643.761    22569643.101
  23149290.020    -5537120.992 6  -6506623.264 7  23149307.498    23149308.877
  20651131.999     -911515.985 8   -710270.823 9  20651151.395    20651150.046
 92  8  4  0 41 30.0000000  0  6  3 23 28 26 21 17
  20682334.608      842908.341 8    656812.382 9  20682353.944    20682353.405
  20758377.534    -3961283.326 9  -3086710.204 9  20758399.479    20758398.430
  24687321.413     -607232.111 5   -508700.086 7  24687345.396    24687346.266
  22570432.485      862814.140 7    613149.194 8  22570450.952    22570450.472
  23146470.982    -5551920.440 6  -6518155.281 7  23146491.158    23146492.357
  20650915.249     -912662.591 8   -711164.281 9  20650933.176    20650931.827
 92  8  4  0 41 35.0000000  0  6  3 23 28 26 21 17
  20683165.632      847295.739 8    660231.137 9  20683188.836    20683188.027
  20757396.224    -3966460.914 9  -3090744.684 9  20757414.331    20757413.282
  24683702.079     -626253.048 5   -523521.568 7  24683725.792    24683726.512
  22571241.055      867069.552 7    616465.107 8  22571260.452    22571260.092
  23143656.290    -5566716.552 6  -6529684.696 7  23143675.747    23143676.886
  20650694.392     -913805.831 9   -712055.110 9  20650715.527    20650714.208
 92  8  4  0 41 40.0000000  0  6  3 23 28 26 21 17
  20684005.921      851695.473 8    663659.498 9  20684025.947    20684025.737
  20756411.405    -3971630.132 9  -3094772.642 9  20756430.562    20756429.423
  24680085.412     -645274.699 5   -538343.620 7  24680106.248    24680107.267
  22572054.062      871337.177 7    619790.527 8  22572073.189    22572072.559
  23140838.631    -5581509.002 6  -6541211.263 7  23140860.306    23140862.075
  20650479.201     -914945.418 9   -712943.096 9  20650498.627    20650497.218
 92  8  4  0 41 45.0000000  0  6  3 23 28 26 21 17
  20684845.400      856107.093 8    667097.123 9  20684865.366    20684865.276
  20755426.078    -3976791.163 9  -3098794.219 9  20755448.652    20755447.213
  24676467.577     -664297.499 5   -553166.564 7  24676486.944    24676486.524
  22572866.050      875616.605 7    623125.147 8  22572887.425    22572887.035
  23138025.858    -5596298.237 6  -6552735.328 7  23138047.053    23138047.503
  20650263.230     -916081.475 9   -713828.338 9  20650282.687    20650281.068
 92  8  4  0 41 50.0000000  0  6  3 23 28 26 21 17
  20685687.007      860530.789 8    670544.159 9  20685707.093    20685706.763
  20754449.923    -3981943.857 9  -3102809.294 9  20754467.851    20754466.652
  24672843.116     -683321.363 5   -567990.324 7  24672867.040    24672867.309
  22573684.334      879907.818 7    626468.949 8  22573703.820    22573703.700
  23135214.884    -5611084.401 6  -6564256.988 7  23135232.152    23135233.681
  20650045.251     -917213.885 8   -714710.735 9  20650066.986    20650065.847
 92  8  4  0 41 55.0000000  0  6  3 23 28 26 21 17
  20686531.282      864966.666 8    674000.681 9  20686551.249    20686551.009
  20753468.613    -3987088.063 9  -3106817.765 9  20753489.029    20753487.859
  24669224.381     -702345.863 5   -582814.588 7  24669246.026    24669246.956
  22574501.178      884211.152 7    629822.201 8  22574523.123    22574522.223
  23132399.713    -5625867.282 6  -6575776.096 7  23132419.109    23132420.848
  20649835.576     -918342.691 9   -715590.316 9  20649852.335    20649850.836
 92  8  4  0 42  0.0000000  0  6  3 23 28 26 21 17
  20687373.369      869414.664 8    677466.654 9  20687397.353    20687397.533
  20752492.398    -3992223.773 9  -3110819.607 9  20752511.645    20752510.356
  24665603.728     -721370.971 5   -597639.329 7  24665625.493    24665626.272
  22575329.385      888526.430 7    633184.762 8  22575343.985    22575343.625
  23129587.420    -5640647.268 6  -6587292.938 7  23129606.876    23129608.345
  20649618.766     -919467.975 8   -716467.162 9  20649638.103    20649636.724
 92  8  4  0 42  5.0000000  0  6  3 23 28 26 21 17
  20688227.448      873875.172 8    680942.376 9  20688246.365    20688246.035
  20751516.064    -3997350.567 9  -3114814.506 9  20751536.300    20751534.771
  24661982.805     -740396.390 5   -612464.297 7  24662005.739    24662005.439
  22576150.037      892853.752 7    636556.696 8  22576167.185    22576167.275
  23126773.298    -5655424.450 6  -6598807.603 7  23126794.493    23126795.453
  20649405.614     -920589.595 9   -717341.147 9  20649424.711    20649423.122
 92  8  4  0 42 10.0000000  0  6  3 23 28 26 21 17
  20689078.379      878347.618 8    684427.393 9  20689097.716    20689097.116
  20750537.692    -4002468.878 9  -3118802.788 9  20750562.155    20750561.016
  24658356.065     -759422.438 5   -627289.765 7  24658384.306    24658385.985
  22576973.866      897192.636 7    639937.651 8  22576993.353    22576992.963
  23123964.572    -5670199.288 6  -6610320.449 7  23123983.100    23123984.958
  20649193.721     -921708.351 8   -718212.905 9  20649212.038    20649210.569
 92  8  4  0 42 15.0000000  0  6  3 23 28 26 21 17
  20689928.111      882832.577 8    687922.169 9  20689950.985    20689950.805
  20749571.011    -4007578.472 9  -3122784.288 9  20749589.748    20749588.519
  24654737.870     -778448.713 5   -642115.405 7  24654763.712    24654764.792
  22577799.854      901543.243 7    643327.742 8  22577821.170    22577820.390
  23121149.431    -5684971.356 6  -6621831.134 7  23121171.796    23121173.685
  20648978.170     -922823.978 9   -719082.221 9  20648999.455    20648998.076
 92  8  4  0 42 20.0000000  0  6  3 23 28 26 21 17
  20690785.967      887329.656 8    691426.381 9  20690806.922    20690806.653
  20748598.994    -4012679.789 9  -3126759.334 9  20748619.230    20748617.851
  24651122.253     -797475.552 5   -656941.495 7  24651143.149    24651144.168
  22578630.819      905904.960 7    646726.492 8  22578651.175    22578650.545
  23118339.297    -5699741.128 6  -6633340.027 7  23118361.361    23118362.231
  20648768.375     -923936.904 9   -719949.436 9  20648787.922    20648786.243
 92  8  4  0 42 25.0000000  0  6  3 23 28 26 21 17
  20691645.262      891839.044 8    694940.193 9  20691664.958    20691664.419
  20747629.525    -4017772.649 9  -3130727.783 9  20747649.911    20747648.712
  24647499.711     -816502.811 5   -671767.907 7  24647521.896    24647523.275
  22579459.985      910277.799 7    650133.898 8  22579483.429    22579483.039
  23115529.972    -5714508.537 6  -6644847.075 7  23115551.377    23115553.176
  20648555.642     -925047.122 9   -720814.534 9  20648576.328    20648574.919
 92  8  4  0 42 30.0000000  0  6  3 23 28 26 21 17
  20692503.688      896360.532 8    698463.426 9  20692525.273    20692525.123
  20746662.095    -4022857.203 9  -3134689.768 9  20746682.361    20746681.042
  24643880.437     -835530.809 5   -686594.895 7  24643901.272    24643902.471
  22580296.496      914661.429 7    653549.710 8  22580317.511    22580316.882
  23112726.073    -5729273.454 6  -6656352.182 7  23112742.082    23112742.801
  20648346.867     -926154.600 8   -721677.500 9  20648365.304    20648364.075
 92  8  4  0 42 35.0000000  0  6  3 23 28 26 21 17
  20693370.208      900894.323 8    701996.248 9  20693388.016    20693387.896
  20745696.103    -4027933.305 9  -3138645.168 9  20745716.369    20745715.230
  24640254.717     -854559.219 5   -701422.202 7  24640280.109    24640281.788
  22581130.309      919056.079 7    656974.117 8  22581153.753    22581153.543
  23109914.439    -5744035.651 6  -6667855.173 7  23109933.356    23109934.076
  20648134.914     -927259.098 8   -722538.145 9  20648155.180    20648153.891
 92  8  4  0 42 40.0000000  0  6  3 23 28 26 21 17
  20694231.602      905440.447 8    705538.682 9  20694253.067    20694252.797
  20744732.600    -4033000.936 9  -3142593.968 9  20744751.967    20744750.798
  24636647.164     -873588.084 5   -716249.869 7  24636659.306    24636660.235
  22581970.957      923461.926 7    660407.243 8  22581992.452    22581991.373
  23107105.684    -5758795.370 6  -6679356.231 7  23107124.271    23107125.740
  20647924.489     -928360.709 9   -723396.547 9  20647945.565    20647944.455
 92  8  4  0 42 45.0000000  0  6  3 23 28 26 21 17
  20695097.672      909998.377 8    709090.312 9  20695120.426    20695120.007
  20743767.928    -4038060.498 9  -3146536.476 9  20743789.333    20743788.134
  24633024.322     -892617.897 5   -731078.265 6  24633038.023    24633039.012
  22582815.112      927878.484 7    663848.715 8  22582832.470    22582831.811
  23104296.718    -5773553.248 6  -6690855.861 7  23104316.475    23104317.014
  20647716.733     -929459.888 8   -724253.043 9  20647736.519    20647735.320
 92  8  4  0 42 50.0000000  0  6  3 23 28 26 21 17
  20695970.368      914568.162 8    712651.184 9  20695990.004    20695989.435
  20742807.963    -4043111.751 9  -3150472.510 9  20742827.989    20742826.730
  24629398.362     -911648.571 5   -745907.354 7  24629415.510    24629418.328
  22583653.062      932306.100 7    667298.817 8  22583675.277    22583674.438
  23101484.695    -5788309.132 6  -6702353.929 7  23101507.869    23101508.259
  20647506.878     -930556.390 8   -725107.460 9  20647527.954    20647526.635
 92  8  4  0 42 55.0000000  0  6  3 23 28 26 21 17
  20696841.865      919150.260 8    716221.654 9  20696861.681    20696861.351
  20741845.449    -4048154.570 9  -3154401.971 9  20741868.203    20741867.184
  24625777.709     -930680.041 5   -760737.046 7  24625794.407    24625796.266
  22584502.314      936745.137 7    670757.809 8  22584520.182    22584519.373
  23098681.665    -5803062.541 6  -6713850.069 7  23098700.492    23098701.392
  20647299.752     -931650.045 8   -725959.654 9  20647319.898    20647318.519
 92  8  4  0 43  0.0000000  0  6  3 23 28 26 21 17
  20697713.721      923744.277 8    719801.400 9  20697736.115    20697736.205
  20740891.719    -4053189.267 9  -3158325.104 9  20740910.486    20740909.347
  24622153.668     -949712.617 5   -775567.597 7  24622172.375    24622174.443
  22585348.479      941195.118 7    674225.317 8  22585367.006    22585366.346
  23095873.629    -5817813.479 6  -6725344.281 7  23095893.805    23095894.195
  20647091.516     -932741.259 8   -726809.946 9  20647112.202    20647110.883
 92  8  4  0 43  5.0000000  0  6  3 23 28 26 21 17
  20698591.933      928350.360 8    723390.562 9  20698612.709    20698612.469
  20739933.313    -4058215.751 9  -3162241.837 9  20739953.819    20739952.560
  24618536.132     -968746.193 5   -790398.934 7  24618551.122    24618552.531
  22586194.373      945656.267 7    677701.545 8  22586216.048    22586215.209
  23093068.381    -5832561.554 6  -6736836.276 7  23093087.268    23093087.718
  20646886.488     -933829.815 9   -727658.174 9  20646904.985    20646903.666
 92  8  4  0 43 10.0000000  0  6  3 23 28 26 21 17
  20699474.432      932968.745 8    726989.297 9  20699491.460    20699491.250
  20738977.425    -4063233.980 9  -3166152.138 9  20738998.860    20738997.691
  24614905.046     -987780.439 5   -805230.793 7  24614927.770    24614929.959
  22587046.563      950128.877 7    681186.693 8  22587067.159    22587066.229
  23090260.285    -5847306.407 6  -6748325.747 7  23090281.841    23090281.990
  20646676.693     -934915.324 8   -728504.021 9  20646698.398    20646697.079
 92  8  4  0 43 15.0000000  0  6  3 23 28 26 21 17
  20700349.766      937599.620 8    730597.769 9  20700372.490    20700372.520
  20738027.322    -4068244.016 9  -3170056.061 9  20738045.370    20738044.351
  24611279.806    -1006815.291 5   -820063.137 7  24611306.217    24611307.446
  22587900.942      954612.932 7    684680.772 8  22587920.758    22587919.409
  23087456.237    -5862047.877 6  -6759812.590 7  23087476.203    23087476.922
  20646472.744     -935997.436 9   -729347.224 9  20646492.441    20646491.092
 92  8  4  0 43 20.0000000  0  6  3 23 28 26 21 17
  20701234.304      942242.782 8    734215.812 9  20701256.159    20701256.338
  20737073.473    -4073246.211 9  -3173953.867 9  20737093.679    20737092.510
  24607669.645    -1025851.230 5   -834896.312 7  24607683.465    24607685.174
  22588753.252      959108.299 7    688183.650 8  22588776.216    22588775.166
  23084648.141    -5876786.228 6  -6771296.992 7  23084671.405    23084671.644
  20646264.808     -937076.388 8   -730187.958 9  20646287.083    20646285.854
 92  8  4  0 43 25.0000000  0  6  3 23 28 26 21 17
  20702125.077      946898.545 8    737843.677 9  20702142.465    20702142.165
  20736125.709    -4078240.090 9  -3177845.194 9  20736143.337    20736142.138
  24604041.407    -1044887.904 5   -849730.062 7  24604061.313    24604062.992
  22589611.198      963615.382 7    691695.664 8  22589633.262    22589632.183
  23081848.289    -5891521.036 6  -6782778.644 7  23081867.296    23081868.195
  20646060.320     -938152.088 8   -731026.170 9  20646082.654    20646081.275
 92  8  4  0 43 30.0000000  0  6  3 23 28 26 21 17
  20703010.454      951566.417 8    741480.988 9  20703030.540    20703030.150
  20735172.159    -4083226.158 9  -3181730.432 9  20735194.494    20735193.444
  24600417.545    -1063925.586 5   -864564.601 7  24600438.441    24600440.090
  22590473.011      968133.824 7    695216.529 8  22590493.217    22590491.718
  23079042.681    -5906252.499 6  -6794257.686 7  23079064.566    23079064.626
  20645857.930     -939225.124 8   -731862.292 9  20645878.286    20645877.027
 92  8  4  0 43 35.0000000  0  6  3 23 28 26 21 17
  20703897.720      956246.592 8    745127.867 9  20703921.493    20703920.684
  20734228.892    -4088204.364 9  -3185609.547 9  20734247.089    20734246.130
  24596794.943    -1082964.173 5   -879399.850 7  24596815.419    24596817.128
  22591334.644      972663.606 7    698746.238 8  22591354.791    22591354.161
  23076242.830    -5920980.501 6  -6805734.033 7  23076262.196    23076261.597
  20645652.872     -940295.659 9   -732696.479 9  20645674.547    20645673.498
 92  8  4  0 43 40.0000000  0  6  3 23 28 26 21 17
  20704791.371      960939.152 8    748784.402 9  20704814.335    20704813.886
  20733280.619    -4093174.278 9  -3189482.204 9  20733301.514    20733300.375
  24593175.489    -1102003.519 5   -894235.688 7  24593192.697    24593194.046
  22592202.064      977204.838 7    702284.857 8  22592219.332    22592218.283
  23073440.879    -5935704.810 6  -6817207.499 7  23073459.766    23073459.676
  20645451.861     -941363.642 9   -733528.666 9  20645471.318    20645470.148
 92  8  4  0 43 45.0000000  0  6  3 23 28 26 21 17
  20705689.310      965644.117 8    752450.606 9  20705709.665    20705709.036
  20732337.022    -4098135.688 9  -3193348.227 9  20732357.258    20732356.178
  24589549.889    -1121043.462 5   -909071.992 7  24589569.465    24589570.874
  22593065.077      981757.576 7    705832.443 8  22593085.852    22593084.623
  23070642.227    -5950425.338 6  -6828678.021 7  23070658.715    23070658.565
  20645246.473     -942428.873 9   -734358.718 9  20645268.688    20645267.549
 92  8  4  0 43 50.0000000  0  6  3 23 28 26 21 17
  20706586.289      970361.412 8    756126.415 9  20706607.334    20706607.124
  20731393.755    -4103088.779 9  -3197207.763 9  20731414.650    20731413.421
  24585931.154    -1140084.055 5   -923908.807 7  24585946.833    24585947.343
  22593935.734      986321.713 7    709388.917 8  22593954.171    22593953.452
  23067834.730    -5965142.539 6  -6840145.948 7  23067858.354    23067858.354
  20645048.520     -943491.512 9   -735186.743 9  20645066.658    20645065.039
 92  8  4  0 43 55.0000000  0  6  3 23 28 26 21 17
  20707482.668      975091.189 8    759811.953 9  20707507.131    20707506.532
  20730455.344    -4108033.578 9  -3201060.857 9  20730473.692    20730472.463
  24582309.631    -1159125.043 6   -938745.928 7  24582324.081    24582324.201
  22594804.952      990897.340 7    712954.337 8  22594825.338    22594824.498
  23065039.136    -5979856.347 6  -6851611.228 8  23065057.723    23065058.562
  20644844.871     -944551.365 9   -736012.609 9  20644864.897    20644863.518
 92  8  4  0 44  0.0000000  0  6  3 23 28 26 21 17
  20708387.951      979833.082 8    763506.938 9  20708409.566    20708409.207
  20729513.217    -4112970.459 9  -3204907.768 9  20729534.202    20729533.003
  24578682.652    -1178166.723 6   -953583.583 7  24578700.100    24578700.550
  22595674.800      995484.277 7    716528.581 8  22595698.064    22595696.625
  23062236.886    -5994566.855 6  -6863073.943 8  23062257.991    23062258.890
  20644646.259     -945608.486 9   -736836.331 9  20644663.737    20644662.148
 92  8  4  0 44  5.0000000  0  6  3 23 28 26 21 17
  20709294.374      984587.182 8    767211.429 9  20709314.130    20709314.070
  20728574.956    -4117899.467 9  -3208748.550 9  20728596.211    20728595.162
  24575058.911    -1197209.158 6   -968421.840 7  24575076.628    24575077.348
  22596552.322     1000082.463 7    720111.584 8  22596573.458    22596571.569
  23059439.552    -6009274.043 6  -6874534.065 8  23059459.818    23059460.478
  20644441.171     -946662.909 9   -737657.956 9  20644463.265    20644461.587
 92  8  4  0 44 10.0000000  0  6  3 23 28 26 21 17
  20710201.816      989353.650 8    770925.554 9  20710221.092    20710220.613
  20727638.674    -4122820.671 9  -3212583.245 9  20727659.840    20727658.641
  24571436.039    -1216252.250 6   -983260.603 7  24571452.557    24571453.667
  22597428.256     1004692.194 7    723703.583 8  22597450.321    22597448.972
  23056646.266    -6023977.736 6  -6885991.470 8  23056661.316    23056662.455
  20644242.378     -947714.855 9   -738477.651 9  20644262.764    20644261.535
 92  8  4  0 44 15.0000000  0  6  3 23 28 26 21 17
  20711109.197      994132.887 8    774649.639 9  20711130.603    20711130.423
  20726705.540    -4127733.659 9  -3216411.532 9  20726724.817    20726723.708
  24567815.925    -1235295.414 5   -998099.432 7  24567828.426    24567829.296
  22598305.449     1009313.971 7    727304.963 8  22598330.301    22598329.102
  23053846.594    -6038677.441 6  -6897445.761 8  23053864.222    23053865.271
  20644044.186     -948763.975 9   -739295.142 9  20644063.552    20644061.813
 92  8  4  0 44 20.0000000  0  6  3 23 28 26 21 17
  20712018.198      998924.395 8    778383.272 9  20712042.212    20712042.182
  20725771.297    -4132638.987 9  -3220233.873 9  20725791.683    20725790.244
  24564183.879    -1254339.264 5  -1012938.770 6  24564204.565    24564205.524
  22599190.406     1013947.038 7    730915.156 8  22599211.421    22599210.462
  23051048.361    -6053373.586 6  -6908897.291 8  23051067.548    23051068.777
  20643845.573     -949810.745 9   -740110.809 9  20643864.040    20643862.691
 92  8  4  0 44 25.0000000  0  6  3 23 28 26 21 17
  20712937.542     1003728.404 8    782126.652 9  20712956.579    20712956.639
  20724837.893    -4137536.550 9  -3224050.146 9  20724859.448    20724858.219
  24560564.905    -1273383.533 5  -1027778.458 6  24560580.704    24560581.903
  22600071.346     1018591.769 7    734534.422 8  22600095.629    22600094.280
  23048256.754    -6068065.554 6  -6920345.555 8  23048271.743    23048273.332
  20643643.543     -950854.655 9   -740924.241 9  20643665.368    20643663.959
